[[{"header":{"parameterUnit":"m.s-1","parameterCategory":1,"la1":30.6,"la2":28.766,"lo1":-90.7593,"lo2":-88.6598,"dy":0.0162,"dx":0.0183,"nx":116,"ny":114,"refTime":"2023-05-27T12:00:00:Z","depth":0,"parameterNumber":2,"parameterNumberName":"U-component_of_WINDS"},"data":[0.0,0.0,0.0,0.0,0.0,0.0,0.0,0.0,0.0,0.0,0.0,0.0,0.0,0.0,0.0,0.0,0.0,0.0,0.0,0.0,0.0,0.0,0.0,0.0,0.0,0.0,0.0,0.0,0.0,0.0,0.0,0.0,0.0,0.0,0.0,0.0,0.0,0.0,0.0,0.0,0.0,0.0,0.0,0.0,0.0,0.0,0.0,0.0,0.0,0.0,0.0,0.0,0.0,0.0,0.0,0.0,0.0,0.0,0.0,0.0,0.0,0.0,0.0,0.0,0.0,0.0,0.0,0.0,0.0,0.0,0.0,0.0,0.0,0.0,0.0,0.0,0.0,0.0,0.0,0.0,0.0,0.0,0.0,0.0,0.0,0.0,0.0,0.0,0.0,0.0,0.0,0.0,0.0,0.0,0.0,0.0,0.0,0.0,0.0,0.0,0.0,0.0,0.0,0.0,0.0,0.0,0.0,0.0,0.0,0.0,0.0,0.0,0.0,0.0,0.0,0.0,0.0,0.0,0.0,0.0,0.0,0.0,0.0,0.0,0.0,0.0,0.0,0.0,0.0,0.0,0.0,0.0,0.0,0.0,0.0,0.0,0.0,0.0,0.0,0.0,0.0,0.0,0.0,0.0,0.0,0.0,0.0,0.0,0.0,0.0,0.0,0.0,0.0,0.0,0.0,0.0,0.0,0.0,0.0,0.0,0.0,0.0,0.0,0.0,0.0,0.0,0.0,0.0,0.0,0.0,0.0,0.0,0.0,0.0,0.0,0.0,0.0,0.0,0.0,0.0,0.0,0.0,0.0,0.0,0.0,0.0,0.0,0.0,0.0,0.0,0.0,0.0,0.0,0.0,0.0,0.0,0.0,0.0,0.0,0.0,0.0,0.0,0.0,0.0,0.0,0.0,0.0,0.0,0.0,0.0,0.0,0.0,0.0,0.0,0.0,0.0,0.0,0.0,0.0,0.0,0.0,0.0,0.0,0.0,0.0,0.0,0.0,0.0,0.0,0.0,0.0,0.0,0.0,0.0,0.0,0.0,0.0,0.0,0.0,0.0,0.0,0.0,0.0,0.0,0.0,0.0,0.0,0.0,0.0,0.0,0.0,0.0,0.0,0.0,0.0,0.0,0.0,0.0,0.0,0.0,0.0,0.0,0.0,0.0,0.0,0.0,0.0,0.0,0.0,0.0,0.0,0.0,0.0,0.0,0.0,0.0,0.0,0.0,0.0,0.0,0.0,0.0,0.0,0.0,0.0,0.0,0.0,0.0,0.0,0.0,0.0,0.0,0.0,0.0,0.0,0.0,0.0,0.0,0.0,0.0,0.0,0.0,0.0,0.0,0.0,0.0,0.0,0.0,0.0,0.0,0.0,0.0,0.0,0.0,0.0,0.0,0.0,0.0,0.0,0.0,0.0,0.0,0.0,0.0,0.0,0.0,0.0,0.0,0.0,0.0,0.0,0.0,0.0,0.0,0.0,0.0,0.0,0.0,0.0,0.0,0.0,0.0,0.0,0.0,0.0,0.0,0.0,0.0,0.0,0.0,0.0,0.0,0.0,0.0,0.0,0.0,0.0,0.0,0.0,0.0,0.0,0.0,0.0,0.0,0.0,0.0,0.0,0.0,0.0,0.0,0.0,0.0,0.0,0.0,0.0,0.0,0.0,0.0,0.0,0.0,0.0,0.0,0.0,0.0,0.0,0.0,0.0,0.0,0.0,0.0,0.0,0.0,0.0,0.0,0.0,0.0,0.0,0.0,0.0,0.0,0.0,0.0,0.0,0.0,0.0,0.0,0.0,0.0,0.0,0.0,0.0,0.0,0.0,0.0,0.0,0.0,0.0,0.0,0.0,0.0,0.0,0.0,0.0,0.0,0.0,0.0,0.0,0.0,0.0,0.0,0.0,0.0,0.0,0.0,0.0,0.0,0.0,0.0,0.0,0.0,0.0,0.0,0.0,0.0,0.0,0.0,0.0,0.0,0.0,0.0,0.0,0.0,0.0,0.0,0.0,0.0,0.0,0.0,0.0,0.0,0.0,0.0,0.0,0.0,0.0,0.0,0.0,0.0,0.0,0.0,0.0,0.0,0.0,0.0,0.0,0.0,0.0,0.0,0.0,0.0,0.0,0.0,0.0,0.0,0.0,0.0,0.0,0.0,0.0,0.0,0.0,0.0,0.0,0.0,0.0,0.0,0.0,0.0,0.0,0.0,0.0,0.0,0.0,0.0,0.0,0.0,0.0,0.0,0.0,0.0,0.0,0.0,0.0,0.0,0.0,0.0,0.0,0.0,0.0,0.0,0.0,0.0,0.0,0.0,0.0,0.0,0.0,0.0,0.0,0.0,0.0,0.0,0.0,0.0,0.0,0.0,0.0,0.0,0.0,0.0,0.0,0.0,0.0,0.0,0.0,0.0,0.0,0.0,0.0,0.0,0.0,0.0,0.0,0.0,0.0,0.0,0.0,0.0,0.0,0.0,0.0,0.0,0.0,0.0,0.0,0.0,0.0,0.0,0.0,0.0,0.0,0.0,0.0,0.0,0.0,0.0,0.0,0.0,0.0,0.0,0.0,0.0,0.0,0.0,0.0,0.0,0.0,0.0,0.0,0.0,0.0,0.0,0.0,0.0,0.0,0.0,0.0,0.0,0.0,0.0,0.0,0.0,0.0,0.0,0.0,0.0,0.0,0.0,0.0,0.0,0.0,0.0,0.0,0.0,0.0,0.0,0.0,0.0,0.0,0.0,0.0,0.0,0.0,0.0,0.0,0.0,0.0,0.0,0.0,0.0,0.0,0.0,0.0,0.0,0.0,0.0,0.0,0.0,0.0,0.0,0.0,0.0,0.0,0.0,0.0,0.0,0.0,0.0,0.0,0.0,0.0,0.0,0.0,0.0,0.0,0.0,0.0,0.0,0.0,0.0,0.0,0.0,0.0,0.0,0.0,0.0,0.0,0.0,0.0,0.0,0.0,0.0,0.0,0.0,0.0,0.0,0.0,0.0,0.0,0.0,0.0,0.0,0.0,0.0,0.0,0.0,0.0,0.0,0.0,0.0,0.0,0.0,0.0,0.0,0.0,0.0,0.0,0.0,0.0,0.0,0.0,0.0,0.0,0.0,0.0,0.0,0.0,0.0,0.0,0.0,0.0,0.0,0.0,0.0,0.0,0.0,0.0,0.0,0.0,0.0,0.0,0.0,0.0,0.0,0.0,0.0,0.0,0.0,0.0,0.0,0.0,0.0,0.0,0.0,0.0,0.0,0.0,0.0,0.0,0.0,0.0,0.0,0.0,0.0,0.0,0.0,0.0,0.0,0.0,0.0,0.0,0.0,0.0,0.0,0.0,0.0,0.0,0.0,0.0,0.0,0.0,0.0,0.0,0.0,0.0,0.0,0.0,0.0,0.0,0.0,0.0,0.0,0.0,0.0,0.0,0.0,0.0,0.0,0.0,0.0,0.0,0.0,0.0,0.0,0.0,0.0,0.0,0.0,0.0,0.0,0.0,0.0,0.0,0.0,0.0,0.0,0.0,0.0,0.0,0.0,0.0,0.0,0.0,0.0,0.0,0.0,0.0,0.0,0.0,0.0,0.0,0.0,0.0,0.0,0.0,0.0,0.0,0.0,0.0,0.0,0.0,0.0,0.0,0.0,0.0,0.0,0.0,0.0,0.0,0.0,0.0,0.0,0.0,0.0,0.0,0.0,0.0,0.0,0.0,0.0,0.0,0.0,0.0,0.0,0.0,0.0,0.0,0.0,0.0,0.0,0.0,0.0,0.0,0.0,0.0,0.0,0.0,0.0,0.0,0.0,0.0,0.0,0.0,0.0,0.0,0.0,0.0,0.0,0.0,0.0,0.0,0.0,0.0,0.0,0.0,0.0,0.0,0.0,0.0,0.0,0.0,0.0,0.0,0.0,0.0,0.0,0.0,0.0,0.0,0.0,0.0,0.0,0.0,0.0,0.0,0.0,0.0,0.0,0.0,0.0,0.0,0.0,0.0,0.0,0.0,0.0,0.0,0.0,0.0,0.0,0.0,0.0,0.0,0.0,0.0,0.0,0.0,0.0,0.0,0.0,0.0,0.0,0.0,0.0,0.0,0.0,0.0,0.0,0.0,0.0,0.0,0.0,0.0,0.0,0.0,0.0,0.0,0.0,0.0,0.0,0.0,0.0,0.0,0.0,0.0,0.0,0.0,0.0,0.0,0.0,0.0,0.0,0.0,0.0,0.0,0.0,0.0,0.0,0.0,0.0,0.0,0.0,0.0,0.0,0.0,0.0,0.0,0.0,0.0,0.0,0.0,0.0,0.0,0.0,0.0,0.0,0.0,0.0,0.0,0.0,0.0,0.0,0.0,0.0,0.0,0.0,0.0,0.0,0.0,0.0,0.0,0.0,0.0,0.0,0.0,0.0,0.0,0.0,0.0,0.0,0.0,0.0,0.0,0.0,0.0,0.0,0.0,0.0,0.0,0.0,0.0,0.0,0.0,0.0,0.0,0.0,0.0,0.0,0.0,0.0,0.0,0.0,0.0,0.0,0.0,0.0,0.0,0.0,0.0,0.0,0.0,0.0,0.0,0.0,0.0,0.0,0.0,0.0,0.0,0.0,0.0,0.0,0.0,0.0,0.0,0.0,0.0,0.0,0.0,0.0,0.0,0.0,0.0,0.0,0.0,0.0,0.0,0.0,0.0,0.0,0.0,0.0,0.0,0.0,0.0,0.0,0.0,0.0,0.0,0.0,0.0,0.0,0.0,0.0,0.0,0.0,0.0,0.0,0.0,0.0,0.0,0.0,0.0,0.0,0.0,0.0,0.0,0.0,0.0,0.0,0.0,0.0,0.0,0.0,0.0,0.0,0.0,0.0,0.0,0.0,0.0,0.0,0.0,0.0,0.0,0.0,0.0,0.0,0.0,0.0,0.0,0.0,0.0,0.0,0.0,0.0,0.0,0.0,0.0,0.0,0.0,0.0,0.0,0.0,0.0,0.0,0.0,0.0,0.0,0.0,0.0,0.0,0.0,0.0,0.0,0.0,0.0,0.0,0.0,0.0,0.0,0.0,0.0,0.0,0.0,0.0,0.0,0.0,0.0,0.0,0.0,0.0,0.0,0.0,0.0,0.0,0.0,0.0,0.0,0.0,0.0,0.0,0.0,0.0,0.0,0.0,0.0,0.0,0.0,0.0,0.0,0.0,0.0,0.0,0.0,0.0,0.0,0.0,0.0,0.0,0.0,0.0,0.0,0.0,0.0,0.0,0.0,0.0,0.0,0.0,0.0,0.0,0.0,0.0,0.0,0.0,0.0,0.0,0.0,0.0,0.0,0.0,0.0,0.0,0.0,0.0,0.0,0.0,0.0,0.0,0.0,0.0,0.0,0.0,0.0,0.0,0.0,0.0,0.0,0.0,0.0,0.0,0.0,0.0,0.0,0.0,0.0,0.0,0.0,0.0,0.0,0.0,0.0,0.0,0.0,0.0,0.0,0.0,0.0,0.0,0.0,0.0,0.0,0.0,0.0,0.0,0.0,0.0,0.0,0.0,0.0,0.0,0.0,0.0,0.0,0.0,0.0,0.0,0.0,0.0,0.0,0.0,0.0,0.0,0.0,0.0,0.0,0.0,0.0,0.0,0.0,0.0,0.0,0.0,0.0,0.0,0.0,0.0,0.0,0.0,0.0,0.0,0.0,0.0,0.0,0.0,0.0,0.0,0.0,0.0,0.0,0.0,0.0,0.0,0.0,0.0,0.0,0.0,0.0,0.0,0.0,0.0,0.0,0.0,0.0,0.0,0.0,0.0,0.0,0.0,0.0,0.0,0.0,0.0,0.0,0.0,0.0,0.0,0.0,0.0,0.0,0.0,0.0,0.0,0.0,0.0,0.0,0.0,0.0,0.0,0.0,0.0,0.0,0.0,0.0,0.0,0.0,0.0,0.0,0.0,0.0,0.0,0.0,0.0,0.0,0.0,0.0,0.0,0.0,0.0,0.0,0.0,0.0,0.0,0.0,0.0,0.0,0.0,0.0,0.0,0.0,0.0,0.0,0.0,0.0,0.0,0.0,0.0,0.0,0.0,0.0,0.0,0.0,0.0,0.0,0.0,0.0,0.0,0.0,0.0,-1.0374,0.0,0.0,0.0,0.0,0.0,0.0,0.0,0.0,0.0,0.0,0.0,0.0,0.0,0.0,0.0,0.0,0.0,0.0,0.0,0.0,0.0,0.0,0.0,0.0,0.0,0.0,0.0,0.0,0.0,0.0,0.0,0.0,0.0,0.0,0.0,0.0,0.0,0.0,0.0,-1.092,-1.1549,-1.2406,-1.1286,-1.0689,-1.0507,0.0,0.0,0.0,0.0,0.0,0.0,0.0,0.0,0.0,0.0,0.0,0.0,0.0,0.0,0.0,0.0,0.0,0.0,0.0,0.0,0.0,0.0,0.0,0.0,0.0,0.0,0.0,0.0,0.0,0.0,0.0,0.0,0.0,0.0,0.0,0.0,0.0,0.0,0.0,0.0,0.0,0.0,0.0,0.0,0.0,0.0,0.0,0.0,0.0,0.0,0.0,0.0,0.0,0.0,0.0,0.0,0.0,0.0,0.0,0.0,0.0,0.0,0.0,0.0,0.0,0.0,0.0,0.0,0.0,0.0,0.0,-1.1492,0.0,0.0,0.0,0.0,0.0,0.0,0.0,0.0,0.0,0.0,0.0,0.0,0.0,0.0,0.0,0.0,0.0,0.0,0.0,0.0,0.0,0.0,0.0,0.0,-0.8539,-0.9583,-0.9824,-1.0087,0.0,0.0,0.0,0.0,0.0,0.0,0.0,-1.1435,-1.1651,-1.18,-1.2783,-1.3388,-1.3658,-1.3321,-1.3054,-1.2764,-1.0925,0.0,0.0,0.0,0.0,0.0,0.0,0.0,0.0,0.0,0.0,0.0,0.0,0.0,0.0,0.0,0.0,0.0,0.0,0.0,0.0,0.0,0.0,0.0,0.0,0.0,0.0,0.0,0.0,0.0,0.0,0.0,0.0,0.0,0.0,0.0,0.0,0.0,0.0,0.0,0.0,0.0,0.0,0.0,0.0,0.0,0.0,0.0,0.0,0.0,0.0,0.0,0.0,0.0,0.0,0.0,0.0,0.0,0.0,0.0,0.0,0.0,0.0,0.0,-1.4293,-1.4359,-1.4359,-1.4359,-1.4625,-1.515,-1.4658,-1.4405,-1.4261,-1.2759,0.0,0.0,0.0,0.0,0.0,0.0,0.0,0.0,0.0,0.0,0.0,0.0,0.0,0.0,0.0,0.0,0.0,0.0,0.0,0.0,0.0,-0.9813,-1.0191,-1.034,-1.0387,-1.0437,0.0,0.0,0.0,0.0,0.0,0.0,-1.1515,-1.1563,-1.192,-1.256,-1.4535,-1.5508,-1.5543,-1.5782,-1.5694,-1.5221,-1.2492,-1.1376,-1.1467,0.0,0.0,0.0,0.0,0.0,0.0,0.0,0.0,0.0,0.0,0.0,0.0,0.0,0.0,0.0,0.0,0.0,0.0,0.0,0.0,0.0,0.0,0.0,0.0,0.0,0.0,0.0,0.0,0.0,0.0,0.0,0.0,0.0,0.0,0.0,0.0,0.0,0.0,0.0,0.0,0.0,-1.3569,-1.4842,0.0,0.0,0.0,0.0,0.0,0.0,0.0,0.0,0.0,0.0,0.0,0.0,0.0,-1.5437,-1.5588,-1.5844,-1.5974,-1.5982,-1.6321,-1.6507,-1.6507,-1.6507,-1.6533,-1.6638,-1.6902,0.0,-1.4686,-1.4182,0.0,0.0,0.0,0.0,0.0,0.0,0.0,0.0,0.0,0.0,0.0,0.0,0.0,0.0,0.0,0.0,0.0,0.0,0.0,0.0,0.0,-1.0918,-1.1366,-1.1853,-1.248,-1.2655,-1.2222,-1.2197,0.0,0.0,0.0,-1.2214,-1.238,-1.3019,-1.3904,-1.5048,-1.6004,-1.6573,-1.6752,-1.6878,-1.6715,-1.6214,-1.4571,-1.3365,-1.2422,-1.067,0.0,0.0,0.0,0.0,0.0,0.0,0.0,0.0,0.0,0.0,0.0,0.0,0.0,0.0,0.0,0.0,0.0,0.0,0.0,0.0,0.0,0.0,0.0,0.0,0.0,0.0,0.0,0.0,0.0,0.0,0.0,0.0,0.0,0.0,0.0,0.0,0.0,0.0,0.0,-1.3397,-1.4106,-1.4946,-1.4452,-1.4027,0.0,0.0,0.0,0.0,0.0,0.0,0.0,0.0,0.0,-1.8067,-1.7769,-1.777,-1.8187,-1.8008,-1.8136,-1.8479,-1.8678,-1.8812,-1.8952,-1.8829,-1.8612,-1.8338,-1.8417,-1.8008,-1.7161,-1.5773,-1.4849,-1.4249,0.0,0.0,0.0,0.0,-1.3339,-1.3044,0.0,0.0,0.0,0.0,0.0,0.0,0.0,0.0,0.0,0.0,0.0,0.0,-1.167,-1.229,-1.2869,-1.3472,-1.4282,-1.4405,-1.3562,-1.3511,0.0,0.0,-1.2854,-1.3052,-1.3146,-1.4365,-1.5608,-1.688,-1.7077,-1.7347,-1.7688,-1.7688,-1.7442,-1.6981,-1.6503,-1.5391,-1.3829,-1.1846,-1.0972,-1.0755,0.0,0.0,0.0,0.0,0.0,0.0,0.0,0.0,0.0,0.0,0.0,0.0,0.0,0.0,0.0,0.0,0.0,0.0,0.0,0.0,0.0,0.0,0.0,0.0,0.0,0.0,0.0,0.0,0.0,0.0,0.0,0.0,0.0,0.0,0.0,0.0,0.0,-1.4724,-1.5136,-1.5402,-1.5592,-1.5436,0.0,0.0,0.0,0.0,0.0,0.0,-1.799,-1.8363,-1.9143,-2.0405,-1.9912,-1.9918,-2.0554,-1.978,-1.9727,-2.0389,-2.007,-2.0108,-2.0467,-2.0094,-1.9738,-1.9385,-1.9044,-1.8939,-1.8922,-1.7367,-1.6564,-1.623,-1.5725,-1.4974,-1.4314,-1.5179,-1.5126,-1.4819,0.0,0.0,0.0,0.0,0.0,0.0,0.0,0.0,0.0,0.0,0.0,-1.3121,-1.3184,-1.4365,-1.5065,-1.4897,-1.4959,-1.4557,-1.3562,-1.3511,-1.3339,-1.2992,-1.3,-1.3134,-1.3476,-1.4966,-1.6131,-1.688,-1.7598,-1.8136,-1.8562,-1.8562,-1.8304,-1.7837,-1.7795,-1.7309,-1.6312,-1.3433,-1.2809,-1.3511,-1.0215,0.0,0.0,0.0,0.0,0.0,0.0,0.0,0.0,0.0,0.0,0.0,0.0,0.0,0.0,0.0,0.0,0.0,0.0,0.0,0.0,0.0,0.0,0.0,0.0,0.0,0.0,0.0,0.0,0.0,0.0,0.0,0.0,0.0,0.0,0.0,0.0,0.0,0.0,-1.7375,-1.8092,0.0,0.0,0.0,0.0,-1.7463,-1.7535,-1.8187,-1.9526,-1.9247,-1.9876,-2.1634,-2.1325,-2.1294,-2.169,-2.0488,-2.022,-2.0938,-1.9749,-1.9545,-2.0196,-1.9466,-1.9149,-1.9091,-1.8357,-1.8288,-1.8631,-1.8913,-1.8388,-1.7406,-1.7388,-1.6536,-1.5486,-1.6861,-1.7194,-1.7209,0.0,0.0,0.0,0.0,0.0,0.0,0.0,0.0,-1.1345,-1.1592,-1.267,-1.3425,-1.3425,-1.521,-1.6376,-1.6271,-1.697,-1.704,-1.6184,-1.5623,-1.4996,-1.4313,-1.38,-1.3977,-1.4958,-1.6225,-1.7244,-1.7989,-1.8263,-1.8459,-1.8579,-1.834,-1.8106,-1.7992,-1.8228,-1.8179,-1.7772,-1.5491,-1.4129,-1.3426,-1.1903,-1.0355,0.0,0.0,0.0,0.0,0.0,0.0,0.0,0.0,0.0,0.0,0.0,0.0,0.0,0.0,0.0,0.0,0.0,0.0,0.0,0.0,0.0,0.0,0.0,0.0,0.0,0.0,0.0,0.0,0.0,0.0,0.0,0.0,0.0,0.0,0.0,0.0,0.0,-1.7621,-1.8282,0.0,-1.778,-1.8235,-1.8528,-1.8395,-1.9831,-2.1056,-2.1719,-2.2829,-2.3722,-2.4212,-2.3761,-2.3374,-2.3032,-2.195,-2.2065,-2.3437,-2.2677,-2.2744,-2.3433,-2.2225,-2.1319,-2.0708,-1.9842,-1.9817,-2.0429,-2.0571,-1.9835,-1.8633,-1.9002,-1.8626,-1.7958,-1.8854,-1.8882,-1.8622,0.0,0.0,0.0,0.0,0.0,0.0,0.0,0.0,-1.1601,-1.2287,-1.3425,-1.4342,-1.4746,-1.6551,-1.7746,-1.7671,-1.8356,-1.8326,-1.7248,-1.6608,-1.5866,-1.4924,-1.467,-1.5174,-1.6454,-1.7128,-1.7874,-1.8588,-1.8459,-1.8468,-1.8579,-1.834,-1.8179,-1.8188,-1.8477,-1.8519,-1.8309,-1.7169,-1.6052,-1.4942,-1.388,-1.2396,-1.0756,0.0,0.0,0.0,0.0,0.0,0.0,0.0,0.0,0.0,0.0,0.0,0.0,0.0,0.0,0.0,0.0,0.0,0.0,0.0,0.0,0.0,0.0,0.0,0.0,0.0,0.0,0.0,0.0,0.0,0.0,0.0,0.0,0.0,0.0,0.0,-1.8838,-1.8165,-1.9066,-1.9534,-1.8867,-1.9653,-2.0191,-2.0174,-2.2026,-2.3271,-2.3414,-2.459,-2.5227,-2.5245,-2.441,-2.3788,-2.342,-2.3055,-2.356,-2.4945,-2.4854,-2.5231,-2.5948,-2.4376,-2.3329,-2.2668,-2.1365,-2.0982,-2.1382,-2.1509,-2.074,-1.9678,-2.0528,-2.0485,-1.9983,-2.0399,-2.0148,-1.9704,0.0,0.0,0.0,0.0,0.0,0.0,0.0,-1.1658,-1.2327,-1.3557,-1.4753,-1.5981,-1.7179,-1.8501,-1.9222,-1.9042,-1.9002,-1.8258,-1.6484,-1.6333,-1.5845,-1.4715,-1.563,-1.6682,-1.7778,-1.7627,-1.7917,-1.8605,-1.8245,-1.8222,-1.8622,-1.8614,-1.8605,-1.8605,-1.8605,-1.8408,-1.8059,-1.8451,-1.8566,-1.8321,-1.6064,-1.497,-1.44,0.0,0.0,0.0,0.0,0.0,0.0,0.0,0.0,0.0,0.0,0.0,0.0,0.0,0.0,0.0,0.0,0.0,0.0,0.0,0.0,0.0,0.0,0.0,0.0,0.0,0.0,0.0,0.0,0.0,0.0,0.0,0.0,0.0,-1.8374,-1.9115,-1.9607,-1.9137,-2.0643,-2.1568,-2.12,-2.1869,-2.2455,-2.2895,-2.3905,-2.4496,-2.4526,-2.4244,-2.426,-2.4628,-2.3295,-2.2751,-2.3109,-2.3879,-2.4601,-2.5336,-2.6031,-2.6728,-2.7403,-2.5638,-2.4854,-2.4733,-2.2704,-2.1682,-2.1461,-2.1789,-2.1311,-2.059,-2.1882,-2.1961,-2.1401,-2.1401,-2.0961,-2.0503,0.0,0.0,0.0,0.0,0.0,0.0,0.0,-1.1978,-1.249,-1.3698,-1.4906,-1.6081,-1.7322,-1.8577,-1.9262,-1.9222,-1.9222,-1.8763,-1.7669,-1.7315,-1.6845,-1.6152,-1.7107,-1.7664,-1.7796,-1.8565,-1.8961,-1.9059,-1.8913,-1.9059,-1.9375,-1.9144,-1.9059,-1.9059,-1.9059,-1.8956,-1.887,-1.9007,-1.9033,-1.8887,-1.7439,-1.6207,-1.5148,0.0,0.0,0.0,0.0,0.0,0.0,0.0,0.0,0.0,0.0,0.0,0.0,0.0,0.0,0.0,0.0,0.0,0.0,0.0,0.0,0.0,0.0,0.0,0.0,0.0,0.0,0.0,0.0,0.0,0.0,0.0,0.0,-1.9607,-1.9349,-2.0625,-2.1542,-2.1423,-2.2071,-2.2529,-2.241,-2.2327,-2.2574,-2.3279,-2.3974,-2.4621,-2.5207,-2.6872,-2.7851,-2.7978,-2.7989,-2.8072,-2.8208,-2.7713,-2.7741,-2.8329,-2.8119,-2.8185,-2.8355,-2.7006,-2.6225,-2.5813,-2.4786,-2.4544,-2.4897,-2.4264,-2.4134,-2.4201,-2.2382,-2.157,-2.1401,-2.1401,-2.157,-2.1854,0.0,0.0,0.0,0.0,0.0,0.0,0.0,-1.2101,-1.2716,-1.4444,-1.5249,-1.634,-1.8064,-1.888,-1.9301,-1.9301,-1.8999,-1.8467,-1.766,-1.7229,-1.7166,-1.7533,-1.8161,-1.8624,-1.8793,-1.9331,-1.9555,-1.947,-1.9384,-1.9411,-1.9618,-1.9316,-1.9213,-1.9213,-1.9213,-1.9127,-1.8981,-1.9144,-1.9076,-1.8897,-1.8433,-1.7588,-1.6601,-1.6171,-1.5369,-1.4367,-1.3634,-1.2941,-1.222,-1.132,0.0,0.0,0.0,0.0,0.0,0.0,0.0,0.0,0.0,0.0,0.0,0.0,0.0,0.0,0.0,0.0,0.0,0.0,0.0,0.0,0.0,0.0,0.0,0.0,-1.9933,-2.0805,-2.0805,-2.1651,-2.2456,-2.2748,-2.3004,-2.3288,-2.3636,-2.3501,-2.362,-2.4262,-2.4983,-2.5586,-2.6043,-2.7467,-2.8299,-2.8299,-2.8222,-2.8416,-2.8854,-2.8705,-2.9024,-2.9788,-2.9932,-3.0036,-2.9999,-2.8645,-2.7921,-2.7597,-2.6557,-2.59,-2.5589,-2.5344,-2.5105,0.0,0.0,0.0,0.0,0.0,-2.1837,-2.2809,0.0,0.0,0.0,0.0,0.0,0.0,0.0,-1.2101,-1.2974,-1.5368,-1.5689,-1.6615,-1.9036,-1.9301,-1.9301,-1.9301,-1.8577,-1.7798,-1.7027,-1.6688,-1.722,-1.8779,-1.8994,-1.9485,-2.0247,-2.0007,-1.988,-1.9881,-1.9693,-1.9625,-1.9669,-1.9462,-1.9385,-1.9385,-1.9299,-1.9042,-1.8733,-1.9042,-1.899,-1.8622,-1.9059,-1.8837,-1.8249,-1.7771,-1.7257,-1.6595,-1.5345,-1.442,-1.3663,-1.3183,0.0,0.0,0.0,0.0,0.0,0.0,0.0,0.0,0.0,0.0,0.0,0.0,0.0,0.0,0.0,0.0,0.0,0.0,0.0,0.0,0.0,0.0,0.0,0.0,-2.1242,-2.2382,-2.252,-2.2529,-2.2795,-2.3471,-2.3645,-2.4042,-2.4776,-2.4849,-2.5014,-2.546,-2.6271,-2.6846,-2.6843,0.0,0.0,0.0,0.0,-2.6347,-2.7326,-2.8258,-2.92,-3.0095,-3.1043,-3.1465,-3.1349,-3.0017,-2.9367,-2.9298,-2.7904,-2.6458,-2.5109,-2.5734,-2.5164,-2.3849,-2.3903,-2.3493,-2.2737,-2.1518,-2.2115,-2.3406,0.0,0.0,0.0,0.0,0.0,0.0,0.0,-1.2101,-1.2974,-1.5368,-1.5689,-1.6615,-1.9036,-1.9301,-1.9301,-1.9301,-1.8577,-1.7917,-1.7413,-1.7623,-1.831,-1.96,-1.9688,-2.0025,-2.0687,-2.0312,-2.0184,-2.0376,-2.0332,-2.043,-2.0731,-2.0517,-2.0427,-2.0374,-1.9858,-1.9546,-1.946,-1.9273,-1.899,-1.8622,-1.9059,-1.9127,-1.9031,-1.9191,-1.8663,-1.7911,-1.793,-1.7325,-1.644,-1.5903,-1.5212,-1.451,-1.4112,0.0,0.0,0.0,0.0,0.0,0.0,0.0,0.0,0.0,0.0,0.0,0.0,0.0,0.0,0.0,0.0,0.0,0.0,0.0,0.0,-2.0576,-2.1853,-2.3014,-2.3712,-2.3843,-2.3908,-2.4064,-2.462,-2.5078,-2.5295,-2.5262,-2.547,-2.5865,-2.6051,-2.6296,-2.6639,-2.7467,-2.7978,-2.7978,-2.8673,-2.9143,-2.9341,-2.9549,-2.958,-2.9408,0.0,0.0,-2.9052,-2.876,-2.8619,-2.8619,-2.8278,-2.7793,-2.7189,-2.7334,-2.6376,-2.4853,-2.5113,-2.4686,-2.3884,-2.3627,-2.3516,-2.3406,0.0,0.0,0.0,0.0,0.0,0.0,0.0,-1.2101,-1.2753,-1.4543,-1.4781,-1.5478,-1.7293,-1.7495,-1.7578,-1.7789,-1.7633,-1.7422,-1.7211,-1.7743,-1.8713,-2.0122,-1.9793,-1.9998,-2.0925,-2.0562,-2.051,-2.0822,-2.0907,-2.106,-2.1195,-2.0961,-2.0871,-2.0817,-2.0409,-2.0093,-1.9859,-1.9582,-1.9119,-1.8605,-1.8802,-1.8768,-1.8691,-1.9409,-1.9381,-1.9014,-1.9414,-1.8888,-1.8034,-1.7757,-1.7085,-1.6352,-1.608,-1.5703,-1.5148,0.0,0.0,0.0,0.0,0.0,0.0,0.0,0.0,0.0,0.0,0.0,0.0,0.0,0.0,-1.8305,0.0,0.0,-2.095,-2.178,-2.2849,-2.3694,-2.4146,-2.4725,-2.5111,-2.5111,-2.547,-2.58,-2.5958,-2.5977,-2.6059,-2.6315,-2.627,-2.6371,-2.6582,-2.7098,-2.7413,-2.7413,-2.7941,-2.8509,-2.9019,-2.9608,-3.0068,-3.0391,-3.0391,-3.0274,-2.999,-2.9706,-2.93,-2.8836,-2.9097,-2.852,-2.7312,-2.7141,-2.6572,-2.5857,-2.6527,-2.5941,-2.4671,-2.4571,-2.4624,-2.4566,0.0,0.0,0.0,0.0,0.0,0.0,0.0,-1.2101,-1.2533,-1.3755,-1.3911,-1.437,-1.556,-1.5689,-1.579,-1.6056,-1.6734,-1.7073,-1.6917,-1.7816,-1.896,-2.0457,-1.9815,-1.9952,-2.108,-2.0796,-2.0787,-2.1108,-2.1362,-2.1482,-2.1437,-2.1195,-2.1096,-2.1051,-2.0826,-2.0533,-2.0192,-1.9858,-1.9341,-1.8691,-1.8614,-1.8408,-1.8213,-1.9213,-1.9589,-1.964,-2.0129,-1.9774,-1.9072,-1.9072,-1.8557,-1.7902,-1.7902,-1.7567,-1.6989,-1.5687,-1.5613,0.0,0.0,0.0,0.0,0.0,0.0,0.0,0.0,0.0,-1.7304,-1.8291,-1.8906,-1.957,-2.0625,-2.1222,-2.1861,-2.2858,-2.3749,-2.4349,-2.4431,-2.535,-2.6039,-2.6122,-2.6131,-2.6215,-2.6554,-2.6591,-2.6591,-2.6591,-2.6591,-2.6591,-2.6591,-2.6591,-2.6691,-2.6899,-2.6691,-2.7107,-2.8169,-2.8923,-2.9713,-3.0639,-3.0639,-3.0639,-3.0628,-3.04,-2.9823,-2.9034,-2.9429,-2.863,-2.698,-2.6483,-2.636,-2.6577,-2.7489,-2.6915,-2.5554,-2.5361,-2.5744,-2.6051,0.0,0.0,0.0,0.0,0.0,0.0,0.0,0.0,-1.2533,-1.3755,-1.3911,-1.437,-1.556,-1.5689,-1.556,-1.5267,-1.6927,-1.7642,-1.6954,-1.833,-1.9577,-2.0484,-2.0058,-2.0214,-2.1089,-2.1062,-2.1062,-2.1108,-2.1485,-2.1651,-2.1651,-2.1428,-2.1347,-2.1347,-2.088,-2.0673,-2.0612,-1.997,-1.9495,-1.9119,-1.8725,-1.8562,-1.8579,-1.905,-1.9282,-1.9333,-2.0035,-2.0246,-2.0147,-2.0147,-2.0056,-1.9957,-1.9957,-1.9946,-1.944,-1.7327,0.0,-1.637,-1.4435,-1.4995,-1.643,-1.7792,-1.7791,-1.8094,0.0,0.0,-1.9811,-2.145,-2.1842,-2.2034,-2.2547,-2.2959,-2.327,-2.3407,-2.417,-2.4882,-2.524,-2.5708,-2.6149,-2.6472,-2.6518,-2.6536,-2.6582,-2.6591,-2.6591,-2.6591,-2.6591,-2.6591,-2.6591,-2.6591,-2.7053,-2.7965,-2.7107,-2.7107,-2.8169,-2.7359,-2.7008,-2.7161,-2.7161,-2.7161,-2.7215,-2.8087,-2.841,-2.8284,-2.8018,-2.7737,-2.7376,-2.661,-2.6289,-2.6409,-2.702,-2.7175,-2.6946,-2.681,-2.6971,-2.7129,0.0,0.0,0.0,0.0,0.0,0.0,0.0,0.0,0.0,-1.2685,-1.2802,-1.3047,-1.3562,-1.3819,-1.3994,-1.4047,-1.5909,-1.7027,-1.6908,-1.8412,-1.9567,-2.0113,-1.9976,-2.0301,-2.1089,-2.0879,-2.0879,-2.1108,-2.101,-2.0982,-2.0991,-2.1142,-2.108,-2.0871,-2.0791,-2.0642,-2.0376,-1.9956,-1.9273,-1.849,-1.9065,-1.8877,-1.8364,-1.9359,-1.9722,-1.9705,-1.9393,-1.9299,0.0,0.0,-1.9299,-1.9462,-2.0257,-2.0171,-1.9497,-1.8031,-1.7661,0.0,-1.7515,0.0,0.0,0.0,-1.947,-1.9889,-2.0808,-2.0921,-2.1213,-2.241,-2.2648,-2.2767,-2.3178,-2.338,-2.3572,0.0,-2.439,-2.4922,-2.5317,-2.5764,-2.6168,-2.6536,-2.6591,-2.6591,-2.6591,-2.6591,-2.6591,-2.6591,-2.6591,-2.6591,-2.6591,-2.6591,-2.6791,-2.7251,-2.6845,-2.6791,-2.7251,-2.7457,-2.7511,-2.7511,-2.7511,-2.7511,-2.7565,-2.8019,-2.8223,-2.8169,-2.7384,-2.6865,-2.6601,-2.6253,-2.6177,-2.6348,-2.6605,-2.6899,-2.7169,-2.6841,-2.6966,-2.7123,0.0,0.0,0.0,0.0,0.0,0.0,0.0,0.0,0.0,0.0,-1.1803,-1.1852,-1.1877,-1.2246,-1.266,-1.3094,-1.4641,-1.5909,-1.6663,-1.8036,-1.9136,-1.9857,-1.9893,-2.0204,-2.0934,-2.0769,-2.0824,-2.1108,-2.0943,-2.0753,-2.0686,-2.097,-2.0897,-2.0488,-2.0576,-2.0463,-2.0192,-1.978,-1.9116,-1.8414,-1.9319,-1.9227,-1.871,-1.9791,-2.0053,-1.9704,-1.8877,-1.8588,-1.8578,-1.8318,-1.8207,-1.8419,-1.9573,-1.9529,-1.8833,-1.8002,-1.769,-1.7833,-1.8905,0.0,0.0,-2.0012,-2.09,-2.1504,-2.1211,-2.1604,-2.2227,-2.2922,-2.3068,-2.3187,-2.3639,-2.3712,-2.3804,-2.4156,-2.456,-2.4922,-2.5317,-2.5764,-2.6168,-2.6536,-2.6591,-2.6591,-2.6591,-2.6591,-2.6591,-2.6591,-2.6591,-2.6591,-2.6591,-2.6692,-2.6911,-2.723,-2.6911,-2.6911,-2.723,-2.7568,-2.7761,-2.7761,-2.7761,-2.7761,-2.777,-2.8072,-2.8223,-2.8169,-2.7349,-2.6723,-2.6177,-2.6058,-2.6154,-2.6434,-2.6027,-2.6438,-2.7094,-2.6205,-2.6625,-2.7466,0.0,0.0,0.0,0.0,0.0,0.0,0.0,0.0,0.0,0.0,0.0,0.0,0.0,-1.1679,-1.214,-1.2681,-1.3382,-1.4511,-1.6224,-1.7101,-1.8265,-1.982,-1.9893,-2.0076,-2.053,-2.0897,-2.1099,-2.1108,-2.1458,-2.1449,-2.1089,-2.1099,-2.0897,-2.0479,-2.0286,-2.021,-2.0174,-1.952,-1.9314,-1.9451,-1.9344,-1.9611,-2.0061,-2.0395,-1.9892,-1.8981,-1.8688,-1.8588,-1.8466,-1.754,-1.7252,-1.7322,-1.7916,-1.8069,0.0,-1.7147,-1.6422,-1.6091,-1.7117,0.0,-1.9815,-2.0827,-2.1952,-2.2849,-2.284,-2.2858,-2.2986,-2.3398,-2.348,-2.3599,-2.411,-2.4183,-2.4183,-2.4202,-2.456,-2.4922,-2.5317,-2.5764,-2.6168,-2.6536,-2.6591,-2.6591,0.0,-2.6591,-2.6591,-2.6591,-2.6591,-2.6591,-2.6591,-2.6949,-2.7641,-2.8713,-2.7696,-2.7696,-2.8713,-2.7358,-2.6646,-2.6646,-2.6646,-2.6646,-2.6691,-2.7716,-2.8223,-2.8223,-2.8169,-2.7555,-2.6536,-2.6177,-2.6375,-2.6742,-2.5372,-2.5827,-2.6952,-2.5011,-2.6147,-2.8656,0.0,0.0,0.0,0.0,0.0,0.0,0.0,0.0,0.0,0.0,0.0,0.0,0.0,0.0,0.0,0.0,-1.2264,-1.3091,-1.3987,-1.535,-1.6624,-1.7719,-1.8031,-1.891,-2.047,-2.0079,-2.0232,-2.1108,-2.0989,-2.0817,-2.0723,-2.0989,-2.0897,-2.053,-2.0711,-2.0298,-1.9452,-1.9228,-1.8333,-1.7224,-1.8188,-1.8638,-1.8705,-1.8844,-1.9021,-1.8991,0.0,-1.6545,-1.652,-1.6289,-1.6395,-1.6801,-1.7899,-1.8091,-1.7725,-1.6938,-1.7189,-1.7887,-1.8617,0.0,-2.1187,-2.2089,-2.2794,-2.3297,-2.3297,-2.3556,-2.3785,-2.3923,-2.373,-2.3535,-2.3721,-2.3749,-2.3749,-2.3749,-2.4097,-2.456,-2.4973,-2.5378,-2.5773,-2.6177,-2.6417,0.0,0.0,0.0,0.0,-2.6591,-2.6591,-2.6701,-2.6967,-2.7105,-2.7512,-2.8108,-2.7789,-2.7789,-2.8118,-2.7391,-2.6976,-2.6976,-2.671,-2.6591,-2.6591,-2.6944,-2.7152,-2.7152,-2.7152,-2.6944,-2.6582,-2.6435,-2.6338,-2.6218,-2.5472,-2.5372,-2.55,-2.4542,-2.5255,-2.659,0.0,0.0,0.0,0.0,0.0,0.0,0.0,0.0,0.0,0.0,0.0,0.0,0.0,0.0,0.0,0.0,0.0,-1.16,-1.2508,-1.3615,-1.4708,-1.5746,-1.6188,-1.7174,-1.8677,-1.8333,-1.8647,-1.9604,-1.9547,-1.9637,-1.9847,-2.0382,-2.0381,-2.0014,-2.0264,-1.9894,-1.9067,-1.8715,-1.7897,-1.6931,-1.7313,-1.7493,-1.7547,-1.7543,-1.7683,0.0,-1.6227,-1.5442,-1.5106,-1.5239,-1.5517,-1.6001,-1.728,-1.7569,-1.7461,-1.7388,-1.7989,-1.8942,-2.0061,-2.1105,-2.2099,-2.2913,-2.3416,-2.3758,-2.3758,-2.396,-2.4202,-2.4202,-2.3831,-2.3499,-2.3499,-2.3499,-2.3444,-2.3306,-2.3675,-2.4079,-2.4551,-2.4904,-2.5414,-2.5947,-2.6388,-2.6591,0.0,0.0,0.0,-2.6591,-2.6591,-2.6701,-2.6949,-2.7233,-2.7499,-2.7813,-2.7911,-2.7994,-2.7994,-2.7647,-2.7315,-2.7169,-2.6774,-2.6591,-2.6591,-2.6591,-2.6591,-2.6591,-2.6591,-2.6591,-2.6591,-2.6591,-2.655,-2.6443,-2.5675,-2.5372,-2.5258,-2.4498,-2.4587,-2.5118,0.0,0.0,0.0,0.0,0.0,0.0,0.0,0.0,0.0,0.0,0.0,0.0,0.0,0.0,0.0,0.0,0.0,0.0,-1.1721,-1.1977,-1.2615,-1.3893,-1.4452,-1.4944,-1.546,-1.5925,-1.6403,-1.6874,-1.7461,-1.807,-1.8612,-1.9256,-1.9359,-1.8982,-1.8982,-1.8939,-1.8854,-1.7889,-1.787,-1.8298,-1.6737,-1.6272,-1.6548,-1.6441,-1.5922,-1.5346,-1.5827,-1.5264,-1.433,-1.4546,-1.4814,-1.5237,-1.6172,-1.6771,-1.7312,-1.8467,-1.8852,-1.932,-2.1202,-2.2044,-2.2556,-2.3334,-2.3868,-2.4202,-2.4202,-2.4202,-2.4192,-2.4174,-2.3794,-2.3453,0.0,0.0,-2.3343,-2.2968,-2.3251,-2.3712,-2.4146,-2.4537,-2.5087,0.0,0.0,0.0,0.0,0.0,0.0,-2.6591,0.0,-2.66,-2.6619,-2.7325,-2.7813,-2.7849,-2.8168,-2.837,-2.8397,-2.7957,-2.7592,-2.7141,-2.6765,-2.6591,-2.6591,-2.6591,-2.6591,-2.6591,-2.6591,-2.6591,-2.6591,-2.6591,-2.6927,-2.7294,-2.5945,-2.5731,-2.61,-2.4697,-2.4202,-2.435,0.0,0.0,0.0,0.0,0.0,0.0,0.0,0.0,0.0,0.0,0.0,0.0,0.0,0.0,0.0,0.0,0.0,0.0,-0.9289,-0.9959,-1.0826,-1.1905,-1.2083,-1.3025,-1.4848,-1.4788,-1.5248,-1.6307,-1.6848,-1.7207,-1.7376,-1.7524,-1.7548,-1.7458,-1.7458,-1.7044,-1.6329,-1.6059,-1.5562,-1.4895,-1.4639,-1.4676,-1.4844,-1.4786,-1.4781,-1.4768,-1.4765,-1.4559,-1.436,0.0,0.0,0.0,0.0,-1.9283,-1.9659,-1.9971,-2.0695,-2.1476,-2.1989,-2.2914,-2.3739,-2.399,-2.4128,-2.4202,-2.4202,-2.4202,-2.411,-2.3758,-2.3334,-2.2959,0.0,0.0,0.0,-2.2922,-2.3538,0.0,-2.4183,-2.4817,0.0,-2.5552,0.0,-2.6591,-2.6591,-2.6591,0.0,0.0,-2.6591,-2.6719,-2.7013,-2.7215,-2.7609,-2.8214,-2.8031,-2.8077,-2.8388,-2.7682,-2.7132,-2.6738,-2.6637,-2.6591,-2.6591,-2.6591,-2.6591,-2.6591,-2.6591,-2.6591,-2.6591,-2.6591,-2.6681,-2.673,-2.5752,-2.5506,-2.5526,-2.4559,-2.4202,-2.4251,0.0,0.0,0.0,0.0,0.0,0.0,0.0,0.0,0.0,0.0,0.0,0.0,0.0,0.0,0.0,0.0,0.0,0.0,0.0,-0.8835,-0.9383,-0.9946,-1.021,-1.0958,-1.2335,-1.2427,-1.2799,-1.3498,-1.4177,-1.467,-1.5017,-1.5377,-1.5542,-1.5542,-1.5542,-1.5223,-1.4661,-1.4222,-1.381,0.0,0.0,-1.2849,-1.2965,-1.2929,-1.318,-1.3539,-1.3765,-1.4609,0.0,0.0,0.0,-1.9024,-1.9875,-2.0296,-2.058,-2.111,0.0,-2.2447,-2.2978,-2.3678,-2.4202,-2.4202,-2.4202,-2.4156,-2.3923,-2.3886,-2.3822,-2.3544,-2.3178,0.0,0.0,0.0,0.0,0.0,0.0,0.0,-2.3886,-2.4592,-2.5179,0.0,-2.6087,0.0,-2.6591,-2.6591,-2.6591,0.0,-2.6591,-2.6683,-2.6912,-2.7077,-2.7389,-2.7847,-2.7858,-2.7941,-2.8113,-2.749,-2.7068,-2.6848,-2.6664,-2.6591,-2.6591,-2.6591,-2.6591,-2.6591,0.0,-2.6591,-2.6591,-2.6591,-2.6591,-2.6509,-2.5683,-2.5424,-2.5323,-2.4505,-2.4202,-2.4202,0.0,0.0,0.0,0.0,0.0,0.0,0.0,0.0,0.0,0.0,0.0,0.0,0.0,0.0,0.0,0.0,0.0,0.0,0.0,0.0,-0.8342,-0.8368,-0.8817,-0.9133,-0.9256,-0.9788,-1.009,-1.009,-1.0871,-1.1609,-1.2304,-1.2991,-1.3307,-1.3307,-1.3307,-1.3334,-1.3264,-1.2396,-1.2381,-1.2789,-1.1636,-1.1216,-1.131,0.0,0.0,-1.2242,-1.3195,-1.5081,0.0,0.0,-1.9445,-2.0287,-2.0735,-2.0952,-2.1209,-2.2263,-2.2566,-2.2795,-2.3908,-2.4202,-2.4202,-2.4202,-2.4202,-2.4101,-2.359,-2.3499,-2.348,-2.3425,0.0,-2.3014,-2.3352,-2.3453,-2.338,-2.3041,0.0,-2.3572,-2.3572,-2.4335,-2.4986,-2.5378,-2.6087,-2.6591,-2.6591,-2.6591,-2.6591,-2.6591,-2.6591,-2.6591,-2.6591,-2.6912,-2.7095,-2.7095,-2.7537,-2.7664,-2.7666,-2.727,-2.7095,-2.7095,-2.6756,-2.6591,-2.6591,-2.6591,-2.6591,-2.6591,-2.6591,-2.6591,-2.6591,-2.6591,-2.6591,-2.6518,-2.5748,-2.547,-2.5332,-2.4569,-2.4248,-2.4202,0.0,0.0,0.0,0.0,0.0,0.0,0.0,0.0,0.0,0.0,-0.6902,-0.7218,0.0,0.0,0.0,0.0,0.0,0.0,0.0,0.0,0.0,-0.8221,-0.8328,-0.8427,-0.858,-0.9099,-0.9439,-0.9536,-1.0117,-1.0489,-1.0629,-1.0763,-1.077,-1.0659,-1.077,-1.0817,-1.0817,-1.0762,-1.0961,-1.1269,-1.1048,-1.0837,-1.0805,-1.2106,0.0,0.0,-1.4135,0.0,-1.6509,-1.8904,-2.0653,-2.1989,-2.2739,-2.3253,-2.3614,-2.3825,-2.388,-2.3935,-2.4146,-2.4202,-2.4202,-2.4202,-2.4202,-2.4101,-2.359,-2.3499,0.0,0.0,-2.2959,-2.2931,-2.2995,-2.3279,-2.3471,-2.3407,0.0,0.0,0.0,0.0,-2.5298,0.0,0.0,0.0,0.0,0.0,0.0,0.0,-2.6591,-2.6591,-2.6591,-2.6655,-2.6692,-2.6692,-2.7077,-2.7123,-2.6793,-2.6719,-2.6692,-2.6692,-2.6619,-2.6591,-2.6591,-2.6591,-2.6591,-2.6591,-2.6591,0.0,-2.6591,-2.6591,-2.6591,-2.6536,-2.6104,-2.5708,-2.5359,-2.4849,-2.4505,-2.4202,0.0,0.0,0.0,0.0,0.0,0.0,0.0,-0.6255,-0.6276,-0.6196,-0.678,-0.72,-0.72,-0.7609,-0.7901,0.0,0.0,0.0,0.0,0.0,0.0,0.0,0.0,0.0,-0.8295,-0.856,-0.8712,-0.8765,0.0,-0.9482,-0.9482,-0.9678,-0.9756,-0.968,-0.9763,-0.979,-0.9783,-0.9865,-1.0034,-1.029,-1.0589,-1.0595,0.0,0.0,0.0,0.0,0.0,0.0,-1.5998,-1.8195,-2.0171,-2.1983,-2.3384,-2.3996,-2.4202,-2.4202,-2.4202,-2.4202,-2.4202,-2.4202,-2.4202,-2.4202,-2.4202,-2.4045,-2.3325,0.0,0.0,0.0,-2.3068,-2.3279,-2.3538,-2.373,0.0,0.0,0.0,0.0,0.0,0.0,0.0,0.0,0.0,0.0,0.0,0.0,0.0,0.0,-2.6791,-2.6736,-2.6591,-2.6591,-2.6591,-2.6591,-2.6774,-2.6784,-2.6591,-2.6591,-2.6591,-2.6591,-2.6591,-2.6591,-2.6591,-2.6591,-2.6591,-2.6591,-2.6591,0.0,-2.6591,-2.6591,-2.6591,-2.6545,-2.6177,-2.5773,-2.5378,-2.4931,-2.4569,-2.4202,0.0,0.0,0.0,0.0,0.0,0.0,0.0,-0.6239,-0.6277,-0.6157,-0.6754,-0.7188,-0.7188,-0.762,-0.7901,0.0,0.0,0.0,0.0,0.0,0.0,0.0,0.0,0.0,0.0,0.0,0.0,-0.8363,-0.8685,0.0,0.0,0.0,0.0,0.0,-0.9395,-0.9424,-0.9424,-0.9447,-0.9603,0.0,0.0,-1.0465,0.0,0.0,0.0,0.0,0.0,0.0,0.0,0.0,-1.9231,-2.1102,-2.2964,-2.3733,-2.3895,-2.3895,-2.3944,-2.4021,-2.4156,-2.4251,-2.4242,-2.4202,-2.4202,-2.3969,-2.3197,-2.327,0.0,0.0,-2.3279,-2.3618,-2.4128,-2.4202,-2.4202,0.0,-2.4202,0.0,0.0,0.0,0.0,0.0,0.0,0.0,0.0,0.0,0.0,0.0,0.0,-2.6944,-2.6646,-2.6591,-2.6591,-2.6591,-2.6591,-2.6591,-2.6591,-2.6591,-2.6591,-2.6591,-2.6591,-2.6591,-2.6591,-2.6591,-2.6591,-2.6591,-2.6591,0.0,0.0,-2.6591,-2.6591,-2.6554,-2.6278,-2.5846,-2.5387,-2.5074,-2.4643,-2.4202,0.0,0.0,0.0,0.0,0.0,0.0,0.0,-0.6633,-0.6657,-0.6639,-0.6908,-0.7115,-0.7115,-0.757,-0.7901,0.0,0.0,0.0,0.0,0.0,0.0,0.0,0.0,0.0,0.0,0.0,0.0,-0.8928,-0.8953,0.0,0.0,0.0,0.0,0.0,0.0,-0.9489,-0.9489,-0.9628,0.0,0.0,0.0,0.0,0.0,0.0,0.0,0.0,0.0,0.0,0.0,0.0,0.0,-1.9706,-2.0955,-2.2162,-2.3014,-2.3014,0.0,0.0,-2.4049,-2.4341,-2.444,-2.4251,-2.4202,-2.4082,-2.3544,0.0,0.0,-2.3444,-2.3471,-2.3618,-2.4128,-2.4202,-2.4202,-2.4202,0.0,-2.4349,0.0,0.0,0.0,0.0,0.0,0.0,0.0,0.0,0.0,0.0,-2.7377,-2.7171,-2.6646,-2.6591,-2.6591,-2.6591,-2.6591,-2.6591,-2.6591,-2.6591,-2.6591,-2.6591,-2.6591,-2.6591,-2.6591,-2.6591,-2.6591,-2.6591,-2.6591,0.0,0.0,-2.6591,-2.6591,-2.6582,-2.6545,-2.6059,-2.5414,-2.5378,-2.4872,-2.4202,0.0,0.0,0.0,0.0,0.0,0.0,-0.653,-0.6598,-0.6616,-0.653,-0.6865,-0.7098,-0.7042,-0.7419,-0.7681,-0.7783,0.0,0.0,0.0,0.0,0.0,0.0,0.0,0.0,0.0,0.0,-0.8474,-0.8821,-0.8986,0.0,0.0,0.0,0.0,0.0,0.0,-0.9815,-0.9815,0.0,0.0,0.0,0.0,0.0,0.0,0.0,0.0,0.0,0.0,0.0,0.0,0.0,0.0,0.0,-1.8222,-1.9639,0.0,0.0,-2.3205,-2.3476,-2.4168,-2.444,-2.448,-2.439,-2.4067,-2.3788,-2.3729,0.0,-2.3499,-2.3499,-2.3739,-2.396,-2.4174,-2.4202,-2.4202,-2.4202,-2.4202,0.0,0.0,0.0,0.0,0.0,0.0,0.0,0.0,0.0,0.0,0.0,-2.7377,-2.7323,-2.7116,-2.6954,-2.6791,-2.6591,-2.6591,-2.6591,-2.6591,-2.6591,-2.6591,-2.6591,-2.6591,-2.6591,-2.6591,-2.6591,-2.6591,-2.6591,-2.6591,0.0,0.0,-2.6591,-2.6591,-2.6591,-2.6591,-2.6087,-2.5424,-2.5424,-2.49,-2.4202,0.0,0.0,0.0,0.0,0.0,-0.66,-0.66,-0.6695,-0.672,-0.662,-0.6894,-0.7071,-0.7045,-0.728,-0.7467,-0.7568,-0.7735,0.0,0.0,0.0,0.0,0.0,0.0,0.0,0.0,0.0,-0.8602,-0.8945,-0.9131,-0.9283,0.0,0.0,-0.9862,-0.9983,0.0,0.0,0.0,0.0,0.0,0.0,0.0,0.0,0.0,0.0,0.0,0.0,0.0,0.0,0.0,0.0,0.0,0.0,0.0,-1.7944,-2.0406,0.0,-2.2649,-2.3233,-2.4091,-2.4543,-2.4735,-2.4637,-2.4217,-2.3867,0.0,0.0,-2.373,-2.373,-2.395,-2.4202,-2.4202,-2.4202,-2.4202,-2.4202,0.0,-2.4349,-2.4721,0.0,0.0,0.0,0.0,-2.6967,0.0,0.0,0.0,-2.753,-2.7638,-2.7647,-2.753,-2.7368,-2.7107,-2.6736,-2.6745,-2.6691,-2.6591,-2.6591,-2.6591,-2.6591,-2.6591,-2.6591,-2.6591,-2.6591,-2.6591,-2.6591,-2.6591,0.0,0.0,-2.6591,-2.6591,-2.6591,-2.6591,-2.6087,-2.5424,-2.5424,-2.49,-2.4202,0.0,0.0,0.0,0.0,0.0,0.0,-0.7106,-0.7101,-0.7101,-0.7101,-0.7106,-0.7106,-0.7106,-0.7225,-0.7317,-0.7317,-0.7542,0.0,0.0,0.0,0.0,0.0,0.0,0.0,0.0,0.0,-0.8969,-0.9504,-0.951,-0.951,-0.951,-0.9708,-0.9862,-1.0015,0.0,0.0,0.0,0.0,0.0,0.0,0.0,0.0,0.0,0.0,0.0,0.0,0.0,0.0,0.0,0.0,0.0,0.0,0.0,-1.7587,-1.9388,-1.9713,-2.1119,-2.2706,-2.3644,-2.458,-2.5235,-2.4981,-2.4677,-2.448,0.0,0.0,-2.4192,-2.4192,-2.4202,-2.4202,-2.4202,-2.4202,-2.4202,-2.4202,-2.4202,0.0,-2.4721,0.0,0.0,0.0,0.0,0.0,0.0,0.0,-2.8184,-2.7906,-2.813,0.0,-2.7906,-2.7906,-2.7638,-2.6989,-2.6989,-2.689,-2.6591,-2.6591,-2.6591,-2.6591,-2.6591,-2.6591,-2.6591,-2.6591,-2.6591,-2.6591,0.0,0.0,0.0,-2.6591,-2.6591,-2.6591,-2.6591,-2.6087,-2.5424,-2.5424,-2.49,-2.4202,0.0,0.0,0.0,0.0,0.0,0.0,0.0,-0.7112,-0.7112,-0.7112,-0.7112,-0.7112,-0.7112,-0.7139,-0.7171,-0.7171,-0.7408,0.0,0.0,0.0,0.0,0.0,0.0,0.0,0.0,0.0,-0.8975,-0.9516,-0.9516,-0.9516,-0.9516,-0.958,-0.9708,-0.9862,-0.9932,0.0,0.0,0.0,0.0,0.0,0.0,0.0,0.0,0.0,0.0,0.0,0.0,0.0,0.0,0.0,0.0,0.0,0.0,0.0,0.0,-1.7486,-1.9547,0.0,-2.1565,-2.2694,-2.3785,-2.3003,-2.3117,-2.3544,-2.4015,0.0,-2.3813,-2.4146,-2.4202,-2.4202,-2.4202,-2.4202,-2.4202,-2.4202,-2.4202,0.0,0.0,0.0,0.0,0.0,0.0,0.0,0.0,0.0,-2.7647,-2.7584,-2.7853,-2.796,-2.7906,-2.8067,-2.7799,-2.7043,-2.6989,-2.689,-2.6591,-2.6591,-2.6591,-2.6591,-2.6591,-2.6591,-2.6591,-2.6591,-2.6591,0.0,0.0,0.0,0.0,-2.6591,-2.6591,-2.6591,-2.6591,-2.6087,-2.5424,-2.5424,-2.49,-2.4202,0.0,0.0,0.0,0.0,0.0,0.0,0.0,-0.7112,-0.7112,-0.7112,-0.7112,-0.7112,-0.7112,-0.7112,-0.7112,-0.7112,-0.7246,0.0,0.0,0.0,0.0,0.0,0.0,0.0,-0.8698,-0.8806,-0.9071,-0.9516,-0.9516,-0.9516,-0.9516,-0.9516,-0.9612,-0.9804,-0.9862,-0.9836,0.0,0.0,0.0,0.0,0.0,0.0,-1.0774,0.0,0.0,0.0,0.0,0.0,0.0,0.0,0.0,0.0,0.0,0.0,0.0,0.0,-1.7933,-2.0262,0.0,-2.1242,-2.2357,-2.2279,-2.2524,0.0,0.0,-2.366,-2.3742,-2.3592,-2.3895,-2.4202,-2.4202,-2.4202,-2.4202,-2.4202,-2.4202,-2.4257,0.0,0.0,0.0,-2.5897,0.0,0.0,0.0,-2.7605,-2.7701,-2.7584,-2.7799,-2.796,-2.8077,-2.8121,-2.7906,-2.7368,-2.7206,-2.6999,-2.6736,-2.6636,-2.6591,-2.6591,-2.6591,-2.6591,-2.6591,-2.6591,-2.6591,0.0,0.0,0.0,0.0,-2.6591,-2.6591,-2.6591,-2.6591,-2.6087,-2.5424,-2.5424,-2.49,-2.4202,0.0,0.0,0.0,0.0,0.0,0.0,0.0,-0.7112,-0.7112,-0.7112,-0.7112,-0.7117,-0.7112,-0.7112,-0.7117,-0.716,0.0,0.0,0.0,0.0,0.0,0.0,0.0,0.0,-0.8698,-0.8963,-0.9233,-0.9516,-0.9516,-0.9516,-0.9516,-0.9516,-0.9612,-0.9772,-0.9926,-0.9926,-0.9836,-0.9976,-1.027,-1.0626,-1.0646,-1.0814,0.0,0.0,0.0,0.0,0.0,0.0,0.0,0.0,0.0,0.0,0.0,0.0,0.0,0.0,0.0,0.0,0.0,-2.0074,0.0,0.0,0.0,0.0,0.0,-2.3393,0.0,-2.2728,-2.3388,-2.4202,-2.4202,-2.4202,-2.4202,-2.4202,-2.4202,-2.4349,0.0,-2.5142,0.0,0.0,-2.7443,0.0,-2.7256,-2.7868,-2.8184,-2.7906,-2.7906,-2.8014,-2.8237,-2.8014,-2.7906,-2.7906,-2.7584,-2.726,-2.6989,-2.6736,-2.6646,-2.6591,-2.6591,-2.6591,-2.6591,-2.6591,-2.6591,0.0,0.0,0.0,0.0,-2.6591,-2.6591,-2.6591,-2.6591,-2.6087,-2.5424,-2.5424,-2.49,-2.4202,0.0,0.0,0.0,0.0,0.0,0.0,0.0,0.0,0.0,0.0,-0.7112,-0.7155,-0.7315,-0.7337,-0.7406,0.0,0.0,0.0,0.0,0.0,0.0,0.0,0.0,0.0,-0.871,-0.8963,-0.9233,-0.9516,-0.9516,-0.9516,-0.9516,-0.9516,-0.9516,-0.958,-0.9612,-0.9734,-0.997,-1.0249,-1.0601,-1.0909,-1.1136,-1.1263,0.0,0.0,0.0,0.0,-1.2496,-1.2878,0.0,0.0,0.0,0.0,0.0,0.0,0.0,0.0,-1.5363,-1.591,-1.6558,0.0,-1.9487,-1.9111,-1.9907,-2.0809,0.0,-2.1946,0.0,0.0,0.0,0.0,-2.4202,-2.4202,-2.4202,-2.4202,-2.4202,-2.4349,-2.4721,-2.5433,0.0,-2.6998,-2.7336,-2.7529,-2.7591,-2.7825,-2.796,-2.7906,-2.7906,-2.7799,-2.7647,-2.7799,-2.7906,-2.7906,-2.7368,-2.7043,-2.6989,-2.6944,-2.6791,-2.6591,-2.6591,-2.6591,-2.6591,-2.6591,-2.6591,0.0,0.0,0.0,-2.6591,-2.6591,-2.6591,-2.6591,-2.6591,-2.6087,-2.5424,-2.5424,-2.49,-2.4202,0.0,0.0,0.0,0.0,0.0,0.0,0.0,0.0,0.0,0.0,0.0,0.0,0.0,0.0,0.0,0.0,0.0,0.0,0.0,0.0,0.0,0.0,0.0,-0.8884,-0.8884,-0.9149,-0.9366,-0.9516,-0.9636,-0.9697,-0.9697,-0.9817,-0.9871,-0.9871,-0.9871,-1.0104,-1.0507,-1.0627,-1.0893,-1.1209,-1.1329,0.0,0.0,0.0,0.0,0.0,-1.2831,-1.3153,0.0,-1.3748,-1.3955,-1.4108,0.0,0.0,0.0,0.0,-1.515,-1.5431,-1.5745,-1.6791,-1.7919,-1.804,-1.8832,-1.964,-1.9793,-2.1198,-2.2215,0.0,0.0,0.0,-2.3538,-2.409,-2.4563,-2.4238,-2.4614,-2.4946,-2.5065,0.0,-2.6126,-2.6778,-2.7165,-2.7448,0.0,-2.7995,-2.8067,-2.8067,-2.7853,-2.7638,-2.7638,-2.753,-2.7638,-2.7906,-2.7422,-2.7152,-2.7152,-2.6944,-2.6736,-2.6591,-2.6591,-2.6591,-2.6591,-2.6591,-2.6591,0.0,0.0,0.0,-2.6591,-2.6591,-2.6591,-2.6591,-2.6591,-2.6087,-2.5424,-2.5424,-2.49,-2.4202,0.0,0.0,0.0,0.0,0.0,0.0,0.0,0.0,0.0,0.0,0.0,0.0,0.0,0.0,0.0,0.0,0.0,0.0,0.0,0.0,0.0,0.0,-0.9017,-0.9143,-0.9095,-0.9408,-0.9576,-0.9576,-0.9835,-0.9961,-0.9967,-1.019,-1.0292,-1.0292,-1.0292,-1.0604,-1.1052,-1.0994,-1.1151,-1.1496,-1.1509,0.0,0.0,0.0,0.0,0.0,0.0,0.0,0.0,-1.3988,-1.4088,-1.4128,-1.4376,0.0,0.0,0.0,0.0,0.0,-1.5771,-1.6194,-1.6817,-1.7959,-1.8441,-1.8694,-1.891,-2.0518,-2.1446,0.0,0.0,0.0,0.0,-2.3943,-2.4867,-2.4439,-2.5191,-2.5763,-2.5558,-2.578,-2.6076,-2.6408,-2.6926,0.0,-2.7674,-2.8038,-2.8237,-2.8237,-2.7799,-2.7638,-2.7799,-2.7314,-2.7314,-2.7799,-2.7485,-2.7323,-2.7377,-2.6899,-2.6636,-2.6591,-2.6591,-2.6591,-2.6591,-2.6591,-2.6591,-2.6582,0.0,0.0,-2.649,-2.6426,-2.6408,-2.6408,-2.6463,-2.5995,-2.5341,-2.5405,-2.49,-2.4202,0.0,0.0,0.0,0.0,0.0,0.0,0.0,0.0,0.0,0.0,0.0,0.0,0.0,0.0,0.0,0.0,0.0,0.0,0.0,0.0,0.0,-0.9041,-0.9306,-0.9342,-0.9101,-0.9588,-0.9847,-0.9847,-1.0106,-1.0238,-1.0238,-1.0274,-1.0292,-1.0292,-1.0292,-1.0534,-1.0933,-1.1163,-1.1443,-1.1824,-1.2071,0.0,0.0,0.0,0.0,0.0,0.0,0.0,0.0,-1.3988,-1.4088,-1.4095,-1.4142,0.0,0.0,0.0,0.0,0.0,-1.5758,-1.6799,-1.777,-1.7442,-1.7605,-1.7784,-1.7832,-1.8819,-1.9591,0.0,0.0,0.0,0.0,-2.3889,-2.4485,-2.4963,-2.547,-2.5908,-2.62,0.0,-2.6808,-2.6748,0.0,-2.7009,-2.6992,-2.7597,-2.796,-2.796,-2.8077,-2.797,-2.7485,-2.7377,-2.7377,-2.7485,-2.7008,-2.6954,-2.7377,-2.7098,-2.6836,-2.6591,-2.6591,-2.6591,-2.6591,-2.6591,-2.6591,-2.6564,0.0,-2.6104,-2.6085,-2.5693,-2.5555,-2.5644,-2.5975,-2.5626,-2.4913,-2.5243,-2.49,-2.4202,0.0,0.0,0.0,0.0,0.0,0.0,0.0,0.0,0.0,0.0,0.0,0.0,0.0,0.0,0.0,0.0,0.0,0.0,0.0,0.0,-0.9095,-0.9095,-0.9366,-0.9522,-0.9534,-0.9781,-0.9973,-1.0118,-1.0376,-1.0509,-1.0509,-1.0647,-1.0719,-1.0755,-1.0857,-1.1073,-1.1338,-1.1574,-1.185,-1.2118,0.0,0.0,0.0,0.0,0.0,0.0,0.0,0.0,0.0,0.0,-1.4088,-1.4115,-1.4269,0.0,0.0,0.0,0.0,0.0,-1.5752,-1.6679,-1.7662,-1.7852,-1.8223,-1.8549,-1.8549,-1.9395,-1.9923,-1.9021,-2.1067,0.0,0.0,0.0,-2.5321,-2.6039,0.0,-2.5718,-2.6116,-2.6153,-2.6197,0.0,0.0,-2.6735,-2.687,-2.7372,-2.7638,-2.7638,-2.7584,-2.7485,-2.7206,-2.7062,-2.7008,-2.7152,-2.6791,-2.6791,-2.7152,-2.6899,-2.6745,-2.6591,-2.6591,-2.6591,-2.6591,-2.6591,-2.6591,-2.6564,0.0,-2.6012,-2.5984,-2.5589,-2.5424,-2.5442,-2.5617,-2.5341,-2.4776,-2.478,-2.4523,-2.4202,0.0,0.0,0.0,0.0,0.0,0.0,0.0,0.0,0.0,0.0,0.0,0.0,0.0,0.0,0.0,0.0,0.0,0.0,0.0,-0.892,-0.9004,-0.9095,-0.9366,-0.9636,-0.9901,-0.9961,-1.0124,-1.0382,-1.0647,-1.0773,-1.0816,-1.1015,-1.1111,-1.1111,-1.1298,-1.1521,-1.1706,-1.1892,-1.2114,-1.2311,0.0,0.0,0.0,0.0,0.0,0.0,0.0,0.0,0.0,0.0,0.0,0.0,0.0,0.0,0.0,-1.4355,-1.4883,-1.5464,-1.5752,-1.6576,-1.7596,-1.8338,-1.8754,-1.9062,-1.9318,-1.9946,-2.0109,-1.893,-2.1166,-2.2951,0.0,-2.3861,0.0,-2.65,-2.606,-2.5752,-2.6104,-2.5945,-2.5872,-2.6122,-2.6319,-2.6556,-2.6862,-2.7152,-2.7323,-2.7323,-2.7152,-2.7043,-2.6989,-2.6791,-2.6791,-2.6989,-2.6745,-2.6736,-2.6989,-2.6736,-2.6591,-2.6591,-2.6591,-2.6591,-2.6591,-2.6591,-2.6591,-2.6564,-2.6195,-2.5957,-2.5846,-2.5451,-2.5221,-2.5148,-2.5197,-2.5051,-2.473,-2.4358,-2.4202,-2.4202,0.0,0.0,0.0,0.0,0.0,0.0,0.0,0.0,0.0,0.0,0.0,0.0,0.0,0.0,0.0,0.0,0.0,0.0,0.0,-0.8593,-0.8699,-0.9089,-0.9366,-0.9636,-0.9901,-1.0142,-1.0394,-1.0653,-1.0954,-1.1081,-1.1081,-1.1099,-1.1111,-1.1111,-1.1298,-1.1521,-1.1706,-1.1892,-1.2114,-1.2325,-1.2643,0.0,0.0,0.0,0.0,0.0,0.0,0.0,0.0,0.0,0.0,0.0,0.0,0.0,-1.4088,-1.4115,-1.4723,-1.5464,-1.5752,-1.688,-1.8131,-1.8393,-1.811,-1.8002,-1.9166,-1.9027,-1.8787,-1.9269,-2.1187,-2.2573,-2.1779,-2.3296,-2.4884,-2.5445,-2.5983,-2.6389,-2.6535,0.0,-2.6816,-2.6591,-2.6545,-2.6609,-2.6636,-2.689,-2.7043,-2.7043,-2.726,-2.726,-2.6989,-2.6989,-2.6989,-2.6989,-2.6745,-2.6736,-2.6989,-2.6736,-2.6591,-2.6591,-2.6591,-2.6591,-2.6591,-2.6591,-2.6591,-2.6564,-2.6195,-2.58,-2.5433,-2.4986,-2.4643,-2.433,-2.4725,-2.4812,-2.473,-2.4358,-2.4202,-2.4202,0.0,0.0,0.0,0.0,0.0,0.0,0.0,0.0,0.0,0.0,0.0,0.0,0.0,0.0,0.0,0.0,0.0,0.0,0.0,-0.8775,-0.8847,-0.9095,-0.9522,-0.9877,-1.0142,-1.04,-1.0665,-1.0966,-1.1063,-1.1111,-1.1111,-1.1111,-1.1186,-1.1298,-1.1484,-1.1706,-1.1892,-1.2114,-1.2224,-1.2311,-1.2425,-1.2616,0.0,0.0,0.0,0.0,0.0,0.0,0.0,0.0,-1.4088,-1.4088,-1.4088,-1.4088,-1.4088,-1.4088,-1.4449,-1.4997,-1.5651,-1.6672,-1.7671,-1.8357,-1.8332,-1.8508,-1.9659,-1.9771,-1.9603,-1.9635,-2.1511,-2.3278,-2.385,0.0,-2.5129,-2.5669,-2.6194,-2.6516,-2.6564,-2.6691,-2.6682,-2.6591,-2.6591,-2.6591,-2.6591,-2.6691,-2.6736,-2.6736,-2.6854,-2.6845,-2.6736,-2.6736,-2.6736,-2.6736,-2.6636,-2.6636,-2.6736,-2.6636,-2.6591,-2.6591,-2.6591,-2.6591,-2.6591,-2.6591,-2.6591,-2.6564,-2.6195,-2.5791,-2.5387,-2.4992,-2.4537,-2.422,-2.4376,-2.444,-2.4422,-2.4266,-2.4202,-2.4202,0.0,0.0,0.0,0.0,0.0,0.0,0.0,0.0,0.0,0.0,0.0,0.0,0.0,0.0,0.0,0.0,0.0,0.0,-0.9078,-0.9133,-0.9263,-0.9474,-0.9907,-1.0238,-1.0412,-1.0677,-1.093,-1.1111,-1.1111,-1.1111,-1.1105,-1.1027,-1.1107,-1.1292,-1.1433,-1.1587,-1.1818,-1.2077,-1.2224,-1.2238,-1.2405,-1.2603,0.0,0.0,0.0,0.0,0.0,0.0,0.0,0.0,-1.4088,-1.4088,-1.4088,-1.4088,-1.4088,-1.4088,-1.4489,-1.5038,-1.5778,-1.6608,-1.7534,-1.8306,-1.8435,-1.868,-1.9892,-2.0067,-2.0045,-2.0079,-2.1277,-2.295,-2.4792,0.0,0.0,0.0,-2.6316,-2.6591,-2.6591,-2.6591,-2.6591,-2.6591,-2.6591,-2.6591,-2.6591,-2.6591,-2.6591,-2.6591,-2.6591,0.0,0.0,-2.6591,-2.6591,-2.6591,-2.6591,-2.6591,-2.6591,-2.6591,-2.6591,-2.6591,-2.6591,-2.6591,-2.6591,-2.6591,-2.6591,-2.6573,-2.6289,-2.5984,-2.558,-2.5185,-2.4698,-2.4202,-2.4202,-2.4202,-2.4202,-2.4202,-2.4284,-2.4404,0.0,0.0,0.0,0.0,0.0,0.0,0.0,0.0,0.0,0.0,0.0,0.0,0.0,0.0,0.0,0.0,0.0,0.0,-0.9594,-0.9661,-0.9874,-1.0286,-1.0545,-1.0683,-1.0683,-1.0979,-1.1111,-1.1111,-1.1111,-1.1111,-1.1105,-1.0846,-1.0864,-1.1099,-1.1022,-1.1161,-1.1453,-1.1824,-1.2009,-1.2035,-1.2594,-1.279,-1.2824,0.0,0.0,0.0,0.0,0.0,0.0,0.0,-1.4088,-1.4088,-1.4088,-1.4088,-1.4088,-1.4088,-1.491,-1.5879,-1.6186,-1.6907,-1.7722,-1.833,-1.8263,-1.8312,-1.95,-1.957,-1.9639,-2.053,-2.0487,-2.1215,-2.4088,-2.3925,0.0,-2.5736,-2.6316,-2.6591,-2.6591,-2.6591,-2.6591,-2.6591,-2.6591,-2.6591,-2.6591,-2.6591,-2.6591,-2.6591,-2.6591,0.0,0.0,-2.6591,-2.6591,-2.6591,-2.6591,-2.6591,-2.6591,-2.6591,-2.6591,-2.6591,-2.6591,-2.6591,-2.6591,-2.6591,-2.6591,-2.6591,-2.6591,-2.6344,-2.5984,-2.558,-2.4937,-2.4211,-2.4202,-2.4202,-2.4202,-2.4202,-2.4468,-2.4785,0.0,0.0,0.0,0.0,0.0,0.0,0.0,0.0,0.0,0.0,0.0,0.0,0.0,0.0,0.0,0.0,0.0,0.0,-0.9926,-0.9978,-1.0076,-1.0292,-1.0545,-1.0683,-1.0683,-1.0979,-1.1111,-1.1111,-1.1111,-1.1111,-1.1105,-1.1033,-1.1216,-1.1586,-1.1378,-1.1596,-1.2094,-1.2291,-1.2436,-1.2601,-1.2946,-1.3073,-1.308,0.0,0.0,0.0,0.0,0.0,0.0,0.0,0.0,0.0,-1.4088,-1.4088,-1.4128,-1.4335,-1.4636,-1.5064,-1.5772,-1.6756,-1.7635,-1.7809,-1.8421,-1.9096,-1.9443,-1.957,-2.0061,-2.1427,-2.1256,-2.1574,-2.3862,-2.4364,0.0,-2.5835,-2.6316,-2.6591,-2.6591,-2.6591,-2.6591,-2.6591,-2.6591,-2.6591,-2.6591,-2.6591,-2.6591,-2.6591,-2.6591,0.0,0.0,-2.6591,-2.6591,-2.6591,-2.6591,-2.6591,-2.6591,-2.6591,-2.6591,-2.6591,-2.6591,-2.6591,-2.6591,-2.6591,-2.6591,-2.6591,-2.6591,-2.6344,-2.5957,-2.5286,-2.4812,-2.4565,-2.4321,-2.4202,-2.4202,-2.4202,-2.4468,-2.4785,0.0,0.0,0.0,0.0,0.0,0.0,0.0,0.0,0.0,0.0,-0.8376,-0.8533,0.0,0.0,0.0,0.0,0.0,0.0,0.0,-1.0468,-1.0491,-1.0454,-1.0737,-1.0876,-1.0876,-1.1033,-1.1111,-1.1111,-1.1111,-1.1134,-1.1236,-1.1057,-1.1203,-1.167,-1.1389,-1.157,-1.2042,-1.2272,-1.2505,-1.2752,-1.2975,-1.3127,-1.322,0.0,0.0,0.0,0.0,0.0,0.0,0.0,0.0,0.0,-1.4088,-1.4088,-1.4188,-1.4716,-1.495,-1.5238,-1.6357,-1.721,-1.7853,-1.8218,-1.8778,-1.9235,-1.9521,-1.9656,-2.021,-2.1635,-2.1183,-2.1212,-2.3321,-2.3612,0.0,-2.5305,-2.5746,-2.6081,-2.6527,-2.6591,-2.6591,-2.6591,-2.6591,-2.6591,-2.6591,-2.6591,-2.6591,-2.6591,-2.6591,0.0,0.0,-2.6591,-2.6591,-2.6591,-2.6591,-2.6591,-2.6591,-2.6591,-2.6591,-2.6591,-2.6591,-2.6591,-2.6591,-2.6591,-2.6591,-2.6591,-2.6591,-2.6344,-2.5966,-2.5271,-2.4922,-2.4739,-2.4367,-2.4202,-2.4202,-2.4202,-2.4468,-2.4803,0.0,0.0,0.0,0.0,0.0,0.0,0.0,0.0,0.0,0.0,-0.8949,-0.9041,0.0,0.0,0.0,0.0,0.0,0.0,0.0,-1.0999,-1.1003,-1.0767,-1.0985,-1.1111,-1.1111,-1.1111,-1.1123,-1.1148,-1.1123,-1.1256,-1.1483,-1.099,-1.1044,-1.1549,-1.131,-1.1341,-1.1618,-1.2052,-1.2403,-1.2689,-1.2875,-1.3087,-1.332,-1.354,0.0,0.0,0.0,0.0,0.0,0.0,0.0,0.0,-1.4088,-1.4088,-1.4255,-1.5104,-1.5578,-1.6084,-1.7489,-1.7949,-1.8229,-1.9085,-1.9125,-1.9089,-1.9639,-1.9758,-2.0097,-2.1224,0.0,-2.0551,-2.2474,-2.2297,-2.2523,-2.4501,-2.4898,-2.5348,-2.6473,-2.6591,-2.6591,-2.6591,-2.6591,-2.6591,-2.6591,-2.6591,-2.6591,-2.6591,-2.6591,0.0,-2.6591,-2.6591,-2.6591,-2.6591,-2.6591,-2.6591,-2.6591,-2.6591,-2.6591,-2.6591,-2.6591,-2.6591,-2.6591,-2.6591,-2.6591,-2.6591,-2.6591,-2.6371,-2.6039,-2.5644,-2.5197,-2.4794,-2.4422,-2.4238,-2.4202,-2.4202,-2.4468,-2.484,0.0,0.0,0.0,0.0,0.0,0.0,0.0,0.0,0.0,0.0,0.0,0.0,0.0,0.0,0.0,0.0,0.0,0.0,0.0,-1.1074,-1.1087,-1.1033,-1.1081,-1.1111,-1.1111,-1.1111,-1.1182,-1.1405,-1.1182,-1.1256,-1.1489,-1.1375,-1.1597,-1.2131,-1.1866,-1.1976,-1.2353,-1.2537,-1.2807,-1.316,-1.3256,-1.3554,-1.3908,-1.3752,-1.382,0.0,0.0,0.0,0.0,0.0,0.0,0.0,-1.4088,-1.4088,-1.4215,-1.4914,-1.5424,-1.5951,-1.678,-1.7682,-1.8444,-1.8631,-1.8978,-1.9343,-1.9468,-1.9482,-1.9649,-2.0097,-2.0551,-2.106,-2.1517,-2.2974,-2.427,-2.4723,-2.5569,-2.63,-2.6537,-2.6591,-2.6591,-2.6591,-2.6591,-2.6591,-2.6591,-2.6591,-2.6591,-2.6591,-2.6591,0.0,-2.6591,-2.6591,-2.6591,-2.6591,-2.6591,-2.6591,-2.6591,-2.6591,-2.6591,-2.6591,-2.6591,-2.6591,-2.6591,-2.6591,-2.6591,-2.6591,-2.6591,-2.6536,-2.6417,-2.6058,-2.5653,-2.5207,-2.4803,-2.4496,-2.4202,-2.4202,-2.4468,-2.484,0.0,0.0,0.0,0.0,0.0,0.0,0.0,0.0,0.0,0.0,0.0,0.0,0.0,0.0,0.0,0.0,0.0,0.0,0.0,0.0,-1.0979,-1.1105,-1.0991,-1.1045,-1.1304,-1.1273,-1.1405,-1.1676,-1.1531,-1.1603,-1.1862,-1.1736,-1.1892,-1.2306,-1.2168,-1.2227,-1.2484,-1.2618,-1.2883,-1.3194,-1.325,-1.344,-1.3743,-1.3737,-1.3913,-1.4167,-1.4252,0.0,0.0,0.0,0.0,0.0,0.0,0.0,-1.4436,-1.5164,-1.5491,-1.5905,-1.7208,-1.7802,-1.8196,-1.8771,-1.9138,-1.9424,-1.9424,-1.9424,-1.9424,-1.9591,-1.9989,-2.0493,-2.106,-2.2248,-2.3263,-2.3824,-2.4953,-2.5962,-2.6537,-2.6591,-2.6591,-2.6591,-2.6591,-2.6591,-2.6591,-2.6591,-2.6591,-2.6591,0.0,-2.6591,-2.6591,-2.6081,-2.6026,-2.6591,-2.6026,-2.6026,-2.6582,-2.6591,-2.6591,-2.6591,-2.6591,-2.6591,-2.6591,-2.6591,-2.6591,-2.6591,-2.6591,-2.6591,-2.6554,-2.6186,-2.5892,-2.5644,-2.5014,-2.4647,-2.4477,-2.4275,-2.4339,-2.4615,0.0,0.0,0.0,0.0,0.0,0.0,0.0,0.0,0.0,0.0,0.0,0.0,0.0,0.0,0.0,0.0,0.0,0.0,0.0,0.0,0.0,-1.1099,-1.0912,-1.1032,-1.1483,-1.1537,-1.1688,-1.1952,-1.1952,-1.2125,-1.2373,-1.2073,-1.2131,-1.2379,-1.2379,-1.2379,-1.2397,-1.2614,-1.2863,-1.3169,-1.3169,-1.3322,-1.3623,-1.3801,-1.4073,-1.4377,-1.4508,-1.475,-1.4975,-1.4676,0.0,0.0,0.0,0.0,-1.475,-1.5531,-1.5658,-1.5932,-1.7702,-1.7969,-1.8003,-1.9092,-1.9424,-1.9424,-1.9424,-1.9424,-1.9424,-1.9424,-1.9424,-1.9707,-2.0723,-2.1231,-2.1851,-2.2862,-2.4214,-2.5459,-2.6473,-2.6591,-2.6591,-2.6591,-2.6591,-2.6591,-2.6591,-2.6591,-2.6591,0.0,0.0,-2.6591,-2.6591,-2.5459,-2.534,-2.6537,-2.5459,-2.5404,-2.6591,-2.6591,-2.6591,-2.6591,-2.6591,-2.6473,-2.63,-2.6527,-2.6591,-2.6591,-2.6591,-2.6591,-2.6564,-2.6045,-2.5853,-2.5894,-2.5027,-2.4741,-2.4739,-2.444,-2.4266,-2.4312,0.0,0.0,0.0,0.0,0.0,0.0,0.0,0.0,0.0,0.0,-0.754,-0.7526,0.0,0.0,0.0,0.0,0.0,0.0,0.0,0.0,0.0,-1.1111,-1.1273,-1.1417,-1.1495,-1.1712,-1.1999,-1.2264,-1.2264,-1.2397,-1.2644,-1.2385,-1.2403,-1.265,-1.265,-1.265,-1.2656,-1.2687,-1.301,-1.3449,-1.3449,-1.3856,-1.4429,-1.4474,-1.464,-1.4903,-1.4903,-1.4975,-1.5001,-1.4961,-1.4948,0.0,0.0,0.0,-1.5022,-1.5344,-1.5785,-1.6273,-1.68,-1.7642,-1.8531,-1.9256,-1.9424,-1.9424,0.0,0.0,-1.9424,0.0,-1.9424,-1.9424,-1.9597,-2.1345,-2.2805,-2.2974,-2.4898,-2.6418,-2.6591,-2.6591,-2.6591,-2.6591,-2.6591,-2.6591,-2.6591,0.0,0.0,0.0,-2.6591,-2.6591,-2.6591,-2.5459,-2.534,-2.6537,-2.5459,-2.5404,-2.6591,-2.6591,-2.6591,-2.6591,-2.6591,-2.6081,-2.5064,-2.6136,-2.6591,-2.6591,-2.6591,-2.6591,-2.6527,-2.5397,-2.5395,-2.5896,-2.4738,-2.4465,-2.4776,-2.4721,-2.4514,-2.4275,0.0,0.0,0.0,0.0,0.0,0.0,0.0,0.0,0.0,0.0,0.0,-0.725,0.0,0.0,0.0,-0.7829,0.0,0.0,0.0,0.0,0.0,-1.1309,-1.1567,-1.1778,-1.1922,-1.2042,-1.227,-1.253,-1.253,-1.2668,-1.2934,-1.2776,-1.2747,-1.2711,-1.2868,-1.294,-1.2952,-1.3097,-1.3268,-1.3511,-1.3651,-1.4138,-1.4716,-1.4624,-1.4983,-1.5457,-1.5278,-1.5311,-1.5424,-1.5257,-1.5204,-1.5223,-1.5062,0.0,0.0,0.0,-1.5691,-1.6199,-1.6981,-1.7829,-1.8631,-1.9219,-1.9424,-1.9424,-1.9424,-1.9424,-1.9424,-1.9424,-1.9424,-1.9424,-1.9424,-2.0838,-2.2191,-2.2869,-2.4445,-2.5852,-2.6473,-2.6591,-2.6591,-2.6591,-2.6591,0.0,0.0,0.0,0.0,0.0,-2.6591,-2.6591,-2.6591,-2.4834,-2.4667,-2.6537,-2.4778,-2.4723,-2.6591,-2.6591,-2.6591,-2.6582,-2.5907,-2.5679,-2.5798,-2.5688,-2.5569,-2.5624,-2.6309,-2.6591,-2.6537,-2.6017,-2.6027,-2.6289,-2.5496,-2.518,-2.5087,-2.4858,-2.4569,-2.4266,0.0,0.0,0.0,0.0,0.0,0.0,0.0,0.0,0.0,0.0,0.0,0.0,0.0,0.0,0.0,0.0,-0.7064,0.0,0.0,0.0,0.0,-1.1552,-1.1638,-1.1869,-1.2306,-1.2379,-1.2542,-1.2813,-1.2813,-1.2952,-1.3224,-1.3224,-1.3109,-1.2916,-1.3127,-1.3224,-1.3191,-1.3435,-1.3556,-1.3628,-1.4136,-1.4625,-1.5122,-1.5306,-1.5785,-1.6272,-1.5795,-1.5777,-1.5855,-1.545,-1.5325,-1.5285,-1.5159,-1.5239,0.0,0.0,0.0,-1.6052,-1.7081,-1.7689,-1.8217,-1.8958,-1.9145,-1.9185,0.0,0.0,-1.9424,0.0,-1.9424,-1.9424,-1.9424,-2.0385,-2.1517,-2.2418,-2.3544,-2.4667,-2.5569,-2.5962,-2.6136,0.0,0.0,0.0,0.0,0.0,0.0,0.0,-2.6591,-2.6591,-2.6591,-2.4334,-2.4103,-2.6527,-2.427,-2.4158,-2.6591,-2.6591,-2.6591,-2.6582,-2.5688,-2.5404,-2.5688,-2.5404,-2.4898,-2.4445,-2.5962,-2.6591,-2.6591,-2.6254,-2.63,-2.6554,-2.591,-2.5654,-2.5525,-2.5078,-2.4716,-2.4395,0.0,0.0,0.0,0.0,0.0,0.0,0.0,0.0,0.0,0.0,0.0,0.0,-0.5089,-0.5473,-0.6009,-0.6582,-0.6821,-0.7757,-0.9755,-0.9424,0.0,-1.1782,-1.1284,0.0,-1.2271,-1.256,-1.2819,-1.3103,-1.3103,-1.3236,-1.3495,-1.3495,-1.3483,-1.3471,-1.3489,-1.3495,-1.3495,-1.3507,-1.3658,-1.3977,-1.5078,-1.566,-1.603,-1.7041,-1.7475,-1.7383,-1.6557,-1.6267,0.0,0.0,0.0,0.0,0.0,-1.546,-1.552,0.0,0.0,0.0,-1.658,-1.6774,-1.7081,-1.8243,-1.8537,-1.8684,0.0,0.0,-1.9424,-1.9424,-1.9424,-1.9424,-1.9424,-2.0385,-2.1231,-2.1288,-2.2305,-2.3095,-2.3207,0.0,0.0,0.0,0.0,0.0,0.0,0.0,0.0,0.0,-2.6591,-2.6591,-2.6591,-2.4334,-2.4103,-2.6527,-2.427,-2.4158,-2.6591,-2.6591,-2.6591,-2.6591,-2.6537,-2.5348,-2.3255,-2.5514,-2.5238,-2.3199,-2.5569,-2.6591,-2.6527,-2.5348,-2.5569,-2.6473,-2.5322,-2.5295,-2.5929,-2.5534,-2.5087,-2.4744,0.0,0.0,0.0,0.0,0.0,0.0,0.0,0.0,0.0,0.0,0.0,0.0,0.0,-0.6062,-0.6271,-0.6616,-0.6731,-0.7292,-0.8529,-0.9151,0.0,-1.1224,-1.1788,-1.2304,-1.2782,-1.2928,-1.3103,-1.3375,-1.3375,-1.3507,-1.3767,-1.3767,-1.3948,-1.4274,-1.3924,-1.3857,-1.4026,-1.4214,-1.434,-1.4522,-1.5601,-1.6247,-1.6548,-1.7139,-1.7715,-1.8063,-1.7171,0.0,0.0,0.0,0.0,0.0,0.0,0.0,0.0,0.0,-1.5784,-1.5999,-1.678,-1.7038,-1.728,-1.8237,-1.8631,-1.8824,-1.9038,-1.9232,-1.9424,-1.9424,-1.9424,-1.9424,-1.9424,-1.9764,-2.027,-2.106,-2.1574,-2.2418,0.0,0.0,0.0,0.0,0.0,0.0,0.0,0.0,0.0,0.0,0.0,-2.6591,-2.6591,-2.5064,-2.4898,-2.6527,-2.5008,-2.4953,-2.6591,-2.6591,-2.6591,-2.6591,-2.6591,-2.6136,-2.5284,-2.5404,-2.5404,-2.5348,-2.5404,-2.5852,-2.6582,-2.6136,-2.619,-2.6537,-2.6136,-2.5992,-2.5993,-2.5855,-2.5552,-2.5157,0.0,0.0,0.0,0.0,0.0,0.0,0.0,0.0,0.0,-0.5821,0.0,0.0,0.0,0.0,-0.6571,-0.6702,-0.6749,-0.715,-0.7972,-0.8577,-0.9618,-1.1081,-1.169,-1.239,-1.3203,-1.3209,-1.3387,-1.3646,-1.3646,-1.3779,-1.4039,-1.4135,-1.437,-1.4702,-1.4431,-1.4407,-1.4582,-1.4769,-1.4847,-1.4952,-1.6135,-1.6607,-1.6762,-1.7383,-1.7887,-1.8121,0.0,0.0,0.0,0.0,0.0,0.0,0.0,0.0,0.0,0.0,0.0,0.0,-1.6723,0.0,0.0,0.0,-1.833,-1.8551,-1.8851,0.0,-1.9245,-1.9403,-1.9424,-1.9424,-1.9424,-1.9424,-1.9649,-2.0443,0.0,0.0,0.0,0.0,0.0,0.0,0.0,0.0,0.0,0.0,0.0,0.0,0.0,0.0,-2.6591,-2.5459,-2.5008,-2.5404,-2.5404,-2.5569,-2.5962,-2.6418,-2.6591,-2.6591,-2.6591,-2.6418,-2.5962,-2.5569,-2.5633,-2.5962,-2.5569,-2.5852,-2.6591,-2.6591,-2.6591,-2.6591,-2.6591,-2.6417,-2.6205,-2.6067,-2.5846,-2.5561,0.0,0.0,0.0,0.0,0.0,0.0,0.0,0.0,-0.6127,-0.613,0.0,0.0,0.0,0.0,0.0,-0.6719,-0.6858,-0.7322,-0.8254,-0.7786,-0.8771,-1.1593,0.0,0.0,-1.348,-1.3525,-1.3652,-1.3918,-1.3924,-1.4057,-1.4316,-1.46,-1.4733,-1.4751,-1.501,-1.5125,-1.5131,-1.5125,-1.5119,-1.5236,-1.6618,-1.6895,-1.6596,-1.797,-1.8125,0.0,-1.7338,-1.7223,0.0,-1.6904,0.0,0.0,0.0,0.0,0.0,0.0,0.0,0.0,0.0,0.0,0.0,0.0,0.0,0.0,-1.8698,0.0,-1.9005,-1.9292,-1.9417,-1.9424,-1.9424,-1.9424,-1.9424,0.0,0.0,0.0,0.0,0.0,0.0,0.0,0.0,0.0,0.0,0.0,0.0,0.0,-2.6555,-2.6609,-2.6609,-2.5523,-2.4326,-2.3151,-2.5404,-2.6026,-2.4834,-2.6017,-2.6591,-2.6591,-2.6591,-2.5962,-2.4898,-2.6017,-2.5907,-2.4898,-2.6081,-2.6582,-2.6591,-2.6591,-2.6591,-2.6591,-2.6591,-2.6591,-2.6536,-2.6177,-2.603,-2.5975,0.0,0.0,0.0,0.0,0.0,0.0,-0.6129,-0.6309,-0.6514,0.0,0.0,0.0,-0.6887,-0.6974,-0.7065,-0.7177,-0.7224,-0.7739,-0.8894,-0.9446,-1.0415,-1.1925,-1.2456,-1.3043,-1.3745,-1.3797,-1.3924,-1.4189,-1.4395,-1.4527,-1.4606,-1.4871,-1.5101,-1.5288,-1.536,-1.5493,-1.5662,-1.5475,-1.539,-1.5515,-1.6689,-1.7131,-1.7057,-1.8084,0.0,0.0,0.0,-1.8066,-1.7568,0.0,-1.6913,-1.5814,0.0,0.0,0.0,0.0,0.0,0.0,-1.6446,0.0,0.0,0.0,0.0,0.0,0.0,0.0,0.0,-1.9032,-1.9219,-1.9424,-1.9424,-1.9424,0.0,0.0,0.0,0.0,0.0,0.0,0.0,0.0,0.0,0.0,0.0,0.0,0.0,0.0,-2.5731,-2.5984,-2.6957,-2.6454,-2.5962,-2.5624,-2.6245,-2.6418,-2.6136,-2.6418,-2.6591,-2.6591,-2.6591,-2.6418,-2.6081,-2.5514,-2.5569,-2.6081,-2.5514,-2.5798,-2.6591,-2.6591,-2.6591,-2.6591,-2.6591,-2.6591,-2.6573,-2.6463,-2.6417,-2.6362,0.0,0.0,0.0,0.0,0.0,-0.6401,-0.6486,-0.6765,-0.6966,0.0,0.0,0.0,-0.7333,-0.7688,-0.7864,-0.7504,-0.8287,-0.8878,-0.9169,-1.017,-1.1238,-1.2224,-1.2834,-1.3438,-1.4063,-1.4069,-1.4201,-1.4473,-1.4636,-1.4775,-1.4883,-1.5149,-1.5354,-1.5499,-1.5614,-1.5747,-1.5879,-1.5728,-1.5662,-1.5775,-1.6912,-1.7251,-1.7117,-1.806,-1.8547,0.0,0.0,0.0,-1.7896,-1.847,-1.7537,0.0,0.0,0.0,0.0,0.0,0.0,0.0,0.0,0.0,0.0,0.0,0.0,0.0,-1.7945,-1.838,-1.8811,0.0,-1.9245,-1.9424,-1.9424,0.0,0.0,0.0,0.0,0.0,0.0,0.0,0.0,0.0,0.0,0.0,0.0,-2.3957,-2.4571,-2.5717,-2.5562,-2.5953,-2.7131,-2.6958,-2.6527,-2.5861,-2.6364,-2.6364,-2.5852,-2.6364,-2.6591,-2.6591,-2.6591,-2.6591,-2.6591,-2.5852,-2.5907,-2.6537,-2.5852,-2.5962,-2.6591,-2.6591,-2.6591,-2.6591,-2.6591,-2.6591,-2.6591,-2.6591,-2.6591,-2.6554,0.0,0.0,-0.6236,-0.6453,-0.6694,-0.6888,-0.6888,-0.7173,-0.7443,0.0,-0.7516,-0.76,-0.76,-0.8434,-0.8672,-0.7853,-0.9499,-1.031,-0.9682,-1.0659,-1.1733,-1.2755,-1.2898,-1.3402,-1.4389,-1.4389,-1.4509,-1.4757,-1.4787,-1.492,-1.5155,-1.5421,-1.5541,-1.5553,-1.5783,-1.5891,-1.5891,-1.5891,-1.5981,-1.6126,-1.7133,-1.7251,-1.7009,-1.8112,-1.8253,-1.7941,-1.8496,-1.8466,-1.8307,-1.9112,-1.8492,0.0,0.0,0.0,0.0,0.0,-1.5381,0.0,0.0,0.0,0.0,0.0,0.0,0.0,-1.7812,-1.8183,-1.8535,0.0,0.0,0.0,0.0,0.0,0.0,0.0,0.0,0.0,0.0,0.0,0.0,0.0,0.0,0.0,-2.3608,-2.4037,-2.4743,-2.5853,-2.6026,-2.643,-2.7205,-2.7196,-2.656,-2.5133,-2.6044,-2.6081,-2.5008,-2.6081,-2.6591,-2.6591,-2.6591,-2.6591,-2.6591,-2.6591,-2.6591,-2.6591,-2.6591,-2.6591,-2.6591,-2.6591,-2.6591,-2.6591,-2.6591,-2.6591,-2.6591,-2.6591,-2.6591,-2.6591,0.0,-0.646,-0.6645,-0.683,-0.7201,-0.7466,-0.7466,-0.7489,-0.7556,-0.7556,-0.758,-0.76,-0.76,-0.7785,-0.8208,-0.8989,-0.9614,-1.064,-1.2224,-1.2754,-1.3495,-1.4572,-1.4619,-1.4743,-1.495,-1.495,-1.498,-1.5034,-1.524,-1.5372,-1.5427,-1.5692,-1.5813,-1.5813,-1.5867,-1.5891,-1.5891,-1.5891,-1.6301,-1.6968,-1.6912,-1.7078,-1.7514,-1.8466,-1.9023,-1.9403,-1.9754,-1.9708,-1.9423,-1.9121,-1.8828,-1.8446,0.0,0.0,0.0,-1.5826,0.0,0.0,0.0,0.0,0.0,0.0,0.0,0.0,-1.7263,-1.7572,-1.7884,0.0,0.0,0.0,0.0,0.0,0.0,0.0,0.0,0.0,0.0,0.0,0.0,0.0,0.0,0.0,-2.3111,-2.3308,-2.4301,-2.6619,-2.7488,-2.7846,-2.7673,-2.7408,-2.7086,-2.6716,-2.6637,-2.6473,-2.6254,-2.6473,-2.6591,-2.6591,-2.6591,-2.6591,-2.6591,-2.6591,-2.6591,-2.6591,-2.6591,-2.6591,-2.6591,-2.6591,-2.6591,-2.6591,-2.6591,-2.6591,-2.6591,-2.6591,-2.6591,-2.6591,-0.6475,-0.6727,-0.6939,-0.7244,-0.7456,-0.76,-0.76,-0.7658,-0.7706,-0.7706,-0.7841,-0.796,-0.8031,-0.9023,-0.9743,-0.978,-1.1425,-1.2691,-1.3254,-1.3948,-1.4536,-1.5056,-1.5107,-1.5107,-1.5107,-1.5107,-1.5173,-1.5306,-1.5433,-1.5565,-1.5698,-1.5964,-1.6265,-1.6557,-1.6253,-1.6271,-1.6551,-1.6247,-1.6429,-1.6974,-1.7254,-1.7843,-1.8545,-1.9266,-1.9761,-2.0034,-2.012,-2.014,-1.9934,-1.9489,-1.8979,0.0,0.0,-1.7719,-1.727,0.0,-1.6524,-1.6848,0.0,0.0,0.0,-1.6274,0.0,0.0,0.0,-1.7229,-1.7473,-1.7744,-1.7942,-1.8046,-1.8046,-1.8046,-1.8102,0.0,0.0,0.0,0.0,0.0,0.0,0.0,0.0,0.0,-2.2937,-2.3076,-2.4186,-2.6771,-2.8072,-2.8507,-2.8104,-2.7893,-2.7691,-2.7537,-2.7086,-2.6885,-2.6885,-2.6683,-2.6591,-2.6591,-2.6591,-2.6591,-2.6591,-2.6591,-2.6591,-2.6591,-2.6591,-2.6591,-2.6591,-2.6591,-2.6591,-2.6591,-2.6591,-2.6591,-2.6591,-2.6591,-2.6591,-2.6591,-0.6798,-0.698,-0.723,-0.7611,-0.7685,-0.7702,-0.776,-0.7845,-0.8007,-0.8227,-0.8534,-0.8861,-0.9189,-1.0902,-1.1703,-1.1024,-1.347,-1.4734,-1.4007,-1.4831,-1.533,-1.533,-1.5282,-1.5282,-1.5336,-1.5288,-1.536,-1.5572,-1.5572,-1.5704,-1.597,-1.6181,-1.6594,-1.708,-1.6735,-1.6753,-1.7074,-1.6784,-1.6838,-1.7175,-1.8026,-1.8635,-1.9206,-1.9793,-2.0059,-2.0133,-2.03,-2.0401,-2.032,-1.9916,-1.9173,-1.8429,-1.8609,-1.8058,0.0,0.0,0.0,0.0,0.0,0.0,0.0,0.0,0.0,-1.6332,0.0,0.0,0.0,-1.7378,-1.7429,-1.7429,0.0,-1.7429,0.0,0.0,0.0,0.0,0.0,0.0,0.0,0.0,0.0,0.0,-2.2784,-2.3074,-2.4399,-2.7185,-2.7976,-2.8414,-2.8517,-2.8434,-2.8242,-2.795,-2.7555,-2.7251,-2.7178,-2.6866,-2.6664,-2.6591,-2.6591,-2.6591,-2.6591,-2.6591,-2.6591,-2.6591,-2.6591,-2.6591,-2.6591,-2.6591,-2.6591,-2.6591,-2.6591,-2.6591,-2.6591,-2.6591,-2.6591,-2.6591,-0.7456,-0.7488,-0.7572,-0.7914,-0.7941,-0.8079,-0.8343,-0.8289,-0.867,-0.9773,-1.0173,-1.0722,-1.1861,-1.2398,-1.2989,-1.3746,-1.4369,-1.5004,-1.56,0.0,-1.6145,-1.6145,-1.5928,-1.5916,-1.6169,-1.5928,-1.5813,-1.5843,-1.5843,-1.5982,-1.6241,-1.6266,-1.6484,-1.6762,-1.7246,-1.7164,-1.6786,-1.7498,-1.8142,-1.8661,-1.9006,-1.874,0.0,-1.9068,-1.958,-1.9948,-2.0704,-2.1009,-2.0866,0.0,-1.973,-1.9356,0.0,-1.8346,-1.9016,-1.6679,0.0,0.0,0.0,0.0,0.0,0.0,-1.5945,0.0,0.0,0.0,-1.6486,-1.6772,0.0,-1.6772,-1.6772,0.0,0.0,0.0,0.0,0.0,0.0,0.0,0.0,0.0,0.0,0.0,0.0,-2.3129,-2.5036,-2.8536,-2.7102,-2.6894,-2.8856,-2.859,-2.837,-2.8324,-2.7921,-2.7583,-2.7178,-2.7132,-2.694,-2.6591,-2.6591,-2.6591,-2.6591,-2.6591,-2.6591,-2.6591,-2.6591,-2.6591,-2.6591,-2.6591,-2.6591,-2.6591,-2.6591,-2.6591,-2.6591,-2.6591,-2.6591,-2.6591,-0.7779,-0.7885,0.0,-0.8163,-0.8241,-0.8309,-0.8353,-0.8377,-0.8911,-1.0176,-1.0474,-1.077,-1.1361,-1.2744,-1.3883,-1.4663,0.0,-1.6233,0.0,0.0,-1.66,-1.6066,0.0,0.0,-1.6066,-1.5952,-1.5964,-1.6115,-1.6115,-1.626,-1.6525,-1.6682,-1.7007,-1.744,-1.7724,-1.7863,-1.7983,-1.8385,-1.8673,-1.8926,-1.9207,-1.9054,0.0,-1.9946,-2.0449,-2.0595,-2.0959,-2.1109,-2.1069,0.0,-1.9855,0.0,0.0,0.0,0.0,0.0,0.0,0.0,0.0,0.0,0.0,0.0,0.0,0.0,-1.6178,0.0,-1.6105,0.0,0.0,0.0,0.0,0.0,0.0,0.0,-1.7104,0.0,0.0,0.0,0.0,0.0,0.0,0.0,0.0,0.0,0.0,0.0,-2.7727,-2.8025,-2.8957,-2.8828,-2.8737,-2.8737,-2.8342,-2.8049,-2.7884,-2.7416,-2.7095,-2.693,-2.6692,-2.6591,-2.6591,-2.6591,-2.6591,-2.6591,-2.6591,-2.6591,-2.6591,-2.6591,-2.6591,-2.6591,-2.6591,-2.6591,-2.6591,-2.6591,-2.6591,-2.6591,-0.8154,0.0,0.0,-0.8374,-0.8414,-0.8476,-0.8459,-0.8892,-0.9666,-1.0924,-1.1472,-1.186,-1.2219,-1.4038,-1.5393,0.0,-1.6917,-1.7584,0.0,0.0,-1.703,0.0,0.0,0.0,0.0,0.0,-1.6205,-1.6398,-1.6398,-1.6537,-1.6815,-1.7074,-1.7414,-1.7889,-1.822,-1.8542,-1.8794,-1.9133,-1.9257,-1.9277,-1.9559,-1.973,-1.9892,-2.0612,-2.0979,-2.1109,-2.1109,-2.1109,-2.1082,-2.0797,-1.9874,0.0,-2.004,0.0,0.0,0.0,0.0,0.0,-1.6569,0.0,0.0,0.0,0.0,0.0,0.0,0.0,0.0,0.0,0.0,0.0,0.0,0.0,-1.5945,0.0,0.0,-1.6651,0.0,0.0,0.0,0.0,0.0,0.0,0.0,0.0,0.0,0.0,0.0,-2.7961,-2.8966,-2.8984,-2.8984,-2.8984,-2.8709,-2.8498,-2.8397,-2.7811,-2.7453,-2.7334,-2.694,-2.6747,-2.6747,-2.6637,-2.6591,-2.6591,-2.6591,-2.6591,-2.6591,-2.6591,-2.6591,-2.6591,-2.6591,-2.6591,-2.6591,-2.6591,-2.6591,-2.6591,-0.8831,-0.8567,-0.8368,-0.8452,-0.8479,-0.8581,-0.8817,-1.0095,-1.1372,-1.2376,-1.3902,-1.5199,-1.604,-1.7193,-1.7892,0.0,0.0,-1.8786,-1.8809,0.0,-1.7588,0.0,0.0,-1.6795,0.0,0.0,0.0,-1.6688,-1.6688,-1.6821,-1.7086,-1.7346,-1.7473,-1.7562,-1.8746,-1.8968,-1.8466,-1.9678,-2.0159,-2.0185,-2.0465,-2.0766,-2.0992,0.0,-2.0618,-2.1109,-2.1109,0.0,0.0,-2.0134,-1.9796,0.0,0.0,0.0,0.0,0.0,0.0,0.0,0.0,0.0,0.0,-1.6132,0.0,0.0,0.0,0.0,-1.5891,0.0,0.0,0.0,0.0,-1.5891,0.0,0.0,0.0,0.0,0.0,0.0,0.0,0.0,0.0,0.0,0.0,0.0,0.0,0.0,-2.4441,-2.5377,-2.8792,-2.8984,-2.8984,-2.8984,-2.8975,-2.8783,-2.8397,-2.837,-2.815,-2.7803,-2.7343,-2.716,-2.7141,-2.6765,-2.6591,-2.6591,-2.6591,-2.6591,-2.6591,-2.6591,-2.6591,-2.6591,-2.6591,-2.6591,-2.6591,-2.6591,-2.6591,-2.6591,0.0,0.0,-0.8862,-0.8659,-0.8879,-0.9669,-1.1352,-1.2099,-1.3036,-1.4557,-1.5047,-1.5582,-1.6534,-1.7426,-1.825,0.0,0.0,-1.9376,-1.9212,-1.8663,0.0,0.0,0.0,-1.6935,0.0,0.0,0.0,0.0,-1.696,-1.7183,-1.7612,-1.7702,-1.7863,-1.8126,-1.8968,-1.9331,-1.9401,0.0,0.0,0.0,0.0,-2.0982,-2.1102,0.0,-2.0896,-2.1109,-2.1109,-2.1109,0.0,-2.075,-2.0295,-1.9828,-2.0148,-1.9637,-1.8976,-1.9276,-1.9146,-1.8802,0.0,0.0,-1.8621,-1.7359,0.0,0.0,0.0,0.0,0.0,0.0,0.0,0.0,0.0,0.0,0.0,0.0,0.0,0.0,0.0,0.0,0.0,0.0,0.0,0.0,0.0,0.0,0.0,0.0,-2.5185,0.0,-2.8897,-2.8984,-2.8984,-2.8984,-2.8984,-2.892,-2.8783,-2.8526,-2.8324,-2.8177,-2.7765,-2.7482,-2.7169,-2.704,-2.6839,-2.6591,-2.6591,-2.6591,-2.6591,-2.6591,-2.6591,-2.6591,-2.6591,-2.6591,-2.6591,-2.6591,-2.6591,-2.6591,-0.8947,-0.9147,-0.9205,-0.8852,-0.9507,-1.0774,-1.2848,-1.36,-1.4427,-1.5776,-1.6153,-1.6565,-1.7325,-1.8168,-1.8896,0.0,-1.9881,-1.9985,-1.9698,-1.9286,0.0,-1.9118,-1.8048,0.0,0.0,0.0,0.0,0.0,0.0,-1.7749,-1.8203,-1.8295,-1.8477,-1.8759,-1.9239,-1.9682,-2.0129,-2.0518,-2.0855,0.0,0.0,-2.1423,0.0,0.0,-2.1356,-2.1276,0.0,-2.1423,-2.1423,-2.1423,-2.0969,-2.0513,-2.1079,-2.0427,-1.9512,-2.0121,-1.9842,-1.9335,-1.9075,-1.9401,0.0,-1.8216,-1.8369,0.0,-1.7319,0.0,0.0,0.0,0.0,0.0,0.0,0.0,0.0,0.0,0.0,0.0,0.0,-1.4515,0.0,0.0,0.0,0.0,0.0,0.0,0.0,-2.249,-2.4633,-2.6525,0.0,-2.8737,-2.8984,-2.8984,-2.8984,-2.8984,-2.8984,-2.8728,-2.8599,-2.8599,-2.8187,-2.7856,-2.76,-2.7306,-2.704,-2.6793,-2.6646,-2.6591,-2.6591,-2.6591,-2.6591,-2.6591,-2.6591,-2.6591,-2.6591,-2.6591,-2.6591,-2.6591,-0.9401,-0.9586,-0.9614,-0.9244,-1.0455,-1.197,-1.3339,-1.4597,-1.5624,-1.6231,-1.7338,-1.8244,-1.8569,-1.9348,-1.9848,-1.9835,-2.0371,-2.053,-2.0312,-1.9717,0.0,0.0,-1.9453,-1.9347,-2.0217,0.0,0.0,0.0,0.0,-1.8545,-1.8864,-1.91,-1.9261,-1.9315,-1.9552,-2.0048,-2.0633,-2.067,-2.1182,-2.1984,-2.1997,-2.1997,-2.1991,-2.2017,-2.185,-2.1695,-2.1891,-2.1984,-2.1984,-2.1984,-2.1804,-2.1641,-2.1641,-2.1376,-2.1149,-2.1149,-2.1149,-2.0959,-2.0134,-1.9916,-1.9663,-1.8802,-1.8608,0.0,0.0,0.0,-1.7633,0.0,0.0,0.0,0.0,0.0,0.0,0.0,0.0,0.0,0.0,0.0,0.0,0.0,0.0,0.0,0.0,0.0,-1.7789,-2.1061,-2.2744,-2.4579,0.0,0.0,-2.8861,-2.8984,-2.8984,-2.8984,-2.8984,-2.8984,-2.8984,-2.8975,-2.8599,-2.8416,-2.837,-2.7591,-2.7224,-2.7187,-2.6784,-2.6619,-2.6619,-2.66,-2.6591,-2.6591,-2.6591,-2.6591,-2.6591,-2.6591,-2.6591,-2.6591,-0.9707,-1.0671,-1.1756,-1.2721,-1.3681,-1.4496,-1.5194,-1.6643,-1.7895,-1.8655,-1.903,-1.9549,-2.0325,-2.0611,-2.0736,-2.0777,-2.1295,0.0,0.0,0.0,0.0,-2.1507,-2.0449,-2.0194,-2.0875,-1.9946,0.0,-1.9498,0.0,0.0,-1.9498,-1.9364,-1.9385,-1.962,-1.9473,-1.9876,-2.0657,-2.0708,-2.1182,-2.2004,-2.2218,-2.2178,-2.2031,0.0,-2.2452,-2.2178,-2.2038,-2.1984,-2.1984,-2.1984,-2.1937,-2.1877,-2.1877,-2.1824,-2.1757,-2.1757,-2.1757,-2.1683,-2.1246,-2.1146,-2.0943,-1.9996,-1.973,-1.9598,0.0,0.0,0.0,0.0,0.0,0.0,0.0,0.0,0.0,0.0,0.0,0.0,0.0,0.0,0.0,-1.4322,0.0,0.0,0.0,0.0,-1.8132,-2.0002,-2.1447,-2.365,0.0,0.0,0.0,-2.8957,-2.8984,-2.8984,-2.8984,-2.8984,-2.8984,-2.8984,-2.8883,-2.8682,-2.8388,-2.8177,-2.7911,-2.7591,-2.7196,-2.7031,-2.7004,-2.671,-2.6591,-2.6591,-2.6591,-2.6591,-2.6591,-2.6591,-2.6591,-2.6591,-1.0812,-1.2608,-1.4261,-1.507,-1.621,-1.7037,-1.7216,-1.787,-1.8697,-1.961,-1.9769,-2.0206,-2.095,-2.1305,-2.1475,-2.151,-2.1797,0.0,-2.1382,0.0,0.0,-2.1601,-2.1208,-2.1182,-2.1483,-2.0831,0.0,-2.0103,0.0,0.0,-1.9675,-1.9575,-1.9626,-1.9924,0.0,-1.9946,-2.0702,-2.1089,-2.161,-2.2198,-2.2492,-2.2512,0.0,-2.2739,-2.2759,-2.2592,-2.2425,-2.2372,-2.2372,-2.2372,-2.2285,-2.2171,-2.2171,-2.2084,-2.1984,-2.1984,-2.1984,-2.1951,-2.179,-2.1737,-2.1793,-2.1897,-2.1339,-2.0793,-2.0847,-2.013,-1.9459,0.0,-1.9071,-1.8743,0.0,0.0,0.0,0.0,0.0,0.0,0.0,0.0,0.0,0.0,-1.5198,0.0,0.0,-1.6561,-1.8125,-1.8768,-2.0187,-2.2097,0.0,0.0,0.0,-2.8168,-2.8709,-2.8984,-2.8984,-2.8984,-2.8984,-2.8984,-2.8984,-2.8865,-2.8645,-2.8471,-2.8269,-2.8012,-2.7666,-2.7435,-2.7454,-2.7004,-2.6848,-2.683,-2.6655,-2.6591,-2.6591,-2.6591,-2.6591,-2.6591,-1.2467,-1.4726,-1.6485,-1.6485,-1.8078,-1.9268,-1.9032,-1.8816,-1.897,-1.9795,-2.0163,-2.0541,-2.1058,-2.1674,-2.2024,-2.1991,0.0,-2.1912,-2.13,-2.1806,-2.1859,-2.1352,-2.1832,-2.2098,-2.2098,-2.18,0.0,0.0,0.0,0.0,-1.9748,-1.9715,-1.9898,-2.0221,0.0,0.0,0.0,-2.169,-2.2211,-2.2498,-2.2759,-2.2928,-2.2928,-2.2928,-2.2928,-2.2928,-2.2928,-2.2928,-2.2928,-2.2928,-2.2821,-2.2741,-2.2741,-2.2565,-2.2362,-2.2362,-2.223,-2.2091,-2.2051,-2.2044,-2.2361,-2.3543,-2.276,-2.1859,-2.2511,-2.17,-2.0648,-2.0427,-1.9953,-1.9796,0.0,0.0,0.0,0.0,0.0,0.0,0.0,0.0,0.0,0.0,0.0,0.0,0.0,0.0,-1.7793,-1.7527,-1.8816,0.0,0.0,0.0,0.0,-2.7407,-2.8434,-2.8984,-2.8984,-2.8984,-2.8984,-2.8984,-2.8984,-2.8984,-2.8975,-2.8627,-2.8471,-2.8452,-2.8031,-2.7904,-2.7877,-2.7416,-2.7224,-2.7141,-2.6802,-2.6637,-2.6591,-2.6591,-2.6591,-2.6591,-1.4373,-1.5758,-1.6915,-1.6915,-1.8548,-1.9955,-2.0175,-2.0426,-2.0722,-2.1137,-2.147,-2.1719,-2.1838,-2.2105,-2.2245,-2.2004,-2.2432,0.0,0.0,0.0,0.0,-2.2571,-2.2686,-2.2706,-2.2706,-2.2398,-2.1991,0.0,0.0,0.0,-2.0106,-1.9874,-1.9947,0.0,0.0,0.0,-2.1501,-2.2078,0.0,-2.2786,-2.2908,-2.2928,-2.2928,-2.2928,-2.2928,-2.2928,-2.2928,-2.2928,-2.2928,-2.2928,-2.3631,-2.4523,-2.4523,-2.4487,-2.4444,-2.4444,-2.3642,-2.2652,-2.2412,-2.2345,-2.2351,-2.2367,-2.2141,-2.1963,-2.2099,-2.2818,-2.3028,-2.1636,-2.2194,-2.2298,-2.0358,0.0,0.0,0.0,0.0,0.0,0.0,0.0,0.0,0.0,0.0,0.0,0.0,0.0,0.0,0.0,0.0,0.0,0.0,0.0,0.0,0.0,-2.8874,0.0,0.0,0.0,-2.8984,-2.8984,-2.8984,-2.8984,-2.8984,-2.8911,-2.8883,-2.8856,-2.8462,-2.8287,-2.8251,-2.7829,-2.7528,-2.7169,-2.7105,-2.6875,-2.6591,-2.6591,-2.6591,-2.6591,-1.5988,-1.7114,-1.8197,-1.8512,-1.9613,-2.0649,-2.1125,-2.1673,-2.1912,-2.1548,-2.1793,-2.1951,-2.1951,-2.2337,-2.2592,-2.2452,-2.2699,-2.2806,-2.2659,-2.2779,-2.2928,-2.2928,-2.2928,0.0,-2.2928,-2.2719,-2.2291,-2.1614,0.0,0.0,-2.0227,-2.0087,0.0,-2.0173,0.0,-2.0655,0.0,0.0,0.0,-2.2645,-2.2799,-2.2928,-2.2928,-2.2928,-2.2928,-2.2928,-2.2928,-2.2928,-2.2928,-2.2928,-2.3331,-2.3938,-2.3938,-2.3938,-2.3938,-2.3938,-2.3938,-2.3971,-2.3816,-2.4298,-2.4982,-2.5626,-2.4547,-2.3516,-2.4291,-2.3709,-2.2783,-2.2,-2.2926,-2.3332,-2.1511,-2.0242,0.0,0.0,0.0,0.0,0.0,0.0,0.0,0.0,0.0,0.0,0.0,0.0,0.0,0.0,0.0,0.0,0.0,0.0,0.0,0.0,0.0,0.0,-2.8984,0.0,-2.8984,-2.8984,-2.8984,-2.8984,-2.8984,-2.8984,-2.8984,-2.8975,-2.8783,-2.87,-2.8663,-2.826,-2.7847,-2.7537,-2.7537,-2.7298,-2.6894,-2.6894,-2.6765,-2.6591,-1.7627,-1.8559,-1.9499,-2.0089,-2.0765,-2.1365,-2.1854,-2.2468,-2.2631,-2.1904,-2.1975,-2.2113,-2.2113,-2.2583,-2.2928,-2.2928,-2.2928,-2.2928,-2.2928,-2.2928,-2.2928,-2.2928,-2.2928,-2.2928,-2.2928,-2.2928,-2.2532,0.0,0.0,0.0,0.0,0.0,0.0,0.0,0.0,0.0,0.0,0.0,-2.2245,-2.2532,-2.2766,-2.2928,-2.2928,-2.2928,-2.2928,-2.2928,-2.2928,-2.2928,-2.2928,-2.2928,-2.3133,-2.3331,-2.3331,-2.3331,-2.3331,-2.3331,-2.3938,-2.4535,-2.4535,-2.533,-2.6588,-2.7998,-2.6542,-2.5026,-2.6454,-2.5139,-2.3386,-2.2672,-2.339,-2.3771,-2.2679,-2.1773,0.0,0.0,0.0,0.0,0.0,0.0,0.0,0.0,0.0,0.0,0.0,0.0,0.0,0.0,0.0,0.0,-2.2138,0.0,0.0,0.0,0.0,-2.8599,-2.854,0.0,-2.8984,-2.8984,-2.8984,-2.8984,-2.8984,-2.8984,-2.8984,-2.8984,-2.8984,-2.8984,-2.8957,-2.8645,-2.8278,-2.7902,-2.7902,-2.7655,-2.7353,-2.7353,-2.705,-2.671,-1.9628,-1.9807,-2.0101,-2.0784,-2.1398,-2.1854,-2.188,-2.2468,-2.2846,-2.2786,-2.2806,-2.2826,-2.2826,-2.2846,-2.2928,-2.2928,-2.2928,-2.2928,-2.2928,-2.2928,-2.2928,-2.2928,-2.2928,-2.2928,-2.2928,-2.2928,-2.2559,0.0,0.0,-2.1306,0.0,0.0,0.0,0.0,0.0,0.0,0.0,-2.2352,-2.2545,-2.2887,-2.2921,-2.2928,-2.2928,-2.2928,-2.2928,-2.2928,-2.2928,-2.2928,-2.2928,-2.2928,-2.3734,-2.4805,-2.4805,-2.4805,-2.4805,-2.4805,-2.4006,-2.3133,-2.3133,-2.3195,-2.3597,-2.5075,-2.5188,-2.536,-2.6733,-2.7851,-2.781,-2.4937,-2.4189,-2.3837,-2.2899,-2.3138,-2.3024,0.0,0.0,0.0,0.0,0.0,0.0,0.0,0.0,0.0,0.0,-1.8514,0.0,0.0,-1.803,0.0,0.0,0.0,0.0,-2.6677,-2.7176,-2.7231,-2.7006,-2.8317,-2.8984,-2.8984,-2.8984,-2.8984,-2.8984,-2.8984,-2.8984,-2.8984,-2.8984,-2.8984,-2.8975,-2.8948,-2.8691,-2.8333,-2.8333,-2.8077,-2.7767,-2.7767,-2.7519,-2.7123,-2.0545,-2.063,-2.0784,-2.1404,-2.1748,-2.2013,-2.2455,-2.2717,-2.2928,-2.2928,-2.2928,-2.2928,-2.2928,-2.2928,-2.2928,-2.2928,-2.2928,-2.2928,-2.2928,-2.2928,-2.2928,-2.2928,-2.2928,-2.2928,-2.2928,-2.2928,-2.2659,0.0,0.0,0.0,0.0,0.0,0.0,0.0,0.0,-2.2205,-2.2432,-2.2612,-2.2752,-2.2928,-2.2928,-2.2928,-2.2928,-2.2928,-2.2928,-2.2928,-2.2928,-2.2928,-2.2928,-2.2928,-2.3263,-2.3734,-2.3734,-2.3734,-2.3734,-2.3734,-2.3938,-2.4135,-2.4135,-2.4798,-2.5592,-2.6121,-2.6254,-2.6388,-2.698,-2.7585,-2.7354,-2.5241,-2.4562,-2.4196,-2.3933,-2.3454,-2.3136,-2.314,0.0,0.0,0.0,0.0,0.0,0.0,0.0,0.0,0.0,0.0,0.0,0.0,0.0,0.0,0.0,0.0,0.0,-2.6415,0.0,-2.8202,-2.8144,-2.8678,-2.8984,-2.8984,-2.8984,-2.8984,-2.8984,-2.8984,-2.8984,-2.8984,-2.8984,-2.8984,-2.8984,-2.8984,-2.8893,-2.8746,-2.8746,-2.8498,-2.8141,-2.8141,-2.7884,-2.7583,-2.1247,-2.126,-2.1484,-2.21,-2.2214,-2.2347,-2.2832,-2.2928,-2.2928,-2.2928,-2.2928,-2.2928,-2.2928,-2.2928,-2.2928,-2.2928,-2.2928,-2.2928,-2.2928,-2.2928,-2.2928,-2.2928,-2.2928,0.0,-2.2928,-2.2928,-2.2759,-2.2545,-2.2465,0.0,0.0,0.0,0.0,0.0,-2.2331,-2.2465,-2.2565,-2.2772,-2.2928,-2.2928,-2.2928,-2.2928,-2.2928,-2.2928,-2.2928,-2.2928,-2.2928,-2.2928,-2.2928,-2.2928,-2.2928,-2.2928,-2.2928,-2.2928,-2.2928,-2.2928,-2.3604,-2.4406,-2.4406,-2.5128,-2.5987,-2.6388,-2.6455,-2.6588,-2.698,-2.7445,-2.732,-2.5927,-2.5419,-2.507,-2.4804,-2.4287,-2.3846,-2.3862,0.0,0.0,0.0,0.0,0.0,0.0,-2.0288,-2.0402,-2.1646,-2.0242,0.0,0.0,0.0,0.0,0.0,0.0,0.0,0.0,0.0,0.0,-2.8336,-2.8801,-2.8984,-2.8984,-2.8984,-2.8984,-2.8984,-2.8984,-2.8984,-2.8984,-2.8984,-2.8984,-2.8984,-2.8984,-2.8984,-2.8984,-2.8984,-2.881,-2.8563,-2.8563,-2.8306,-2.8005,-2.1761,-2.188,-2.2107,-2.2737,-2.2859,-2.2859,-2.2928,-2.2928,-2.2928,-2.2928,-2.2928,-2.2928,-2.2928,-2.2928,-2.2928,-2.2928,-2.2928,-2.2928,-2.2928,-2.2928,-2.2928,0.0,0.0,-2.2928,-2.2928,-2.2928,-2.2928,-2.2859,0.0,0.0,-2.2405,0.0,-2.2138,-2.2412,-2.2418,-2.2579,-2.2859,-2.2928,-2.2928,-2.2928,-2.2928,-2.2928,-2.2928,-2.2928,-2.2928,-2.2928,-2.2928,-2.2928,-2.2928,-2.2928,-2.2928,-2.2928,-2.2928,-2.2928,-2.2928,-2.2928,-2.2928,-2.2934,-2.2934,-2.2928,-2.3263,-2.4677,-2.5008,-2.5405,-2.6781,-2.8254,-2.8863,-2.7387,-2.7047,-2.6647,-2.5263,-2.5911,-2.5928,-2.3847,0.0,0.0,0.0,0.0,0.0,0.0,-1.9733,-1.9971,-2.1646,-2.1505,0.0,0.0,0.0,0.0,0.0,0.0,0.0,-2.6722,-2.7075,0.0,-2.6805,-2.8263,-2.8984,-2.8984,-2.8984,-2.8984,-2.8984,-2.8984,-2.8984,-2.8984,-2.8984,-2.8984,-2.8984,-2.8984,-2.8984,-2.8984,-2.8984,-2.8975,-2.8975,-2.8975,-2.8728,-2.8388,-2.2569,-2.2583,-2.2616,-2.2846,-2.2928,-2.2928,-2.2928,-2.2928,-2.2928,-2.2928,-2.2928,-2.2928,-2.2928,-2.2928,-2.2928,0.0,-2.2928,-2.2928,0.0,-2.2928,-2.2928,-2.2928,-2.2928,-2.2928,-2.2928,-2.2928,-2.2928,-2.2928,0.0,0.0,0.0,-2.2625,-2.2632,-2.2719,-2.2719,-2.2772,-2.2928,-2.2928,-2.2928,-2.2928,-2.2928,-2.2928,-2.2928,-2.2928,-2.2928,-2.2928,-2.2928,-2.2928,-2.2928,-2.2928,-2.2928,-2.2928,-2.2928,-2.2928,-2.2928,-2.2928,-2.2928,-2.2928,-2.2928,-2.2928,-2.2996,-2.3468,-2.427,-2.5135,-2.5599,-2.6002,-2.627,-2.5801,-2.4933,-2.4128,-2.3665,-2.3854,-2.3777,-2.2842,-2.2667,0.0,0.0,0.0,0.0,0.0,-2.1729,-2.2348,-2.2911,-2.2522,0.0,0.0,0.0,0.0,0.0,0.0,0.0,0.0,-2.7861,0.0,-2.829,-2.8792,-2.8984,-2.8984,-2.8984,-2.8984,-2.8984,-2.8984,-2.8984,-2.8984,-2.8984,-2.8984,-2.8984,-2.8984,-2.8984,-2.8984,-2.8984,-2.8984,-2.8984,-2.8984,-2.8902,-2.8792,-2.3013,-2.304,-2.3073,-2.3187,-2.3276,-2.3276,-2.3276,-2.3276,-2.3276,-2.3276,-2.3276,-2.3276,-2.3276,-2.3106,0.0,-2.2941,-2.2928,-2.2928,-2.2928,-2.2928,-2.2928,-2.2928,-2.2928,-2.2928,-2.2928,-2.2928,0.0,-2.2928,-2.2928,-2.2928,-2.2928,-2.2928,-2.2928,-2.2928,-2.2928,-2.2928,-2.2928,-2.2928,-2.2928,-2.2928,-2.2928,-2.2928,-2.2928,-2.2928,-2.2928,-2.2928,-2.2928,-2.2928,-2.2928,-2.2928,-2.2928,-2.2928,-2.2928,-2.2928,-2.2928,-2.2928,-2.2928,-2.2928,-2.2928,-2.2928,-2.2928,-2.2928,-2.3536,-2.4338,-2.4873,-2.4873,-2.4873,-2.494,-2.4203,-2.34,-2.2996,-2.3331,-2.3331,-2.231,-2.2563,-2.2511,-2.1431,0.0,0.0,0.0,0.0,0.0,0.0,-2.3201,-2.3305,0.0,0.0,0.0,0.0,0.0,0.0,-2.7579,-2.8531,-2.8984,-2.8984,-2.8984,-2.8984,-2.8984,-2.8984,-2.8984,-2.8984,-2.8984,-2.8984,-2.8984,-2.8984,-2.8984,-2.8984,-2.8984,-2.8984,-2.8984,-2.8984,-2.8984,-2.8984,-2.8984,-2.8984,-2.8984,-2.33,-2.3354,-2.3447,-2.3721,-2.3774,-2.3774,-2.3774,-2.3774,-2.3774,-2.3774,-2.3774,-2.3774,-2.3774,-2.3521,-2.324,-2.2946,0.0,0.0,-2.2928,-2.2928,-2.2928,-2.2928,-2.2928,-2.2928,-2.2928,-2.2928,-2.2928,-2.2928,-2.2928,-2.2928,-2.2928,-2.2928,-2.2928,-2.2928,-2.2928,-2.2928,-2.2928,-2.2928,-2.2928,-2.2928,-2.2928,-2.2928,-2.2928,-2.2928,-2.2928,-2.2928,-2.2928,-2.2928,-2.2928,-2.2928,-2.2928,-2.2928,-2.2928,-2.2928,-2.2928,-2.2928,-2.2928,-2.2928,-2.2928,-2.2928,-2.2928,-2.2928,-2.2928,-2.3263,-2.4542,-2.4602,-2.4467,-2.4805,-2.4602,-2.4067,-2.3065,-2.4006,-2.4196,-2.2173,-2.3256,-2.3584,-2.1622,0.0,0.0,0.0,0.0,0.0,-2.2733,-2.3733,-2.5116,0.0,0.0,0.0,0.0,0.0,-2.5105,-2.8897,-2.8984,-2.8984,-2.8984,-2.8984,-2.8984,-2.8984,-2.8984,-2.8984,-2.8984,-2.8984,-2.8984,-2.8984,-2.8984,-2.8984,-2.8984,-2.8984,-2.8984,-2.8984,-2.8984,-2.8984,-2.8984,-2.8984,-2.8984,-2.8984,-2.3654,-2.3667,-2.3688,-2.3761,-2.3774,-2.3774,-2.3774,-2.3774,-2.3774,-2.3774,-2.3774,-2.3774,-2.3774,-2.3708,-2.3634,-2.3561,-2.3202,-2.2928,-2.2928,-2.2928,-2.2928,-2.2928,-2.2928,-2.2928,-2.2928,-2.2928,-2.2928,-2.2928,-2.2928,-2.2928,-2.2928,-2.2928,-2.2928,-2.2928,-2.2928,-2.2928,-2.2928,-2.2928,-2.2928,-2.2928,-2.2928,-2.2928,-2.2928,-2.2928,-2.2928,-2.2928,-2.2928,-2.2928,-2.2928,-2.2928,-2.2928,-2.2928,-2.2928,-2.2928,-2.2928,-2.2928,-2.2928,-2.2928,-2.2928,-2.2928,-2.2928,-2.2928,-2.2928,-2.2996,-2.3331,-2.3331,-2.3331,-2.34,-2.3331,-2.3201,-2.2928,-2.3195,-2.3126,-2.231,-2.231,-2.251,-2.2832,-2.2909,0.0,0.0,-2.4247,-2.4123,-2.3745,-2.4581,-2.4858,0.0,0.0,0.0,-2.6873,-2.6084,-2.6626,-2.8907,-2.8984,-2.8984,-2.8984,-2.8984,-2.8984,-2.8984,-2.8984,-2.8984,-2.8984,-2.8984,-2.8984,-2.8984,-2.8984,-2.8984,-2.8984,-2.8984,-2.8984,-2.8984,-2.8984,-2.8984,-2.8984,-2.8984,-2.8984,-2.8984,-2.3941,-2.3968,-2.4008,-2.4142,-2.4168,-2.4168,-2.4168,-2.4168,-2.4168,-2.4168,-2.4168,-2.4168,-2.4168,-2.4048,-2.3968,-2.3968,-2.342,-2.3073,-2.3073,-2.2939,-2.2928,-2.2928,-2.2928,-2.2928,-2.2928,-2.2928,-2.2928,-2.2928,-2.2928,-2.2928,-2.2928,-2.2928,-2.2928,-2.2928,-2.2928,-2.2928,-2.2928,-2.2928,-2.2928,-2.2928,-2.2928,-2.2928,-2.2928,-2.2928,-2.2928,-2.2928,-2.2928,-2.2928,-2.2928,-2.2928,-2.2928,-2.2928,-2.2928,-2.2928,-2.2928,-2.2928,-2.2928,-2.2928,-2.2928,-2.2928,-2.2928,-2.2928,-2.2928,-2.2928,-2.2928,-2.2791,-2.2654,-2.2654,-2.2654,-2.2654,-2.2654,-2.2791,-2.2791,-2.2379,-2.1952,-2.1875,-2.2601,-2.2409,-2.2937,-2.4836,-2.5048,-2.5145,-2.5411,-2.5743,-2.5582,-2.4573,-2.5674,0.0,-2.7088,-2.7756,-2.8385,-2.8984,-2.8984,-2.8984,-2.8984,-2.8984,-2.8984,-2.8984,-2.8984,-2.8984,-2.8984,-2.8984,-2.8984,-2.8984,-2.8984,-2.8984,-2.8984,-2.8984,-2.8984,-2.8984,-2.8984,-2.8984,-2.8984,-2.8984,-2.8984,-2.8984,-2.4222,-2.4269,-2.4349,-2.4596,-2.4636,-2.4636,-2.4636,-2.4636,-2.4636,-2.4636,-2.4636,-2.4636,-2.4636,-2.4416,-2.4269,-2.4269,-2.3774,-2.342,-2.3333,-2.308,-2.2913,-2.2934,-2.2928,-2.2928,-2.2928,-2.2928,-2.2928,-2.2928,-2.2928,-2.2928,-2.2928,-2.2928,-2.2928,-2.2928,-2.2928,-2.2928,-2.2928,-2.2928,-2.2928,-2.2928,-2.2928,-2.2928,-2.2928,-2.2928,-2.2928,-2.2928,-2.2928,-2.2928,-2.2928,-2.2928,-2.2928,-2.2928,-2.2928,-2.2928,-2.2928,-2.2928,-2.2928,-2.2928,-2.2928,-2.2928,-2.2928,-2.2928,-2.2928,-2.2928,-2.2928,-2.2654,-2.2379,-2.2379,-2.2379,-2.2379,-2.2379,-2.2654,-2.2764,-2.233,-2.1841,-2.1657,-2.1985,0.0,-2.2225,-2.447,-2.4738,-2.5263,-2.6588,-2.6588,-2.6422,-2.6291,-2.751,-2.828,-2.8165,-2.9511,-2.9947,-2.9186,-2.9104,-2.9039,-2.8984,-2.8984,-2.8984,-2.8984,-2.8984,-2.8984,-2.8984,-2.8984,-2.8984,-2.8984,-2.8984,-2.8984,-2.8984,-2.8984,-2.8984,-2.8984,-2.8984,-2.8984,-2.8984,-2.8984,-2.8984,-2.8984,-2.4563,-2.4569,-2.4583,-2.4556,-2.4636,-2.4636,-2.4636,-2.4636,-2.4636,-2.4636,-2.4636,-2.4636,-2.4636,-2.4596,-2.4569,-2.4569,-2.4262,-2.3855,-2.336,-2.328,-2.314,-2.2941,-2.2928,-2.2928,-2.2928,-2.2928,-2.2928,-2.2928,-2.2928,-2.2928,-2.2928,-2.2928,-2.2928,-2.2928,-2.2928,-2.2928,-2.2928,-2.2928,-2.2928,-2.2928,-2.2928,-2.2928,-2.2928,-2.2928,-2.2928,-2.2928,-2.2928,-2.2928,-2.2928,-2.2928,-2.2928,-2.2928,-2.2928,-2.2928,-2.2928,-2.2928,-2.2928,-2.2928,-2.2928,-2.2928,-2.2928,-2.2928,-2.2928,-2.2928,-2.2928,-2.2866,-2.2791,-2.2791,-2.2791,-2.2791,-2.2791,-2.2859,-2.2699,-2.2138,-2.2122,-2.2437,-2.321,0.0,-2.4036,-2.5689,-2.5883,-2.5607,-2.4962,-2.5949,-2.6244,-2.5331,-2.767,-2.8956,-2.8648,-2.9923,-3.0488,-3.003,-2.9663,-2.9324,-2.8984,-2.8984,-2.8984,-2.8984,-2.8984,-2.8984,-2.8984,-2.8984,-2.8984,-2.8984,-2.8984,-2.8984,-2.8984,-2.8984,-2.8984,-2.8984,-2.8984,-2.8984,-2.8984,-2.8984,-2.8984,-2.8984,-2.4636,-2.4636,-2.4636,-2.4636,-2.4636,-2.4636,-2.4636,-2.4636,-2.4636,-2.4636,-2.4636,-2.4636,-2.4636,-2.4636,-2.4636,-2.4636,-2.4516,-2.4255,-2.3828,-2.3654,-2.3427,-2.3126,-2.3113,-2.3033,-2.2934,-2.2928,-2.2928,-2.2928,-2.2928,-2.2928,-2.2928,-2.2928,-2.2928,-2.2928,-2.2928,-2.2928,-2.2928,-2.2928,-2.2928,-2.2928,-2.2928,-2.2928,-2.2928,-2.2928,-2.2928,-2.2928,-2.2928,-2.2928,-2.2928,-2.2928,-2.2928,-2.2928,-2.2928,-2.2928,-2.2928,-2.2928,-2.2928,-2.2928,-2.2928,-2.2928,-2.2928,-2.2928,-2.2928,-2.2928,-2.2928,-2.2928,-2.2859,-2.2654,-2.2722,-2.2859,-2.2654,-2.2722,-2.2841,-2.2498,-2.2284,0.0,-2.3109,-2.3008,-2.3507,-2.5308,-2.548,-2.5607,-2.5875,-2.6522,-2.6647,-2.6188,-2.8065,-2.9196,-2.9025,-3.0389,-3.0919,-3.0534,-3.0121,-2.9709,-2.9305,-2.9296,-2.9195,-2.8984,-2.8984,-2.8984,-2.8984,-2.8984,-2.8984,-2.8984,-2.8984,-2.8984,-2.8984,-2.8984,-2.8984,-2.8984,-2.8984,-2.8984,-2.8984,-2.8984,-2.8984,-2.8984,-2.4636,-2.4636,-2.4636,-2.4636,-2.4636,-2.4636,-2.4636,-2.4636,-2.4636,-2.4636,-2.4636,-2.4636,-2.4636,-2.4636,-2.4636,-2.4636,-2.4636,-2.4543,-2.4322,-2.4095,-2.3814,-2.3447,-2.3367,-2.318,-2.2941,-2.2928,-2.2928,-2.2928,-2.2928,-2.2928,-2.2928,-2.2928,-2.2928,-2.2928,-2.2928,-2.2928,-2.2928,-2.2928,-2.2928,-2.2928,-2.2928,-2.2928,-2.2928,-2.2928,-2.2928,-2.2928,-2.2928,-2.2928,-2.2928,-2.2928,-2.2928,-2.2928,-2.2928,-2.2928,-2.2928,-2.2928,-2.2928,-2.2928,-2.2928,-2.2928,-2.2928,-2.2928,-2.2928,-2.2928,-2.2928,-2.2928,-2.2791,-2.2516,-2.2722,-2.2791,-2.2516,-2.2722,-2.2819,-2.2679,0.0,-2.2298,-2.268,-2.2385,-2.2746,-2.4349,-2.4805,-2.527,-2.6054,-2.6714,-2.698,-2.6655,-2.8262,-2.9273,-2.9273,-3.0649,-3.124,-3.0937,-3.0451,-3.0048,-2.9718,-2.9718,-2.9516,-2.9122,-2.9122,-2.9076,-2.8984,-2.8984,-2.8984,-2.8984,-2.8984,-2.8984,-2.8984,-2.8984,-2.8984,-2.8984,-2.8984,-2.8984,-2.8984,-2.8984,-2.8984,-2.8984,-2.4636,-2.4636,-2.4636,-2.4636,-2.4636,-2.4636,-2.4636,-2.4636,-2.4636,-2.4636,-2.4636,-2.4636,-2.4636,-2.4636,-2.4636,-2.4636,-2.4636,-2.4623,-2.4609,-2.4583,-2.4322,-2.3761,-2.3474,-2.318,-2.2941,-2.2928,-2.2928,-2.2928,-2.2928,-2.2928,-2.2928,-2.2928,-2.2928,-2.2928,-2.2928,-2.2928,-2.2928,-2.2928,-2.2928,-2.2928,-2.2928,-2.2928,-2.2928,-2.2928,-2.2928,-2.2928,-2.2928,-2.2928,-2.2928,-2.2928,-2.2928,-2.2928,-2.2928,-2.2928,-2.2928,-2.2928,-2.2928,-2.2928,-2.2928,-2.2928,-2.2928,-2.2928,-2.2928,-2.2928,-2.2928,-2.2928,-2.2859,-2.2859,-2.2866,-2.2859,-2.2859,-2.2866,-2.2753,-2.2138,0.0,0.0,-2.2118,-2.2485,-2.2881,-2.3058,-2.4203,-2.4542,-2.3331,-2.5584,-2.6588,-2.527,-2.7734,-2.9273,-2.9273,-3.0649,-3.1368,-3.1332,-3.0598,-3.0185,-3.0158,-3.0158,-2.9947,-2.9586,-2.9586,-2.9333,-2.8984,-2.8984,-2.8984,-2.8984,-2.8984,-2.8984,-2.8984,-2.8984,-2.8984,-2.8984,-2.8984,-2.8984,-2.8984,-2.8984,-2.8984,-2.8984,-2.4636,-2.4636,-2.4636,-2.4636,-2.4636,-2.4636,-2.4636,-2.4636,-2.4636,-2.4636,-2.4636,-2.4636,-2.4636,-2.4636,-2.4636,-2.4636,-2.4636,-2.4636,-2.4636,-2.4636,-2.4456,-2.4055,-2.3581,-2.3273,-2.3153,-2.2966,-2.2928,-2.2928,-2.2928,-2.2928,-2.2928,-2.2928,-2.2928,-2.2928,-2.2928,-2.2928,-2.2928,-2.2928,-2.2928,-2.2928,-2.2928,-2.2928,-2.2928,-2.2928,-2.2928,-2.2928,-2.2928,-2.2928,-2.2928,-2.2928,-2.2928,-2.2928,-2.2928,-2.2928,-2.2928,-2.2928,-2.2928,-2.2928,-2.2928,-2.2928,-2.2928,-2.2928,-2.2928,-2.2928,-2.2928,-2.2928,-2.2928,-2.2928,-2.2928,-2.2928,-2.2928,-2.2928,-2.2786,-2.2565,0.0,-2.2854,-2.2559,-2.2787,-2.2928,-2.2928,-2.34,-2.3802,-2.4135,-2.5203,-2.6337,-2.7602,-2.8666,-2.9665,-3.0584,-3.1111,-3.1377,-3.1377,-3.1084,-3.0809,-3.0571,-3.0561,-3.036,-2.9956,-2.9956,-2.9745,-2.9342,-2.9342,-2.9214,-2.8984,-2.8984,-2.8984,-2.8984,-2.8984,-2.8984,-2.8984,-2.8984,-2.8984,-2.8984,-2.8984,-2.8984,-2.8984,-2.4636,-2.4636,-2.4636,-2.4636,-2.4636,-2.4636,-2.4636,-2.4636,-2.4636,-2.4636,-2.4636,-2.4636,-2.4636,-2.4636,-2.4636,-2.4636,-2.4636,-2.4636,-2.4636,-2.4636,-2.4509,-2.4215,-2.3814,-2.3514,-2.3327,-2.3113,-2.2959,-2.2928,-2.2928,-2.2928,-2.2928,-2.2928,-2.2928,-2.2928,-2.2928,-2.2928,-2.2928,-2.2928,-2.2928,-2.2928,-2.2928,-2.2928,-2.2928,-2.2928,-2.2928,-2.2928,-2.2928,-2.2928,-2.2928,-2.2928,-2.2928,-2.2928,-2.2928,-2.2928,-2.2928,-2.2928,-2.2928,-2.2928,-2.2928,-2.2928,-2.2928,-2.2928,-2.2928,-2.2928,-2.2928,-2.2928,-2.2928,-2.2928,-2.2928,-2.2928,-2.2928,-2.2928,-2.2928,-2.2928,-2.2928,-2.2928,-2.2928,-2.2928,-2.2928,-2.2928,-2.2928,-2.3263,-2.427,-2.4738,-2.5808,-2.78,-2.8806,-2.9926,-3.1313,-3.1377,-3.1377,-3.1377,-3.1377,-3.1249,-3.0974,-3.0974,-3.0781,-3.0387,-3.0387,-3.0167,-2.9773,-2.9773,-2.9544,-2.9168,-2.9168,-2.9094,-2.8984,-2.8984,-2.8984,-2.8984,-2.8984,-2.8984,-2.8984,-2.8984,-2.8984,-2.8984,-2.4636,-2.4636,-2.4636,-2.4636,-2.4636,-2.4636,-2.4636,-2.4636,-2.4636,-2.4636,-2.4636,-2.4636,-2.4636,-2.4636,-2.4636,-2.4636,-2.4636,-2.4636,-2.4636,-2.4636,-2.4509,-2.4215,-2.4202,-2.3928,-2.3347,-2.3327,-2.318,-2.2934,-2.2928,-2.2928,-2.2928,-2.2928,-2.2928,-2.2928,-2.2928,-2.2928,-2.2928,-2.2928,-2.2928,-2.2928,-2.2928,-2.2928,-2.2928,-2.2928,-2.2928,-2.2928,-2.2928,-2.2928,-2.2928,-2.2928,-2.2928,-2.2928,-2.2928,-2.2928,-2.2928,-2.2928,-2.2928,-2.2928,-2.2928,-2.2928,-2.2928,-2.2928,-2.2928,-2.2928,-2.2928,-2.2928,-2.2928,-2.2928,-2.2928,-2.2928,-2.2928,-2.2928,-2.2928,-2.2928,-2.2928,-2.2928,-2.2928,-2.2928,-2.2928,-2.2928,-2.2928,-2.2928,-2.2928,-2.4135,-2.5008,-2.5008,-2.7668,-2.9926,-3.1313,-3.1377,-3.1377,-3.1377,-3.1377,-3.1377,-3.1377,-3.1377,-3.1176,-3.0791,-3.0791,-3.0589,-3.0204,-3.0204,-2.9975,-2.9571,-2.9571,-2.9351,-2.8984,-2.8984,-2.8984,-2.8984,-2.8984,-2.8984,-2.8984,-2.8984,-2.8984,-2.8984,-2.4636,-2.4636,-2.4636,-2.4636,-2.4636,-2.4636,-2.4636,-2.4636,-2.4636,-2.4636,-2.4636,-2.4636,-2.4636,-2.4636,-2.4636,-2.4636,-2.4636,-2.4636,-2.4636,-2.4636,-2.4596,-2.4509,-2.4309,-2.4122,-2.3948,-2.3541,-2.328,-2.3187,-2.2966,-2.2928,-2.2928,-2.2928,-2.2928,-2.2928,-2.2928,-2.2928,-2.2928,-2.2928,-2.2928,-2.2928,-2.2928,-2.2928,-2.2928,-2.2928,-2.2928,-2.2928,-2.2928,-2.2928,-2.2928,-2.2928,-2.2928,-2.2928,-2.2928,-2.2928,-2.2928,-2.2928,-2.2928,-2.2928,-2.2928,-2.2928,-2.2928,-2.2928,-2.2928,-2.2928,-2.2928,-2.2928,-2.2928,-2.2928,-2.2928,-2.2928,-2.2928,-2.2928,-2.2928,-2.2928,-2.2928,-2.2928,-2.2928,-2.2928,-2.2928,-2.2928,-2.2928,-2.2928,-2.2928,-2.3263,-2.3938,-2.494,-2.7668,-2.9469,-2.9926,-3.0852,-3.1377,-3.1377,-3.1377,-3.1377,-3.1377,-3.1377,-3.1322,-3.1203,-3.1203,-3.0992,-3.0616,-3.0616,-3.0396,-3.0011,-3.0011,-2.9782,-2.9397,-2.9397,-2.9232,-2.8984,-2.8984,-2.8984,-2.8984,-2.8984,-2.8984,-2.8984,-2.4636,-2.4636,-2.4636,-2.4636,-2.4636,-2.4636,-2.4636,-2.4636,-2.4636,-2.4636,-2.4636,-2.4636,-2.4636,-2.4636,-2.4636,-2.4636,-2.4636,-2.4636,-2.4636,-2.4636,-2.4636,-2.4636,-2.4469,-2.4322,-2.4209,-2.3855,-2.3561,-2.3327,-2.314,-2.2986,-2.2928,-2.2928,-2.2928,-2.2928,-2.2928,-2.2928,-2.2928,-2.2928,-2.2928,-2.2928,-2.2928,-2.2928,-2.2928,-2.2928,-2.2928,-2.2928,-2.2928,-2.2928,-2.2928,-2.2928,-2.2928,-2.2928,-2.2928,-2.2928,-2.2928,-2.2928,-2.2928,-2.2928,-2.2928,-2.2928,-2.2928,-2.2928,-2.2928,-2.2928,-2.2928,-2.2928,-2.2928,-2.2928,-2.2928,-2.2928,-2.2928,-2.2928,-2.2928,-2.2928,-2.2928,-2.2928,-2.2928,-2.2928,-2.2928,-2.2928,-2.2928,-2.2928,-2.2928,-2.2928,-2.3468,-2.4873,-2.7129,-2.8657,-2.9273,-3.0649,-3.1377,-3.1377,-3.1377,-3.1377,-3.1377,-3.1377,-3.1377,-3.1377,-3.1377,-3.1249,-3.102,-3.102,-3.0809,-3.0433,-3.0433,-3.0195,-2.981,-2.9644,-2.9434,-2.9204,-2.9039,-2.8984,-2.8984,-2.8984,-2.8984,-2.8984,-2.4636,-2.4636,-2.4636,-2.4636,-2.4636,-2.4636,-2.4636,-2.4636,-2.4636,-2.4636,-2.4636,-2.4636,-2.4636,-2.4636,-2.4636,-2.4636,-2.4636,-2.4636,-2.4636,-2.4636,-2.4636,-2.4636,-2.4636,-2.4516,-2.4249,-2.4215,-2.3941,-2.3407,-2.3354,-2.318,-2.2968,-2.2879,-2.2928,-2.2928,-2.2928,-2.2928,-2.2928,-2.2928,-2.2928,-2.2928,-2.2928,-2.2928,-2.2928,-2.2928,-2.2928,-2.2928,-2.2928,-2.2928,-2.2928,-2.2928,-2.2928,-2.2928,-2.2928,-2.2928,-2.2928,-2.2928,-2.2928,-2.2928,-2.2928,-2.2928,-2.2928,-2.2928,-2.2928,-2.2928,-2.2928,-2.2928,-2.2928,-2.2928,-2.2928,-2.2928,-2.2928,-2.2928,-2.2928,-2.2928,-2.2928,-2.2928,-2.2928,-2.2928,-2.2928,-2.2928,-2.2928,-2.2928,-2.2928,-2.2928,-2.34,-2.4738,-2.6254,-2.7718,-2.9003,-3.0584,-3.1377,-3.1377,-3.1377,-3.1377,-3.1377,-3.1377,-3.1377,-3.1377,-3.1377,-3.1377,-3.1377,-3.1377,-3.1176,-3.0846,-3.0846,-3.0616,-3.0222,-2.9837,-2.9663,-2.9589,-2.9195,-2.9039,-2.903,-2.8993,-2.8984,-2.8984,-2.4636,-2.4636,-2.4636,-2.4636,-2.4636,-2.4636,-2.4636,-2.4636,-2.4636,-2.4636,-2.4636,-2.4636,-2.4636,-2.4636,-2.4636,-2.4636,-2.4636,-2.4636,-2.4636,-2.4636,-2.4636,-2.4636,-2.4636,-2.4609,-2.4543,-2.4322,-2.4142,-2.4015,-2.3554,-2.3293,-2.322,-2.2979,-2.2928,-2.2928,-2.2928,-2.2928,-2.2928,-2.2928,-2.2928,-2.2928,-2.2928,-2.2928,-2.2928,-2.2928,-2.2928,-2.2928,-2.2928,-2.2928,-2.2928,-2.2928,-2.2928,-2.2928,-2.2928,-2.2928,-2.2928,-2.2928,-2.2928,-2.2928,-2.2928,-2.2928,-2.2928,-2.2928,-2.2928,-2.2928,-2.2928,-2.2928,-2.2928,-2.2928,-2.2928,-2.2928,-2.2928,-2.2928,-2.2928,-2.2928,-2.2928,-2.2928,-2.2928,-2.2928,-2.2928,-2.2928,-2.2928,-2.2928,-2.2928,-2.2928,-2.2996,-2.3331,-2.5659,-2.7246,-2.7585,-2.9974,-3.1377,-3.1377,-3.1377,-3.1377,-3.1377,-3.1377,-3.1377,-3.1377,-3.1377,-3.1377,-3.1377,-3.1377,-3.1332,-3.1249,-3.1249,-3.102,-3.0653,-3.0561,-3.0341,-3.002,-2.9608,-2.9443,-2.9406,-2.9094,-2.8984,-2.8984,-2.4636,-2.4636,-2.4636,-2.4636,-2.4636,-2.4636,-2.4636,-2.4636,-2.4636,-2.4636,-2.4636,-2.4636,-2.4636,-2.4636,-2.4636,-2.4636,-2.4636,-2.4636,-2.4636,-2.4636,-2.4636,-2.4636,-2.4636,-2.4636,-2.4636,-2.4489,-2.4342,-2.4202,-2.3895,-2.3601,-2.3327,-2.316,-2.3006,-2.2928,-2.2928,-2.2928,-2.2928,-2.2928,-2.2928,-2.2928,-2.2928,-2.2928,-2.2928,-2.2928,-2.2928,-2.2928,-2.2928,-2.2928,-2.2928,-2.2928,-2.2928,-2.2928,-2.2928,-2.2928,-2.2928,-2.2928,-2.2928,-2.2928,-2.2928,-2.2928,-2.2928,-2.2928,-2.2928,-2.2928,-2.2928,-2.2928,-2.2928,-2.2928,-2.2928,-2.2928,-2.2928,-2.2928,-2.2928,-2.2928,-2.2928,-2.2928,-2.2928,-2.2928,-2.2928,-2.2928,-2.2928,-2.2928,-2.2928,-2.2928,-2.2928,-2.2928,-2.4865,-2.6128,-2.6128,-2.8854,-3.039,-3.039,-3.1046,-3.1377,-3.1377,-3.1377,-3.1377,-3.1377,-3.1377,-3.1377,-3.1377,-3.1377,-3.1377,-3.1377,-3.1377,-3.1258,-3.1057,-3.0873,-3.0671,-3.0442,-3.003,-2.9874,-2.9819,-2.9415,-2.914,-2.8984,-2.4636,-2.4636,-2.4636,-2.4636,-2.4636,-2.4636,-2.4636,-2.4636,-2.4636,-2.4636,-2.4636,-2.4636,-2.4636,-2.4636,-2.4636,-2.4636,-2.4636,-2.4636,-2.4636,-2.4636,-2.4636,-2.4636,-2.4636,-2.4636,-2.4636,-2.4636,-2.4516,-2.4282,-2.4229,-2.3955,-2.3474,-2.3374,-2.3187,-2.2939,-2.2886,-2.2928,-2.2928,-2.2928,-2.2928,-2.2928,-2.2928,-2.2928,-2.2928,-2.2928,-2.2928,-2.2928,-2.2928,-2.2928,-2.2928,-2.2928,-2.2928,-2.2928,-2.2928,-2.2928,-2.2928,-2.2928,-2.2928,-2.2928,-2.2928,-2.2928,-2.2928,-2.2928,-2.2928,-2.2928,-2.2928,-2.2928,-2.2928,-2.2928,-2.2928,-2.2928,-2.2928,-2.2928,-2.2928,-2.2928,-2.2928,-2.2928,-2.2928,-2.2928,-2.2928,-2.2928,-2.2928,-2.2928,-2.2928,-2.2928,-2.2928,-2.2928,-2.4203,-2.5008,-2.5008,-2.7734,-2.9273,-2.9273,-3.0649,-3.1377,-3.1377,-3.1377,-3.1377,-3.1377,-3.1377,-3.1377,-3.1377,-3.1377,-3.1377,-3.1377,-3.1377,-3.1377,-3.135,-3.102,-3.0892,-3.0846,-3.0461,-3.0305,-3.0241,-2.9745,-2.936,-2.9076,-2.4636,-2.4636,-2.4636,-2.4636,-2.4636,-2.4636,-2.4636,-2.4636,-2.4636,-2.4636,-2.4636,-2.4636,-2.4636,-2.4636,-2.4636,-2.4636,-2.4636,-2.4636,-2.4636,-2.4636,-2.4636,-2.4636,-2.4636,-2.4636,-2.4636,-2.4636,-2.4542,-2.4576,-2.4329,-2.4162,-2.4075,-2.3561,-2.3307,-2.3253,-2.2986,-2.2928,-2.2928,-2.2928,-2.2928,-2.2928,-2.2928,-2.2928,-2.2928,-2.2928,-2.2928,-2.2928,-2.2928,-2.2928,-2.2928,-2.2928,-2.2928,-2.2928,-2.2928,-2.2928,-2.2928,-2.2928,-2.2928,-2.2928,-2.2928,-2.2928,-2.2928,-2.2928,-2.2928,-2.2928,-2.2928,-2.2928,-2.2928,-2.2928,-2.2928,-2.2928,-2.2928,-2.2928,-2.2928,-2.2928,-2.2928,-2.2928,-2.2928,-2.2928,-2.2928,-2.2928,-2.2928,-2.2928,-2.2928,-2.2928,-2.2928,-2.2928,-2.4203,-2.5008,-2.5008,-2.7734,-2.9273,-2.9273,-3.0649,-3.1377,-3.1377,-3.1377,-3.1377,-3.1377,-3.1377,-3.1377,-3.1377,-3.1377,-3.1377,-3.1377,-3.1377,-3.1377,-3.1377,-3.1322,-3.1295,-3.1258,-3.0864,-3.0708,-3.0616,-2.9855,-2.9544,-2.9443,-2.4636,-2.4636,-2.4636,-2.4636,-2.4636,-2.4636,-2.4636,-2.4636,-2.4636,-2.4636,-2.4636,-2.4636,-2.4636,-2.4636,-2.4636,-2.4636,-2.4636,-2.4636,-2.4636,-2.4636,-2.4636,-2.4636,-2.4636,-2.4636,-2.4636,-2.4636,-2.4636,-2.4636,-2.4509,-2.4362,-2.4195,-2.3768,-2.3487,-2.3313,-2.2999,-2.2928,-2.2928,-2.2928,-2.2928,-2.2928,-2.2928,-2.2928,-2.2928,-2.2928,-2.2928,-2.2928,-2.2928,-2.2928,-2.2928,-2.2928,-2.2928,-2.2928,-2.2928,-2.2928,-2.2928,-2.2928,-2.2928,-2.2928,-2.2928,-2.2928,-2.2928,-2.2928,-2.2928,-2.2928,-2.2928,-2.2928,-2.2928,-2.2928,-2.2928,-2.2928,-2.2928,-2.2928,-2.2928,-2.2928,-2.2928,-2.2928,-2.2928,-2.2928,-2.2928,-2.2928,-2.2928,-2.2928,-2.2928,-2.2928,-2.2928,-2.2928,-2.3468,-2.3802,-2.3802,-2.6529,-2.8056,-2.8056,-3.0251,-3.1377,-3.1377,-3.1377,-3.1377,-3.1377,-3.1377,-3.1377,-3.1377,-3.1377,-3.1377,-3.1377,-3.1377,-3.1377,-3.1377,-3.1377,-3.1377,-3.1359,-3.1185,-3.0983,-3.0682,-2.9493,-2.9331,-2.9362]},{"header":{"parameterUnit":"m.s-1","parameterCategory":1,"la1":30.6,"la2":28.766,"lo1":-90.7593,"lo2":-88.6598,"dy":0.0162,"dx":0.0183,"nx":116,"ny":114,"refTime":"2023-05-27T12:00:00:Z","depth":0,"parameterNumber":3,"parameterNumberName":"V-component_of_WINDS"},"data":[0.0,0.0,0.0,0.0,0.0,0.0,0.0,0.0,0.0,0.0,0.0,0.0,0.0,0.0,0.0,0.0,0.0,0.0,0.0,0.0,0.0,0.0,0.0,0.0,0.0,0.0,0.0,0.0,0.0,0.0,0.0,0.0,0.0,0.0,0.0,0.0,0.0,0.0,0.0,0.0,0.0,0.0,0.0,0.0,0.0,0.0,0.0,0.0,0.0,0.0,0.0,0.0,0.0,0.0,0.0,0.0,0.0,0.0,0.0,0.0,0.0,0.0,0.0,0.0,0.0,0.0,0.0,0.0,0.0,0.0,0.0,0.0,0.0,0.0,0.0,0.0,0.0,0.0,0.0,0.0,0.0,0.0,0.0,0.0,0.0,0.0,0.0,0.0,0.0,0.0,0.0,0.0,0.0,0.0,0.0,0.0,0.0,0.0,0.0,0.0,0.0,0.0,0.0,0.0,0.0,0.0,0.0,0.0,0.0,0.0,0.0,0.0,0.0,0.0,0.0,0.0,0.0,0.0,0.0,0.0,0.0,0.0,0.0,0.0,0.0,0.0,0.0,0.0,0.0,0.0,0.0,0.0,0.0,0.0,0.0,0.0,0.0,0.0,0.0,0.0,0.0,0.0,0.0,0.0,0.0,0.0,0.0,0.0,0.0,0.0,0.0,0.0,0.0,0.0,0.0,0.0,0.0,0.0,0.0,0.0,0.0,0.0,0.0,0.0,0.0,0.0,0.0,0.0,0.0,0.0,0.0,0.0,0.0,0.0,0.0,0.0,0.0,0.0,0.0,0.0,0.0,0.0,0.0,0.0,0.0,0.0,0.0,0.0,0.0,0.0,0.0,0.0,0.0,0.0,0.0,0.0,0.0,0.0,0.0,0.0,0.0,0.0,0.0,0.0,0.0,0.0,0.0,0.0,0.0,0.0,0.0,0.0,0.0,0.0,0.0,0.0,0.0,0.0,0.0,0.0,0.0,0.0,0.0,0.0,0.0,0.0,0.0,0.0,0.0,0.0,0.0,0.0,0.0,0.0,0.0,0.0,0.0,0.0,0.0,0.0,0.0,0.0,0.0,0.0,0.0,0.0,0.0,0.0,0.0,0.0,0.0,0.0,0.0,0.0,0.0,0.0,0.0,0.0,0.0,0.0,0.0,0.0,0.0,0.0,0.0,0.0,0.0,0.0,0.0,0.0,0.0,0.0,0.0,0.0,0.0,0.0,0.0,0.0,0.0,0.0,0.0,0.0,0.0,0.0,0.0,0.0,0.0,0.0,0.0,0.0,0.0,0.0,0.0,0.0,0.0,0.0,0.0,0.0,0.0,0.0,0.0,0.0,0.0,0.0,0.0,0.0,0.0,0.0,0.0,0.0,0.0,0.0,0.0,0.0,0.0,0.0,0.0,0.0,0.0,0.0,0.0,0.0,0.0,0.0,0.0,0.0,0.0,0.0,0.0,0.0,0.0,0.0,0.0,0.0,0.0,0.0,0.0,0.0,0.0,0.0,0.0,0.0,0.0,0.0,0.0,0.0,0.0,0.0,0.0,0.0,0.0,0.0,0.0,0.0,0.0,0.0,0.0,0.0,0.0,0.0,0.0,0.0,0.0,0.0,0.0,0.0,0.0,0.0,0.0,0.0,0.0,0.0,0.0,0.0,0.0,0.0,0.0,0.0,0.0,0.0,0.0,0.0,0.0,0.0,0.0,0.0,0.0,0.0,0.0,0.0,0.0,0.0,0.0,0.0,0.0,0.0,0.0,0.0,0.0,0.0,0.0,0.0,0.0,0.0,0.0,0.0,0.0,0.0,0.0,0.0,0.0,0.0,0.0,0.0,0.0,0.0,0.0,0.0,0.0,0.0,0.0,0.0,0.0,0.0,0.0,0.0,0.0,0.0,0.0,0.0,0.0,0.0,0.0,0.0,0.0,0.0,0.0,0.0,0.0,0.0,0.0,0.0,0.0,0.0,0.0,0.0,0.0,0.0,0.0,0.0,0.0,0.0,0.0,0.0,0.0,0.0,0.0,0.0,0.0,0.0,0.0,0.0,0.0,0.0,0.0,0.0,0.0,0.0,0.0,0.0,0.0,0.0,0.0,0.0,0.0,0.0,0.0,0.0,0.0,0.0,0.0,0.0,0.0,0.0,0.0,0.0,0.0,0.0,0.0,0.0,0.0,0.0,0.0,0.0,0.0,0.0,0.0,0.0,0.0,0.0,0.0,0.0,0.0,0.0,0.0,0.0,0.0,0.0,0.0,0.0,0.0,0.0,0.0,0.0,0.0,0.0,0.0,0.0,0.0,0.0,0.0,0.0,0.0,0.0,0.0,0.0,0.0,0.0,0.0,0.0,0.0,0.0,0.0,0.0,0.0,0.0,0.0,0.0,0.0,0.0,0.0,0.0,0.0,0.0,0.0,0.0,0.0,0.0,0.0,0.0,0.0,0.0,0.0,0.0,0.0,0.0,0.0,0.0,0.0,0.0,0.0,0.0,0.0,0.0,0.0,0.0,0.0,0.0,0.0,0.0,0.0,0.0,0.0,0.0,0.0,0.0,0.0,0.0,0.0,0.0,0.0,0.0,0.0,0.0,0.0,0.0,0.0,0.0,0.0,0.0,0.0,0.0,0.0,0.0,0.0,0.0,0.0,0.0,0.0,0.0,0.0,0.0,0.0,0.0,0.0,0.0,0.0,0.0,0.0,0.0,0.0,0.0,0.0,0.0,0.0,0.0,0.0,0.0,0.0,0.0,0.0,0.0,0.0,0.0,0.0,0.0,0.0,0.0,0.0,0.0,0.0,0.0,0.0,0.0,0.0,0.0,0.0,0.0,0.0,0.0,0.0,0.0,0.0,0.0,0.0,0.0,0.0,0.0,0.0,0.0,0.0,0.0,0.0,0.0,0.0,0.0,0.0,0.0,0.0,0.0,0.0,0.0,0.0,0.0,0.0,0.0,0.0,0.0,0.0,0.0,0.0,0.0,0.0,0.0,0.0,0.0,0.0,0.0,0.0,0.0,0.0,0.0,0.0,0.0,0.0,0.0,0.0,0.0,0.0,0.0,0.0,0.0,0.0,0.0,0.0,0.0,0.0,0.0,0.0,0.0,0.0,0.0,0.0,0.0,0.0,0.0,0.0,0.0,0.0,0.0,0.0,0.0,0.0,0.0,0.0,0.0,0.0,0.0,0.0,0.0,0.0,0.0,0.0,0.0,0.0,0.0,0.0,0.0,0.0,0.0,0.0,0.0,0.0,0.0,0.0,0.0,0.0,0.0,0.0,0.0,0.0,0.0,0.0,0.0,0.0,0.0,0.0,0.0,0.0,0.0,0.0,0.0,0.0,0.0,0.0,0.0,0.0,0.0,0.0,0.0,0.0,0.0,0.0,0.0,0.0,0.0,0.0,0.0,0.0,0.0,0.0,0.0,0.0,0.0,0.0,0.0,0.0,0.0,0.0,0.0,0.0,0.0,0.0,0.0,0.0,0.0,0.0,0.0,0.0,0.0,0.0,0.0,0.0,0.0,0.0,0.0,0.0,0.0,0.0,0.0,0.0,0.0,0.0,0.0,0.0,0.0,0.0,0.0,0.0,0.0,0.0,0.0,0.0,0.0,0.0,0.0,0.0,0.0,0.0,0.0,0.0,0.0,0.0,0.0,0.0,0.0,0.0,0.0,0.0,0.0,0.0,0.0,0.0,0.0,0.0,0.0,0.0,0.0,0.0,0.0,0.0,0.0,0.0,0.0,0.0,0.0,0.0,0.0,0.0,0.0,0.0,0.0,0.0,0.0,0.0,0.0,0.0,0.0,0.0,0.0,0.0,0.0,0.0,0.0,0.0,0.0,0.0,0.0,0.0,0.0,0.0,0.0,0.0,0.0,0.0,0.0,0.0,0.0,0.0,0.0,0.0,0.0,0.0,0.0,0.0,0.0,0.0,0.0,0.0,0.0,0.0,0.0,0.0,0.0,0.0,0.0,0.0,0.0,0.0,0.0,0.0,0.0,0.0,0.0,0.0,0.0,0.0,0.0,0.0,0.0,0.0,0.0,0.0,0.0,0.0,0.0,0.0,0.0,0.0,0.0,0.0,0.0,0.0,0.0,0.0,0.0,0.0,0.0,0.0,0.0,0.0,0.0,0.0,0.0,0.0,0.0,0.0,0.0,0.0,0.0,0.0,0.0,0.0,0.0,0.0,0.0,0.0,0.0,0.0,0.0,0.0,0.0,0.0,0.0,0.0,0.0,0.0,0.0,0.0,0.0,0.0,0.0,0.0,0.0,0.0,0.0,0.0,0.0,0.0,0.0,0.0,0.0,0.0,0.0,0.0,0.0,0.0,0.0,0.0,0.0,0.0,0.0,0.0,0.0,0.0,0.0,0.0,0.0,0.0,0.0,0.0,0.0,0.0,0.0,0.0,0.0,0.0,0.0,0.0,0.0,0.0,0.0,0.0,0.0,0.0,0.0,0.0,0.0,0.0,0.0,0.0,0.0,0.0,0.0,0.0,0.0,0.0,0.0,0.0,0.0,0.0,0.0,0.0,0.0,0.0,0.0,0.0,0.0,0.0,0.0,0.0,0.0,0.0,0.0,0.0,0.0,0.0,0.0,0.0,0.0,0.0,0.0,0.0,0.0,0.0,0.0,0.0,0.0,0.0,0.0,0.0,0.0,0.0,0.0,0.0,0.0,0.0,0.0,0.0,0.0,0.0,0.0,0.0,0.0,0.0,0.0,0.0,0.0,0.0,0.0,0.0,0.0,0.0,0.0,0.0,0.0,0.0,0.0,0.0,0.0,0.0,0.0,0.0,0.0,0.0,0.0,0.0,0.0,0.0,0.0,0.0,0.0,0.0,0.0,0.0,0.0,0.0,0.0,0.0,0.0,0.0,0.0,0.0,0.0,0.0,0.0,0.0,0.0,0.0,0.0,0.0,0.0,0.0,0.0,0.0,0.0,0.0,0.0,0.0,0.0,0.0,0.0,0.0,0.0,0.0,0.0,0.0,0.0,0.0,0.0,0.0,0.0,0.0,0.0,0.0,0.0,0.0,0.0,0.0,0.0,0.0,0.0,0.0,0.0,0.0,0.0,0.0,0.0,0.0,0.0,0.0,0.0,0.0,0.0,0.0,0.0,0.0,0.0,0.0,0.0,0.0,0.0,0.0,0.0,0.0,0.0,0.0,0.0,0.0,0.0,0.0,0.0,0.0,0.0,0.0,0.0,0.0,0.0,0.0,0.0,0.0,0.0,0.0,0.0,0.0,0.0,0.0,0.0,0.0,0.0,0.0,0.0,0.0,0.0,0.0,0.0,0.0,0.0,0.0,0.0,0.0,0.0,0.0,0.0,0.0,0.0,0.0,0.0,0.0,0.0,0.0,0.0,0.0,0.0,0.0,0.0,0.0,0.0,0.0,0.0,0.0,0.0,0.0,0.0,0.0,0.0,0.0,0.0,0.0,0.0,0.0,0.0,0.0,0.0,0.0,0.0,0.0,0.0,0.0,0.0,0.0,0.0,0.0,0.0,0.0,0.0,0.0,0.0,0.0,0.0,0.0,0.0,0.0,0.0,0.0,0.0,0.0,0.0,0.0,0.0,0.0,0.0,0.0,0.0,0.0,0.0,0.0,0.0,0.0,0.0,0.0,0.0,0.0,0.0,0.0,0.0,0.0,0.0,0.0,0.0,0.0,0.0,0.0,0.0,0.0,0.0,0.0,0.0,0.0,0.0,0.0,0.0,0.0,0.0,0.0,0.0,0.0,0.0,0.0,0.0,0.0,0.0,0.0,0.0,0.0,0.0,0.0,0.0,0.0,0.0,0.0,0.0,0.0,0.0,0.0,0.0,0.0,0.0,0.0,0.0,0.0,0.0,0.0,0.0,0.0,0.0,0.0,0.0,0.0,0.0,0.0,0.0,0.0,0.0,0.0,0.0,0.0,0.0,0.0,0.0,0.0,0.0,0.0,0.0,0.0,0.0,0.0,0.0,0.0,0.0,0.0,0.0,0.0,0.0,0.0,0.0,0.0,0.0,0.0,0.0,0.0,0.0,0.0,0.0,0.0,0.0,0.0,0.0,0.0,0.0,0.0,0.0,0.0,0.0,0.0,0.0,0.0,0.0,0.0,0.0,2.5278,0.0,0.0,0.0,0.0,0.0,0.0,0.0,0.0,0.0,0.0,0.0,0.0,0.0,0.0,0.0,0.0,0.0,0.0,0.0,0.0,0.0,0.0,0.0,0.0,0.0,0.0,0.0,0.0,0.0,0.0,0.0,0.0,0.0,0.0,0.0,0.0,0.0,0.0,0.0,2.5494,2.6882,2.8788,2.7332,2.6457,2.6088,0.0,0.0,0.0,0.0,0.0,0.0,0.0,0.0,0.0,0.0,0.0,0.0,0.0,0.0,0.0,0.0,0.0,0.0,0.0,0.0,0.0,0.0,0.0,0.0,0.0,0.0,0.0,0.0,0.0,0.0,0.0,0.0,0.0,0.0,0.0,0.0,0.0,0.0,0.0,0.0,0.0,0.0,0.0,0.0,0.0,0.0,0.0,0.0,0.0,0.0,0.0,0.0,0.0,0.0,0.0,0.0,0.0,0.0,0.0,0.0,0.0,0.0,0.0,0.0,0.0,0.0,0.0,0.0,0.0,0.0,0.0,2.6588,0.0,0.0,0.0,0.0,0.0,0.0,0.0,0.0,0.0,0.0,0.0,0.0,0.0,0.0,0.0,0.0,0.0,0.0,0.0,0.0,0.0,0.0,0.0,0.0,2.2245,2.2645,2.3286,2.362,0.0,0.0,0.0,0.0,0.0,0.0,0.0,2.546,2.5941,2.6195,2.813,2.9807,3.1225,3.1477,3.0848,2.9442,2.8003,0.0,0.0,0.0,0.0,0.0,0.0,0.0,0.0,0.0,0.0,0.0,0.0,0.0,0.0,0.0,0.0,0.0,0.0,0.0,0.0,0.0,0.0,0.0,0.0,0.0,0.0,0.0,0.0,0.0,0.0,0.0,0.0,0.0,0.0,0.0,0.0,0.0,0.0,0.0,0.0,0.0,0.0,0.0,0.0,0.0,0.0,0.0,0.0,0.0,0.0,0.0,0.0,0.0,0.0,0.0,0.0,0.0,0.0,0.0,0.0,0.0,0.0,0.0,3.1005,3.1146,3.1146,3.1146,3.1453,3.1941,3.1524,3.1426,3.1384,2.8911,0.0,0.0,0.0,0.0,0.0,0.0,0.0,0.0,0.0,0.0,0.0,0.0,0.0,0.0,0.0,0.0,0.0,0.0,0.0,0.0,0.0,2.2909,2.3298,2.3361,2.3468,2.351,0.0,0.0,0.0,0.0,0.0,0.0,2.5638,2.5745,2.6462,2.7802,3.1259,3.3068,3.3332,3.4039,3.4337,3.4187,3.1815,3.0631,3.0368,0.0,0.0,0.0,0.0,0.0,0.0,0.0,0.0,0.0,0.0,0.0,0.0,0.0,0.0,0.0,0.0,0.0,0.0,0.0,0.0,0.0,0.0,0.0,0.0,0.0,0.0,0.0,0.0,0.0,0.0,0.0,0.0,0.0,0.0,0.0,0.0,0.0,0.0,0.0,0.0,0.0,2.9015,3.018,0.0,0.0,0.0,0.0,0.0,0.0,0.0,0.0,0.0,0.0,0.0,0.0,0.0,2.9418,2.9471,3.1011,3.1777,3.1795,3.3371,3.4128,3.4128,3.4128,3.418,3.4303,3.4848,0.0,3.1404,3.112,0.0,0.0,0.0,0.0,0.0,0.0,0.0,0.0,0.0,0.0,0.0,0.0,0.0,0.0,0.0,0.0,0.0,0.0,0.0,0.0,0.0,2.3958,2.4869,2.5203,2.6462,2.6833,2.5915,2.5862,0.0,0.0,0.0,2.5897,2.625,2.7526,2.9397,3.1816,3.3459,3.4746,3.572,3.6092,3.6362,3.6524,3.5505,3.3822,3.1738,3.1545,0.0,0.0,0.0,0.0,0.0,0.0,0.0,0.0,0.0,0.0,0.0,0.0,0.0,0.0,0.0,0.0,0.0,0.0,0.0,0.0,0.0,0.0,0.0,0.0,0.0,0.0,0.0,0.0,0.0,0.0,0.0,0.0,0.0,0.0,0.0,0.0,0.0,0.0,0.0,2.8167,2.9409,3.0391,3.0045,2.949,0.0,0.0,0.0,0.0,0.0,0.0,0.0,0.0,0.0,3.3017,3.3244,3.3775,3.4659,3.563,3.5981,3.5784,3.656,3.6623,3.6022,3.6658,3.6725,3.6382,3.7346,3.7025,3.5677,3.3634,3.2211,3.1175,0.0,0.0,0.0,0.0,2.91,2.9212,0.0,0.0,0.0,0.0,0.0,0.0,0.0,0.0,0.0,0.0,0.0,0.0,2.3861,2.5623,2.6905,2.7394,2.9041,2.9372,2.7806,2.7701,0.0,0.0,2.6283,2.6686,2.6879,2.9371,3.2002,3.4706,3.511,3.6064,3.7503,3.7503,3.7618,3.7807,3.7954,3.6369,3.3593,3.3805,3.2206,2.9549,0.0,0.0,0.0,0.0,0.0,0.0,0.0,0.0,0.0,0.0,0.0,0.0,0.0,0.0,0.0,0.0,0.0,0.0,0.0,0.0,0.0,0.0,0.0,0.0,0.0,0.0,0.0,0.0,0.0,0.0,0.0,0.0,0.0,0.0,0.0,0.0,0.0,3.0021,3.0776,3.1146,3.1531,3.1129,0.0,0.0,0.0,0.0,0.0,0.0,3.3658,3.33,3.4095,3.6343,3.6482,3.7167,3.8555,3.8716,3.8612,3.8245,3.8148,3.7619,3.6734,3.7693,3.7815,3.7338,3.83,3.8831,3.8796,3.6207,3.4923,3.4412,3.251,3.157,3.1318,3.1646,3.1801,3.2053,0.0,0.0,0.0,0.0,0.0,0.0,0.0,0.0,0.0,0.0,0.0,2.6173,2.6228,2.8192,2.9567,2.9717,2.9839,2.9276,2.7806,2.7701,2.735,2.6563,2.6581,2.6929,2.7631,3.0685,3.3073,3.4706,3.6182,3.7288,3.8058,3.8058,3.8161,3.836,3.838,3.798,3.7292,3.6534,3.5432,3.3974,3.1675,0.0,0.0,0.0,0.0,0.0,0.0,0.0,0.0,0.0,0.0,0.0,0.0,0.0,0.0,0.0,0.0,0.0,0.0,0.0,0.0,0.0,0.0,0.0,0.0,0.0,0.0,0.0,0.0,0.0,0.0,0.0,0.0,0.0,0.0,0.0,0.0,0.0,0.0,3.4286,3.5412,0.0,0.0,0.0,0.0,3.4088,3.4139,3.4659,3.5869,3.5265,3.5766,3.7757,3.7123,3.7163,3.795,3.7636,3.7337,3.7007,3.6659,3.6281,3.5878,3.6324,3.6492,3.6478,3.6919,3.7496,3.8199,3.8778,3.8229,3.701,3.6867,3.5562,3.3981,3.6057,3.6354,3.5979,0.0,0.0,0.0,0.0,0.0,0.0,0.0,0.0,2.2387,2.2875,2.4934,2.6347,2.6347,2.969,3.1967,3.2021,3.3396,3.3624,3.2109,3.1079,2.9995,2.8786,2.7754,2.8343,3.0668,3.3266,3.5355,3.6882,3.7444,3.7848,3.8093,3.7602,3.7433,3.751,3.8003,3.8113,3.7895,3.7513,3.6334,3.4637,3.3847,3.1752,0.0,0.0,0.0,0.0,0.0,0.0,0.0,0.0,0.0,0.0,0.0,0.0,0.0,0.0,0.0,0.0,0.0,0.0,0.0,0.0,0.0,0.0,0.0,0.0,0.0,0.0,0.0,0.0,0.0,0.0,0.0,0.0,0.0,0.0,0.0,0.0,0.0,3.449,3.5687,0.0,3.443,3.4567,3.5031,3.5717,3.5501,3.6015,3.7618,3.7344,3.7779,3.9222,3.9839,4.0383,4.0916,4.1174,4.0958,4.0189,4.0286,3.9394,3.7775,3.9084,3.9163,3.8339,3.9473,3.9966,3.9986,4.0264,3.9674,3.8523,3.8321,3.7875,3.7439,3.8023,3.8184,3.8181,0.0,0.0,0.0,0.0,0.0,0.0,0.0,0.0,2.2585,2.3858,2.5996,2.7698,2.8479,3.1965,3.4272,3.431,3.5737,3.5774,3.3759,3.2682,3.1307,2.9529,2.9263,3.0518,3.3458,3.502,3.6547,3.8111,3.7848,3.7865,3.8093,3.7602,3.7376,3.7393,3.7883,3.797,3.7747,3.7893,3.7362,3.6409,3.6158,3.4646,3.2381,0.0,0.0,0.0,0.0,0.0,0.0,0.0,0.0,0.0,0.0,0.0,0.0,0.0,0.0,0.0,0.0,0.0,0.0,0.0,0.0,0.0,0.0,0.0,0.0,0.0,0.0,0.0,0.0,0.0,0.0,0.0,0.0,0.0,0.0,0.0,3.6478,3.5176,3.6821,3.7525,3.6243,3.6866,3.7774,3.8755,3.8343,3.8539,3.9749,3.9448,3.9693,4.0696,4.1543,4.2261,4.28,4.302,4.2723,4.193,4.1984,4.1072,3.9389,4.0973,4.1129,4.0269,4.1371,4.1742,4.1516,4.1099,4.0595,4.0013,3.9539,3.9562,3.9861,3.9606,3.9756,3.9956,0.0,0.0,0.0,0.0,0.0,0.0,0.0,2.2336,2.3617,2.5905,2.8189,3.0456,3.2739,3.4979,3.6343,3.6482,3.6502,3.526,3.2351,3.2143,3.1098,2.8802,3.101,3.3367,3.5657,3.5842,3.6634,3.8146,3.7409,3.7464,3.8181,3.8164,3.8146,3.8146,3.8146,3.7742,3.713,3.783,3.8707,3.9514,3.8544,3.8249,3.7883,0.0,0.0,0.0,0.0,0.0,0.0,0.0,0.0,0.0,0.0,0.0,0.0,0.0,0.0,0.0,0.0,0.0,0.0,0.0,0.0,0.0,0.0,0.0,0.0,0.0,0.0,0.0,0.0,0.0,0.0,0.0,0.0,0.0,3.5772,3.6818,3.7465,3.6762,3.9237,4.067,3.9871,4.1129,4.2344,4.3172,4.2576,4.2216,4.2267,4.1572,4.1495,4.223,4.2133,4.2452,4.3235,4.2748,4.2291,4.1855,4.1357,4.0863,4.0437,4.1532,4.1984,4.1987,4.2255,4.2438,4.2463,4.1304,4.1157,4.1523,4.0724,4.0659,4.1001,4.1001,4.1249,4.1348,0.0,0.0,0.0,0.0,0.0,0.0,0.0,2.2587,2.3553,2.5831,2.8108,3.0404,3.2664,3.4938,3.6322,3.6343,3.6343,3.5569,3.3673,3.2998,3.2187,3.1028,3.3305,3.495,3.5692,3.7338,3.845,3.8968,3.8778,3.9076,3.9835,3.9252,3.8968,3.8968,3.8968,3.8866,3.869,3.8863,3.9132,3.9376,3.9399,3.8887,3.7969,0.0,0.0,0.0,0.0,0.0,0.0,0.0,0.0,0.0,0.0,0.0,0.0,0.0,0.0,0.0,0.0,0.0,0.0,0.0,0.0,0.0,0.0,0.0,0.0,0.0,0.0,0.0,0.0,0.0,0.0,0.0,0.0,3.7465,3.707,3.9202,4.0728,4.0504,4.1729,4.2482,4.2258,4.2102,4.2568,4.3897,4.2918,4.2753,4.3881,4.3319,4.3092,4.3289,4.3723,4.4064,4.4278,4.4566,4.418,4.3106,4.3197,4.2382,4.0874,4.1684,4.1765,4.1309,4.1661,4.1668,4.1435,4.1606,4.1591,4.1394,4.1008,4.089,4.1001,4.1001,4.089,4.0672,0.0,0.0,0.0,0.0,0.0,0.0,0.0,2.2699,2.3853,2.7093,2.8678,3.0731,3.3973,3.5508,3.6301,3.6301,3.5732,3.4731,3.3214,3.2403,3.237,3.3237,3.498,3.6258,3.6983,3.8353,3.9114,3.9157,3.9199,3.9469,3.989,3.9494,3.9284,3.9284,3.9284,3.9108,3.881,3.9143,3.9111,3.8851,3.9418,3.9504,3.9229,3.8563,3.7922,3.7184,3.575,3.5196,3.475,3.2416,0.0,0.0,0.0,0.0,0.0,0.0,0.0,0.0,0.0,0.0,0.0,0.0,0.0,0.0,0.0,0.0,0.0,0.0,0.0,0.0,0.0,0.0,0.0,0.0,3.8088,3.9439,3.9439,4.0935,4.2233,4.2896,4.3379,4.3914,4.457,4.4199,4.4423,4.563,4.4726,4.4541,4.545,4.5153,4.496,4.496,4.5607,4.5808,4.5511,4.5605,4.5124,4.4059,4.3961,4.3297,4.2154,4.2568,4.2486,4.2092,4.2295,4.2266,4.2066,4.2283,4.2198,0.0,0.0,0.0,0.0,0.0,4.0748,4.0212,0.0,0.0,0.0,0.0,0.0,0.0,0.0,2.2699,2.4336,2.8903,2.9506,3.1248,3.5801,3.6301,3.6301,3.6301,3.4938,3.3473,3.2024,3.1386,3.2386,3.5318,3.6198,3.733,3.8893,3.8951,3.9016,3.9125,3.9176,3.9254,3.9342,3.9466,3.9526,3.9526,3.9459,3.9041,3.8409,3.9041,3.8827,3.8181,3.8968,3.9941,4.0749,3.9336,3.8988,3.8977,3.7045,3.603,3.5593,3.5377,0.0,0.0,0.0,0.0,0.0,0.0,0.0,0.0,0.0,0.0,0.0,0.0,0.0,0.0,0.0,0.0,0.0,0.0,0.0,0.0,0.0,0.0,0.0,0.0,4.0268,4.2206,4.2354,4.2371,4.2871,4.4259,4.4587,4.5216,4.6596,4.6734,4.7044,4.7758,4.7272,4.6971,4.7085,0.0,0.0,0.0,0.0,4.7409,4.6739,4.6227,4.5615,4.4935,4.4333,4.4011,4.3949,4.3879,4.3847,4.3847,4.38,4.3709,4.3599,4.3256,4.2934,4.2585,4.1611,4.1418,4.166,4.1446,4.0731,3.9935,0.0,0.0,0.0,0.0,0.0,0.0,0.0,2.2699,2.4336,2.8903,2.9506,3.1248,3.5801,3.6301,3.6301,3.6301,3.4938,3.3697,3.2748,3.3145,3.4527,3.696,3.7223,3.8061,3.9633,3.9123,3.919,3.9882,3.9904,4.0205,4.0797,4.0926,4.0971,4.0976,4.049,4.0186,4.001,3.9515,3.8827,3.8181,3.8968,3.9434,3.9676,4.001,4.0367,4.0706,4.0869,4.1065,4.0818,3.804,3.7184,3.6835,3.4174,0.0,0.0,0.0,0.0,0.0,0.0,0.0,0.0,0.0,0.0,0.0,0.0,0.0,0.0,0.0,0.0,0.0,0.0,0.0,0.0,3.9316,4.1425,4.3396,4.4596,4.4725,4.4846,4.5139,4.6303,4.7165,4.7448,4.751,4.7775,4.8517,4.8483,4.8684,4.932,4.8796,4.846,4.846,4.8075,4.7791,4.7647,4.7519,4.7108,4.6385,0.0,0.0,4.5384,4.5362,4.5359,4.5359,4.5365,4.5023,4.4477,4.4388,4.3896,4.3047,4.1898,4.1288,4.1058,4.1027,4.0527,3.9935,0.0,0.0,0.0,0.0,0.0,0.0,0.0,2.2699,2.3922,2.7351,2.7799,2.911,3.2524,3.2904,3.3059,3.3455,3.3162,3.2766,3.2369,3.3457,3.5287,3.7944,3.7323,3.781,3.9772,3.9081,3.9086,3.9893,4.0377,4.0781,4.1152,4.1249,4.1295,4.13,4.1046,4.0745,4.0381,4.0038,3.9199,3.8146,3.855,3.848,3.8322,3.9905,4.0634,4.0893,4.1633,4.2175,4.2228,4.0475,4.0128,4.0094,3.8347,3.6661,3.4837,0.0,0.0,0.0,0.0,0.0,0.0,0.0,0.0,0.0,0.0,0.0,0.0,0.0,0.0,3.5258,0.0,0.0,3.9715,4.1287,4.3086,4.4561,4.5294,4.6379,4.7103,4.7103,4.7775,4.8396,4.8821,4.8855,4.901,4.9361,4.9407,4.9597,4.9993,4.9649,4.9453,4.9453,4.9135,4.8762,4.8415,4.808,4.7539,4.6798,4.6798,4.6618,4.6291,4.5962,4.5991,4.626,4.5564,4.5421,4.568,4.5282,4.4553,4.3569,4.2659,4.192,4.1366,4.1402,4.0779,3.9991,0.0,0.0,0.0,0.0,0.0,0.0,0.0,2.2699,2.3509,2.5801,2.6094,2.6956,2.9265,2.9506,2.9696,3.0196,3.1472,3.211,3.1817,3.3507,3.5752,3.8474,3.7267,3.7525,3.9646,3.9112,3.9094,3.9698,4.0602,4.1047,4.107,4.1152,4.118,4.1203,4.1318,4.1071,4.0499,4.049,3.9656,3.8322,3.8164,3.7742,3.7446,3.9501,4.0274,4.0379,4.1271,4.1809,4.2092,4.2092,4.23,4.256,4.256,4.0643,3.7825,3.5027,3.3579,0.0,0.0,0.0,0.0,0.0,0.0,0.0,0.0,0.0,3.3599,3.5419,3.6222,3.7197,3.9202,4.0124,4.1222,4.3103,4.4665,4.5673,4.5828,4.7551,4.8844,4.8999,4.9016,4.9304,4.9942,5.0011,5.0011,5.0011,5.0011,5.0011,5.0011,5.0011,4.9935,4.9801,4.9935,4.9666,4.8914,4.8495,4.8015,4.7406,4.7406,4.7406,4.7389,4.67,4.67,4.7148,4.5862,4.5928,4.6849,4.5986,4.5086,4.4231,4.3462,4.2762,4.2111,4.1999,4.1099,4.0115,0.0,0.0,0.0,0.0,0.0,0.0,0.0,0.0,2.3509,2.5801,2.6094,2.6956,2.9265,2.9506,2.9265,2.8713,3.1834,3.3268,3.1886,3.4473,3.6818,3.8525,3.7823,3.8116,3.9664,3.9612,3.9612,3.9698,4.0515,4.0935,4.0935,4.1053,4.1117,4.1117,4.1312,4.1351,4.1228,4.0718,3.9972,3.9091,3.8392,3.8058,3.8093,3.9059,3.9424,3.9638,4.1078,4.1626,4.1653,4.1653,4.1697,4.1723,4.1723,4.1468,4.0303,3.5922,0.0,3.3564,2.9597,3.0323,3.2597,3.427,3.4359,3.5037,0.0,0.0,3.7755,4.0555,4.1188,4.155,4.2516,4.3293,4.388,4.4138,4.5458,4.6672,4.7345,4.8224,4.9051,4.9786,4.9873,4.9907,4.9993,5.0011,5.0011,5.0011,5.0011,5.0011,5.0011,5.0011,4.9696,4.9053,4.9666,4.9666,4.8914,4.9483,4.9742,4.9637,4.9637,4.9637,4.9607,4.8894,4.8593,4.8622,4.7804,4.7561,4.7657,4.6206,4.5534,4.5284,4.3985,4.3383,4.3227,4.2389,4.1334,4.041,0.0,0.0,0.0,0.0,0.0,0.0,0.0,0.0,0.0,2.4047,2.414,2.4474,2.5439,2.5921,2.6249,2.6419,2.992,3.2024,3.18,3.4628,3.6801,3.7927,3.7668,3.818,3.9664,3.9267,3.9267,3.9698,3.9618,3.9566,3.9583,4.0078,4.0066,3.9669,4.0261,4.0294,3.9882,3.97,3.9298,3.8765,3.866,3.8491,3.8393,3.9473,3.9882,3.9847,3.9652,3.9568,0.0,0.0,3.9568,3.9792,4.1077,4.0902,3.9536,3.6164,3.5519,0.0,3.4938,0.0,0.0,0.0,3.7007,3.7802,3.9238,3.9554,4.0107,4.2258,4.2706,4.293,4.3707,4.4087,4.4449,0.0,4.5872,4.6872,4.7614,4.8327,4.9085,4.9907,5.0011,5.0011,5.0011,5.0011,5.0011,5.0011,5.0011,5.0011,5.0011,5.0011,4.986,4.9543,4.983,4.986,4.9543,4.9406,4.9376,4.9376,4.9376,4.9376,4.9346,4.9023,4.8883,4.8914,4.9022,4.8841,4.8362,4.7729,4.6743,4.5522,4.4942,4.4219,4.3479,4.3269,4.243,4.1468,0.0,0.0,0.0,0.0,0.0,0.0,0.0,0.0,0.0,0.0,2.2855,2.2829,2.2816,2.3461,2.4126,2.4626,2.7829,3.0318,3.1421,3.3921,3.599,3.7443,3.7512,3.8099,3.937,3.906,3.9163,3.9698,3.9388,3.9134,3.8905,3.9439,3.9301,3.8634,3.9316,3.9309,3.8789,3.8716,3.8657,3.8607,3.8643,3.8776,3.9007,3.9913,4.0001,3.952,3.8491,3.8111,3.7985,3.7351,3.7123,3.7454,3.9258,3.9062,3.7772,3.5523,3.5002,3.5477,3.6904,0.0,0.0,3.7737,3.941,4.0549,3.9997,4.0739,4.1912,4.3224,4.35,4.3724,4.4458,4.4596,4.4768,4.5311,4.6069,4.6872,4.7614,4.8327,4.9085,4.9907,5.0011,5.0011,5.0011,5.0011,5.0011,5.0011,5.0011,5.0011,5.0011,5.02,5.0216,5.0022,5.0216,5.0216,5.0022,4.9479,4.9192,4.9192,4.9192,4.9192,4.9209,4.8992,4.8883,4.8914,4.9466,4.9475,4.9103,4.8879,4.7672,4.5901,4.5886,4.4882,4.3571,4.4157,4.3448,4.2294,0.0,0.0,0.0,0.0,0.0,0.0,0.0,0.0,0.0,0.0,0.0,0.0,0.0,2.3748,2.4086,2.385,2.6193,2.8556,3.0593,3.2162,3.4352,3.7374,3.7512,3.7858,3.8612,3.9301,3.9681,3.9698,4.0463,4.0446,3.9664,3.9681,3.9301,3.8617,3.8762,3.8824,3.8755,3.8104,3.8318,3.9013,3.8171,3.8802,4.0237,4.0135,3.9251,3.807,3.8105,3.8111,3.7757,3.547,3.4697,3.4837,3.5545,3.5752,0.0,3.3745,3.2229,3.1411,3.2882,0.0,3.7863,3.9272,4.1395,4.3086,4.3069,4.3103,4.3345,4.4121,4.4276,4.4501,4.5225,4.5363,4.5363,4.5397,4.6069,4.6872,4.7614,4.8327,4.9085,4.9907,5.0011,5.0011,0.0,5.0011,5.0011,5.0011,5.0011,5.0011,5.0011,5.0683,5.0776,5.011,5.0746,5.0746,5.011,4.9996,4.9982,4.9982,4.9982,4.9982,4.9935,4.9239,4.8883,4.8883,4.8914,4.9329,4.9907,4.9103,4.7951,4.667,4.6608,4.5303,4.366,4.4889,4.4169,4.2584,0.0,0.0,0.0,0.0,0.0,0.0,0.0,0.0,0.0,0.0,0.0,0.0,0.0,0.0,0.0,0.0,2.6003,2.76,2.8838,3.1823,3.3897,3.4681,3.697,3.8345,3.8599,3.909,3.9494,3.9698,3.9474,3.9255,3.8974,3.9474,3.9301,3.8612,3.9157,3.9306,3.9122,3.8884,3.9315,4.0089,4.0026,4.0314,4.0692,3.9397,3.8464,3.7474,0.0,3.3457,3.3316,3.2493,3.2527,3.3242,3.494,3.5127,3.4415,3.2799,3.302,3.4088,3.5668,0.0,4.0164,4.1654,4.2982,4.3931,4.3931,4.4302,4.4734,4.4992,4.463,4.438,4.4613,4.4665,4.4665,4.4665,4.532,4.6069,4.6845,4.7603,4.8344,4.9103,4.9683,0.0,0.0,0.0,0.0,5.0011,5.0011,5.0218,5.0718,5.0976,5.1202,5.1501,5.1718,5.1718,5.1518,5.0978,5.0735,5.0735,5.0235,5.0011,5.0011,4.9755,4.9619,4.9619,4.9619,4.9755,4.9993,4.9717,4.9017,4.8037,4.753,4.6608,4.5533,4.5436,4.4752,4.3927,0.0,0.0,0.0,0.0,0.0,0.0,0.0,0.0,0.0,0.0,0.0,0.0,0.0,0.0,0.0,0.0,0.0,2.6285,2.7526,2.9962,3.1631,3.2195,3.4323,3.5606,3.5879,3.6078,3.64,3.687,3.765,3.7823,3.7426,3.9153,3.9572,3.886,3.9346,3.9469,3.9311,3.9458,3.9386,3.9173,3.9348,3.8947,3.8172,3.6988,3.5857,0.0,3.1934,3.0471,2.9809,3.007,3.0454,3.115,3.3105,3.3571,3.3363,3.3137,3.4101,3.5718,3.813,4.0009,4.1671,4.3207,4.4156,4.4682,4.4682,4.5061,4.5397,4.5397,4.482,4.4311,4.4311,4.4311,4.4207,4.3949,4.4527,4.5285,4.6052,4.6837,4.7672,4.8672,4.9499,5.0011,0.0,0.0,0.0,5.0011,5.0011,5.0218,5.0683,5.1218,5.1718,5.217,5.2494,5.2649,5.2649,5.186,5.1373,5.1097,5.0355,5.0011,5.0011,5.0011,5.0011,5.0011,5.0011,5.0011,5.0011,5.0011,4.9412,4.8449,4.7909,4.7096,4.6158,4.5593,4.5167,4.4852,0.0,0.0,0.0,0.0,0.0,0.0,0.0,0.0,0.0,0.0,0.0,0.0,0.0,0.0,0.0,0.0,0.0,0.0,2.6637,2.6822,2.7842,3.0049,3.0045,3.0304,3.1008,3.0838,3.1095,3.1818,3.5117,3.6145,3.5097,3.8412,3.9582,3.8918,3.8918,3.8939,3.898,3.9368,3.8323,3.6402,3.6201,3.4996,3.3281,3.3247,3.176,2.9796,3.0404,2.9244,2.7528,2.8319,2.8686,2.9038,3.0576,3.1541,3.2559,3.4731,3.5456,3.6335,3.998,4.1567,4.2534,4.4,4.4889,4.5397,4.5397,4.5397,4.538,4.5345,4.4751,4.4225,0.0,0.0,4.4018,4.331,4.3845,4.4596,4.5294,4.6148,4.7182,0.0,0.0,0.0,0.0,0.0,0.0,5.0011,0.0,5.0028,5.0062,5.139,5.217,5.2239,5.2977,5.3356,5.3408,5.258,5.1757,5.1045,5.0338,5.0011,5.0011,5.0011,5.0011,5.0011,5.0011,5.0011,5.0011,5.0011,4.9208,4.7997,4.7786,4.6901,4.5665,4.5486,4.5397,4.5318,0.0,0.0,0.0,0.0,0.0,0.0,0.0,0.0,0.0,0.0,0.0,0.0,0.0,0.0,0.0,0.0,0.0,0.0,2.4927,2.6637,2.7748,2.8047,3.0002,3.1156,3.1306,3.1356,3.1612,3.209,3.2801,3.2967,3.2679,3.3573,3.389,3.3717,3.3717,3.3906,3.4235,3.4341,3.4247,3.4053,3.3972,3.3552,3.2857,3.1529,3.0558,2.9782,2.8667,2.7894,2.7513,0.0,0.0,0.0,0.0,3.6266,3.6973,3.756,3.8922,4.0498,4.1464,4.3095,4.4647,4.5001,4.5259,4.5397,4.5397,4.5397,4.5225,4.4682,4.4,4.3293,0.0,0.0,0.0,4.3224,4.4268,0.0,4.5363,4.6552,0.0,4.7931,0.0,5.0011,5.0011,5.0011,0.0,0.0,5.0011,5.0252,5.0804,5.1183,5.1925,5.3063,5.2718,5.2804,5.3391,5.2063,5.1028,5.0287,5.0097,5.0011,5.0011,5.0011,5.0011,5.0011,5.0011,5.0011,5.0011,5.0011,4.9786,4.936,4.8178,4.7468,4.7013,4.5826,4.5397,4.5371,0.0,0.0,0.0,0.0,0.0,0.0,0.0,0.0,0.0,0.0,0.0,0.0,0.0,0.0,0.0,0.0,0.0,0.0,0.0,2.5567,2.6223,2.5994,2.7398,2.8179,2.8116,2.8076,2.8166,2.8379,2.9722,3.033,3.0203,3.1702,3.2403,3.2403,3.2403,3.2554,3.2832,3.3003,3.2436,0.0,0.0,3.0362,2.9119,2.8536,2.8184,2.7991,2.7685,2.8594,0.0,0.0,0.0,3.5873,3.7478,3.8272,3.8807,3.9807,0.0,4.2216,4.3216,4.4415,4.5397,4.5397,4.5397,4.5311,4.4992,4.4923,4.4803,4.4397,4.3707,0.0,0.0,0.0,0.0,0.0,0.0,0.0,4.4923,4.6251,4.7355,0.0,4.9062,0.0,5.0011,5.0011,5.0011,0.0,5.0011,5.0183,5.0614,5.0925,5.1511,5.2373,5.2257,5.2412,5.2873,5.1701,5.0907,5.0493,5.0149,5.0011,5.0011,5.0011,5.0011,5.0011,0.0,5.0011,5.0011,5.0011,5.0011,4.9855,4.8303,4.7689,4.75,4.5966,4.5397,4.5397,0.0,0.0,0.0,0.0,0.0,0.0,0.0,0.0,0.0,0.0,0.0,0.0,0.0,0.0,0.0,0.0,0.0,0.0,0.0,0.0,2.4312,2.4303,2.4143,2.4026,2.3958,2.3703,2.3555,2.3555,2.6489,2.7769,2.7553,3.0513,3.1928,3.1928,3.1928,3.1895,3.1924,3.2292,3.0935,2.8556,2.8265,2.6747,2.4745,0.0,0.0,2.5884,2.7355,3.0084,0.0,0.0,3.6667,3.8254,3.91,3.9405,3.9888,4.1871,4.244,4.2871,4.4846,4.5397,4.5397,4.5397,4.5397,4.5207,4.4483,4.4311,4.4276,4.4173,0.0,4.3396,4.4035,4.4225,4.4087,4.3448,0.0,4.4449,4.4449,4.5768,4.6993,4.7603,4.9062,5.0011,5.0011,5.0011,5.0011,5.0011,5.0011,5.0011,5.0011,5.0614,5.0959,5.0959,5.1653,5.2028,5.1895,5.1287,5.0959,5.0959,5.0321,5.0011,5.0011,5.0011,5.0011,5.0011,5.0011,5.0011,5.0011,5.0011,5.0011,4.9873,4.8424,4.7775,4.7517,4.6086,4.5483,4.5397,0.0,0.0,0.0,0.0,0.0,0.0,0.0,0.0,0.0,0.0,2.1087,2.2052,0.0,0.0,0.0,0.0,0.0,0.0,0.0,0.0,0.0,2.4394,2.4358,2.4303,2.4229,2.4018,2.3886,2.3827,2.4201,2.434,2.43,2.4902,2.5218,2.5265,2.5218,2.5177,2.5177,2.5201,2.5285,2.5385,2.5332,2.553,2.5924,2.6335,0.0,0.0,2.7892,0.0,3.2842,3.6025,3.8945,4.1464,4.2879,4.3733,4.4294,4.469,4.4794,4.4897,4.5294,4.5397,4.5397,4.5397,4.5397,4.5207,4.4483,4.4311,0.0,0.0,4.3293,4.3241,4.3362,4.3897,4.4259,4.4138,0.0,0.0,0.0,0.0,4.7579,0.0,0.0,0.0,0.0,0.0,0.0,0.0,5.0011,5.0011,5.0011,5.0131,5.02,5.02,5.0925,5.1011,5.039,5.0252,5.02,5.02,5.0062,5.0011,5.0011,5.0011,5.0011,5.0011,5.0011,0.0,5.0011,5.0011,5.0011,4.9907,4.8965,4.8224,4.7569,4.6734,4.5966,4.5397,0.0,0.0,0.0,0.0,0.0,0.0,0.0,1.9613,1.9606,1.9652,2.1023,2.1996,2.1996,2.3506,2.45,0.0,0.0,0.0,0.0,0.0,0.0,0.0,0.0,0.0,2.4348,2.4257,2.4182,2.4163,0.0,2.4541,2.4541,2.4967,2.5168,2.5218,2.5186,2.5175,2.5157,2.5125,2.531,2.5629,2.5485,2.5737,0.0,0.0,0.0,0.0,0.0,0.0,3.3354,3.5139,3.8646,4.2569,4.4328,4.513,4.5397,4.5397,4.5397,4.5397,4.5397,4.5397,4.5397,4.5397,4.5397,4.5104,4.3983,0.0,0.0,0.0,4.35,4.3897,4.4268,4.463,0.0,0.0,0.0,0.0,0.0,0.0,0.0,0.0,0.0,0.0,0.0,0.0,0.0,0.0,4.986,4.9889,5.0011,5.0011,5.0011,5.0011,5.0355,5.0373,5.0011,5.0011,5.0011,5.0011,5.0011,5.0011,5.0011,5.0011,5.0011,5.0011,5.0011,0.0,5.0011,5.0011,5.0011,4.9924,4.9103,4.8344,4.7603,4.6889,4.6086,4.5397,0.0,0.0,0.0,0.0,0.0,0.0,0.0,2.017,2.0138,2.0216,2.1421,2.2287,2.2287,2.3626,2.45,0.0,0.0,0.0,0.0,0.0,0.0,0.0,0.0,0.0,0.0,0.0,0.0,2.4903,2.5495,0.0,0.0,0.0,0.0,0.0,2.6716,2.6706,2.6706,2.6677,2.6746,0.0,0.0,2.6652,0.0,0.0,0.0,0.0,0.0,0.0,0.0,0.0,3.744,4.1528,4.3533,4.4518,4.4941,4.4941,4.4914,4.494,4.5311,4.5371,4.5353,4.5397,4.5397,4.5079,4.3741,4.388,0.0,0.0,4.3897,4.4535,4.5259,4.5397,4.5397,0.0,4.5397,0.0,0.0,0.0,0.0,0.0,0.0,0.0,0.0,0.0,0.0,0.0,0.0,4.9755,4.9982,5.0011,5.0011,5.0011,5.0011,5.0011,5.0011,5.0011,5.0011,5.0011,5.0011,5.0011,5.0011,5.0011,5.0011,5.0011,5.0011,0.0,0.0,5.0011,5.0011,4.9942,4.9292,4.8482,4.762,4.7034,4.6224,4.5397,0.0,0.0,0.0,0.0,0.0,0.0,0.0,2.1868,2.186,2.1886,2.2682,2.3273,2.3273,2.4011,2.45,0.0,0.0,0.0,0.0,0.0,0.0,0.0,0.0,0.0,0.0,0.0,0.0,2.6588,2.6662,0.0,0.0,0.0,0.0,0.0,0.0,2.6704,2.6704,2.6633,0.0,0.0,0.0,0.0,0.0,0.0,0.0,0.0,0.0,0.0,0.0,0.0,0.0,3.7258,3.9514,4.1681,4.3396,4.3396,0.0,0.0,4.4992,4.53,4.5247,4.5371,4.5397,4.5173,4.4397,0.0,0.0,4.4207,4.4259,4.4535,4.5259,4.5397,4.5397,4.5397,0.0,4.5673,0.0,0.0,0.0,0.0,0.0,0.0,0.0,0.0,0.0,0.0,4.9518,4.9654,4.9982,5.0011,5.0011,5.0011,5.0011,5.0011,5.0011,5.0011,5.0011,5.0011,5.0011,5.0011,5.0011,5.0011,5.0011,5.0011,5.0011,0.0,0.0,5.0011,5.0011,4.9993,4.9924,4.901,4.7672,4.7603,4.6655,4.5397,0.0,0.0,0.0,0.0,0.0,0.0,2.2224,2.2184,2.2158,2.2224,2.2899,2.34,2.3397,2.4078,2.4549,2.4497,0.0,0.0,0.0,0.0,0.0,0.0,0.0,0.0,0.0,0.0,2.608,2.685,2.7351,0.0,0.0,0.0,0.0,0.0,0.0,2.8204,2.8204,0.0,0.0,0.0,0.0,0.0,0.0,0.0,0.0,0.0,0.0,0.0,0.0,0.0,0.0,0.0,3.7464,3.8963,0.0,0.0,4.2962,4.3237,4.4861,4.5247,4.5203,4.5274,4.5026,4.4621,4.4277,0.0,4.4311,4.4311,4.4647,4.5061,4.5345,4.5397,4.5397,4.5397,4.5397,0.0,0.0,0.0,0.0,0.0,0.0,0.0,0.0,0.0,0.0,0.0,4.9518,4.9547,4.9683,4.9772,4.986,5.0011,5.0011,5.0011,5.0011,5.0011,5.0011,5.0011,5.0011,5.0011,5.0011,5.0011,5.0011,5.0011,5.0011,0.0,0.0,5.0011,5.0011,5.0011,5.0011,4.9062,4.7689,4.7689,4.6707,4.5397,0.0,0.0,0.0,0.0,0.0,2.3018,2.3018,2.297,2.2963,2.2992,2.3461,2.3775,2.3783,2.4284,2.4615,2.4564,2.4532,0.0,0.0,0.0,0.0,0.0,0.0,0.0,0.0,0.0,2.6572,2.7631,2.8207,2.8466,0.0,0.0,2.9262,2.92,0.0,0.0,0.0,0.0,0.0,0.0,0.0,0.0,0.0,0.0,0.0,0.0,0.0,0.0,0.0,0.0,0.0,0.0,0.0,3.7099,3.8479,0.0,4.2152,4.2569,4.437,4.4969,4.5086,4.514,4.4835,4.4535,0.0,0.0,4.463,4.463,4.5044,4.5397,4.5397,4.5397,4.5397,4.5397,0.0,4.5673,4.6493,0.0,0.0,0.0,0.0,4.9409,0.0,0.0,0.0,4.9411,4.935,4.9367,4.9411,4.95,4.9666,4.9889,4.9906,4.9935,5.0011,5.0011,5.0011,5.0011,5.0011,5.0011,5.0011,5.0011,5.0011,5.0011,5.0011,0.0,0.0,5.0011,5.0011,5.0011,5.0011,4.9062,4.7689,4.7689,4.6707,4.5397,0.0,0.0,0.0,0.0,0.0,0.0,2.4681,2.4662,2.4662,2.4662,2.4681,2.4681,2.4681,2.4687,2.4701,2.4701,2.4572,0.0,0.0,0.0,0.0,0.0,0.0,0.0,0.0,0.0,2.7706,2.9359,2.9378,2.9378,2.9378,2.9334,2.9262,2.9189,0.0,0.0,0.0,0.0,0.0,0.0,0.0,0.0,0.0,0.0,0.0,0.0,0.0,0.0,0.0,0.0,0.0,0.0,0.0,3.6361,3.6851,3.9538,4.0354,4.0964,4.3434,4.4458,4.4831,4.4951,4.5096,4.5203,0.0,0.0,4.538,4.538,4.5397,4.5397,4.5397,4.5397,4.5397,4.5397,4.5397,0.0,4.6493,0.0,0.0,0.0,0.0,0.0,0.0,0.0,4.9063,4.9199,4.9094,0.0,4.9199,4.9199,4.935,4.9708,4.9708,4.9784,5.0011,5.0011,5.0011,5.0011,5.0011,5.0011,5.0011,5.0011,5.0011,5.0011,0.0,0.0,0.0,5.0011,5.0011,5.0011,5.0011,4.9062,4.7689,4.7689,4.6707,4.5397,0.0,0.0,0.0,0.0,0.0,0.0,0.0,2.47,2.47,2.47,2.47,2.47,2.47,2.4692,2.4703,2.4703,2.4613,0.0,0.0,0.0,0.0,0.0,0.0,0.0,0.0,0.0,2.7724,2.9396,2.9396,2.9396,2.9396,2.9376,2.9334,2.9262,2.9259,0.0,0.0,0.0,0.0,0.0,0.0,0.0,0.0,0.0,0.0,0.0,0.0,0.0,0.0,0.0,0.0,0.0,0.0,0.0,0.0,3.9741,4.0077,0.0,4.3372,4.3828,4.358,4.3954,4.3938,4.3933,4.4345,0.0,4.4785,4.5294,4.5397,4.5397,4.5397,4.5397,4.5397,4.5397,4.5397,0.0,0.0,0.0,0.0,0.0,0.0,0.0,0.0,0.0,4.9367,4.9381,4.9229,4.9168,4.9199,4.9107,4.926,4.9679,4.9708,4.9784,5.0011,5.0011,5.0011,5.0011,5.0011,5.0011,5.0011,5.0011,5.0011,0.0,0.0,0.0,0.0,5.0011,5.0011,5.0011,5.0011,4.9062,4.7689,4.7689,4.6707,4.5397,0.0,0.0,0.0,0.0,0.0,0.0,0.0,2.47,2.47,2.47,2.47,2.47,2.47,2.47,2.47,2.47,2.466,0.0,0.0,0.0,0.0,0.0,0.0,0.0,2.6869,2.7204,2.8021,2.9396,2.9396,2.9396,2.9396,2.9396,2.9365,2.9302,2.9262,2.9291,0.0,0.0,0.0,0.0,0.0,0.0,2.95,0.0,0.0,0.0,0.0,0.0,0.0,0.0,0.0,0.0,0.0,0.0,0.0,0.0,4.0397,4.0639,0.0,4.3553,4.3409,4.3844,4.385,0.0,0.0,4.4734,4.4889,4.5563,4.5537,4.5397,4.5397,4.5397,4.5397,4.5397,4.5397,4.55,0.0,0.0,0.0,4.7945,0.0,0.0,0.0,4.9167,4.9337,4.9381,4.926,4.9168,4.9124,4.9077,4.9199,4.95,4.959,4.9725,4.9889,4.9964,5.0011,5.0011,5.0011,5.0011,5.0011,5.0011,5.0011,0.0,0.0,0.0,0.0,5.0011,5.0011,5.0011,5.0011,4.9062,4.7689,4.7689,4.6707,4.5397,0.0,0.0,0.0,0.0,0.0,0.0,0.0,2.47,2.47,2.47,2.47,2.4718,2.4801,2.4801,2.482,2.4869,0.0,0.0,0.0,0.0,0.0,0.0,0.0,0.0,2.6869,2.7687,2.8523,2.9396,2.9396,2.9396,2.9396,2.9396,2.9365,2.9312,2.924,2.924,2.9291,2.9285,2.9204,2.9097,2.9152,2.961,0.0,0.0,0.0,0.0,0.0,0.0,0.0,0.0,0.0,0.0,0.0,0.0,0.0,0.0,0.0,0.0,0.0,4.3545,0.0,0.0,0.0,0.0,0.0,4.5665,0.0,4.6087,4.5778,4.5397,4.5397,4.5397,4.5397,4.5397,4.5397,4.5673,0.0,4.7286,0.0,0.0,4.8877,0.0,4.8175,4.8636,4.9063,4.9199,4.9199,4.9138,4.9032,4.9138,4.9199,4.9199,4.9381,4.956,4.9708,4.9889,4.9982,5.0011,5.0011,5.0011,5.0011,5.0011,5.0011,0.0,0.0,0.0,0.0,5.0011,5.0011,5.0011,5.0011,4.9062,4.7689,4.7689,4.6707,4.5397,0.0,0.0,0.0,0.0,0.0,0.0,0.0,0.0,0.0,0.0,2.47,2.4951,2.5617,2.5692,2.5936,0.0,0.0,0.0,0.0,0.0,0.0,0.0,0.0,0.0,2.6907,2.7687,2.8523,2.9396,2.9396,2.9396,2.9396,2.9396,2.9396,2.9376,2.9365,2.9304,2.9266,2.9873,3.004,2.9971,3.0595,3.0944,0.0,0.0,0.0,0.0,3.4215,3.5261,0.0,0.0,0.0,0.0,0.0,0.0,0.0,0.0,4.1089,4.1446,4.2996,0.0,4.364,4.4083,4.4842,4.5529,0.0,4.5881,0.0,0.0,0.0,0.0,4.5397,4.5397,4.5397,4.5397,4.5397,4.5673,4.6493,4.7707,0.0,4.8209,4.8937,4.9031,4.803,4.8683,4.9168,4.9199,4.9199,4.926,4.9367,4.926,4.9199,4.9199,4.95,4.9679,4.9708,4.9755,4.986,5.0011,5.0011,5.0011,5.0011,5.0011,5.0011,0.0,0.0,0.0,5.0011,5.0011,5.0011,5.0011,5.0011,4.9062,4.7689,4.7689,4.6707,4.5397,0.0,0.0,0.0,0.0,0.0,0.0,0.0,0.0,0.0,0.0,0.0,0.0,0.0,0.0,0.0,0.0,0.0,0.0,0.0,0.0,0.0,0.0,0.0,2.7445,2.7445,2.8263,2.8932,2.9396,2.9768,2.9954,2.9954,3.0326,3.0493,3.0493,3.0493,3.0417,3.03,3.0755,3.0869,3.0797,3.1231,0.0,0.0,0.0,0.0,0.0,3.5133,3.6138,0.0,3.7771,3.834,3.8762,0.0,0.0,0.0,0.0,4.1625,4.2396,4.3259,4.3743,4.4075,4.451,4.5325,4.613,4.6489,4.6381,4.6315,0.0,0.0,0.0,4.5701,4.5788,4.5713,4.5466,4.5929,4.6549,4.7017,0.0,4.8243,4.8309,4.863,4.8762,0.0,4.8856,4.9107,4.9107,4.9229,4.935,4.935,4.9411,4.935,4.9199,4.9471,4.9619,4.9619,4.9755,4.9889,5.0011,5.0011,5.0011,5.0011,5.0011,5.0011,0.0,0.0,0.0,5.0011,5.0011,5.0011,5.0011,5.0011,4.9062,4.7689,4.7689,4.6707,4.5397,0.0,0.0,0.0,0.0,0.0,0.0,0.0,0.0,0.0,0.0,0.0,0.0,0.0,0.0,0.0,0.0,0.0,0.0,0.0,0.0,0.0,0.0,2.7854,2.8244,2.8096,2.9062,2.9582,2.9582,3.0381,3.0772,3.079,3.1478,3.1794,3.1794,3.1794,3.1691,3.1537,3.1703,3.171,3.1586,3.1727,0.0,0.0,0.0,0.0,0.0,0.0,0.0,0.0,3.8432,3.8707,3.8817,3.9496,0.0,0.0,0.0,0.0,0.0,4.3478,4.4342,4.5279,4.5447,4.6076,4.6858,4.7549,4.7049,4.6654,0.0,0.0,0.0,0.0,4.6239,4.6038,4.5602,4.6639,4.7573,4.7817,4.7853,4.8026,4.8512,4.845,0.0,4.9039,4.9057,4.9032,4.9032,4.926,4.935,4.926,4.953,4.953,4.926,4.9458,4.9547,4.9518,4.9801,4.9964,5.0011,5.0011,5.0011,5.0011,5.0011,5.0011,4.9993,0.0,0.0,4.9821,4.97,4.9666,4.9666,4.9769,4.889,4.7534,4.7655,4.6707,4.5397,0.0,0.0,0.0,0.0,0.0,0.0,0.0,0.0,0.0,0.0,0.0,0.0,0.0,0.0,0.0,0.0,0.0,0.0,0.0,0.0,0.0,2.7929,2.8746,2.8858,2.8114,2.9619,3.0418,3.0418,3.1218,3.1626,3.1626,3.1738,3.1794,3.1794,3.1794,3.1714,3.1641,3.2305,3.2539,3.2485,3.3164,0.0,0.0,0.0,0.0,0.0,0.0,0.0,0.0,3.8432,3.8707,3.8726,3.8854,0.0,0.0,0.0,0.0,0.0,4.3296,4.5535,4.7529,4.6963,4.7403,4.8044,4.8173,4.7775,4.7442,0.0,0.0,0.0,0.0,4.6135,4.5688,4.6096,4.691,4.7717,4.8381,0.0,4.9118,4.8504,0.0,4.923,4.857,4.8903,4.9168,4.9168,4.9124,4.9185,4.9458,4.9518,4.9518,4.9458,4.9742,4.9772,4.9518,4.9649,4.9813,5.0011,5.0011,5.0011,5.0011,5.0011,5.0011,4.9959,0.0,4.8965,4.893,4.8321,4.8062,4.8103,4.8723,4.8068,4.6855,4.7476,4.6707,4.5397,0.0,0.0,0.0,0.0,0.0,0.0,0.0,0.0,0.0,0.0,0.0,0.0,0.0,0.0,0.0,0.0,0.0,0.0,0.0,0.0,2.8096,2.8096,2.8932,2.9415,2.9452,3.0214,3.0809,3.1255,3.2054,3.2462,3.2462,3.289,3.3113,3.3101,3.3047,3.2975,3.2927,3.3259,3.3348,3.3293,0.0,0.0,0.0,0.0,0.0,0.0,0.0,0.0,0.0,0.0,3.8707,3.8781,3.9203,0.0,0.0,0.0,0.0,0.0,4.3277,4.5517,4.7715,4.8228,4.8902,4.9448,4.9448,4.908,4.8699,4.8598,4.7597,0.0,0.0,0.0,4.688,4.7957,0.0,4.7864,4.8604,4.8673,4.8627,0.0,0.0,4.9112,4.9105,4.9253,4.935,4.935,4.9381,4.9458,4.959,4.9713,4.9742,4.9619,4.986,4.986,4.9619,4.9801,4.9906,5.0011,5.0011,5.0011,5.0011,5.0011,5.0011,4.9959,0.0,4.8792,4.8741,4.8,4.7689,4.7724,4.8051,4.7534,4.6596,4.6483,4.6,4.5397,0.0,0.0,0.0,0.0,0.0,0.0,0.0,0.0,0.0,0.0,0.0,0.0,0.0,0.0,0.0,0.0,0.0,0.0,0.0,2.7865,2.792,2.8096,2.8932,2.9768,3.0586,3.0772,3.1273,3.2072,3.289,3.328,3.3287,3.39,3.4197,3.4197,3.4136,3.4061,3.3998,3.3934,3.3855,3.3825,0.0,0.0,0.0,0.0,0.0,0.0,0.0,0.0,0.0,0.0,0.0,0.0,0.0,0.0,0.0,3.9441,4.0891,4.2488,4.3277,4.5388,4.7697,4.9047,4.9663,4.9984,5.0326,4.9996,4.9615,4.9638,4.8534,4.7716,0.0,4.7858,0.0,4.9062,4.85,4.8178,4.8965,4.854,4.8402,4.8999,4.8982,4.9165,4.9732,4.9619,4.9547,4.9547,4.9619,4.9679,4.9708,4.986,4.986,4.9708,4.9906,4.9889,4.9708,4.9889,5.0011,5.0011,5.0011,5.0011,5.0011,5.0011,5.0011,4.9959,4.9137,4.8689,4.8482,4.7741,4.731,4.7172,4.7389,4.7113,4.651,4.569,4.5397,4.5397,0.0,0.0,0.0,0.0,0.0,0.0,0.0,0.0,0.0,0.0,0.0,0.0,0.0,0.0,0.0,0.0,0.0,0.0,0.0,2.7047,2.7382,2.8077,2.8932,2.9768,3.0586,3.1329,3.2109,3.2908,3.3714,3.4104,3.4104,3.416,3.4197,3.4197,3.4136,3.4061,3.3998,3.3934,3.3855,3.3862,3.4619,0.0,0.0,0.0,0.0,0.0,0.0,0.0,0.0,0.0,0.0,0.0,0.0,0.0,3.8707,3.8781,4.0451,4.2488,4.3277,4.5755,4.8332,4.9193,4.8924,4.8797,5.0091,4.9893,4.9588,5.0198,4.9462,4.8823,4.9204,4.8569,4.7929,4.7855,4.8231,4.8856,4.9775,0.0,4.9646,4.9878,4.9924,4.9913,4.9964,4.9784,4.9679,4.9679,4.956,4.956,4.9708,4.9708,4.9708,4.9708,4.9906,4.9889,4.9708,4.9889,5.0011,5.0011,5.0011,5.0011,5.0011,5.0011,5.0011,4.9959,4.9137,4.8396,4.7707,4.6993,4.6224,4.5638,4.6379,4.6665,4.651,4.569,4.5397,4.5397,0.0,0.0,0.0,0.0,0.0,0.0,0.0,0.0,0.0,0.0,0.0,0.0,0.0,0.0,0.0,0.0,0.0,0.0,0.0,2.7726,2.7847,2.8096,2.9415,3.0511,3.1329,3.2128,3.2946,3.3751,3.4048,3.4197,3.4197,3.4197,3.4173,3.4136,3.4074,3.3998,3.3934,3.3855,3.3815,3.3825,3.4137,3.4546,0.0,0.0,0.0,0.0,0.0,0.0,0.0,0.0,3.8707,3.8707,3.8707,3.8707,3.8707,3.8707,3.9698,4.1203,4.3002,4.5041,4.7107,4.8936,4.9195,4.9338,5.0717,5.0842,5.0572,5.0329,4.9918,4.9356,4.8496,0.0,4.9318,4.8532,4.9005,4.9608,4.9959,4.9935,4.9918,5.0011,5.0011,5.0011,5.0011,4.9935,4.9889,4.9889,4.9848,4.983,4.9889,4.9889,4.9889,4.9889,4.9964,4.9964,4.9889,4.9964,5.0011,5.0011,5.0011,5.0011,5.0011,5.0011,5.0011,4.9959,4.9137,4.8379,4.762,4.6879,4.6148,4.5432,4.5725,4.5845,4.5811,4.5518,4.5397,4.5397,0.0,0.0,0.0,0.0,0.0,0.0,0.0,0.0,0.0,0.0,0.0,0.0,0.0,0.0,0.0,0.0,0.0,0.0,2.8901,2.8965,2.9047,2.9266,3.0604,3.1626,3.2165,3.2983,3.364,3.4197,3.4197,3.4197,3.4179,3.3937,3.3931,3.4117,3.3802,3.3771,3.3959,3.3868,3.3815,3.3852,3.4082,3.4509,0.0,0.0,0.0,0.0,0.0,0.0,0.0,0.0,3.8707,3.8707,3.8707,3.8707,3.8707,3.8707,3.9808,4.1458,4.3351,4.5168,4.7054,4.9288,4.9636,4.9795,5.1151,5.1271,5.1049,5.0973,5.0739,5.0069,4.8526,0.0,0.0,0.0,4.9493,5.0011,5.0011,5.0011,5.0011,5.0011,5.0011,5.0011,5.0011,5.0011,5.0011,5.0011,5.0011,0.0,0.0,5.0011,5.0011,5.0011,5.0011,5.0011,5.0011,5.0011,5.0011,5.0011,5.0011,5.0011,5.0011,5.0011,5.0011,4.9976,4.9441,4.8741,4.7982,4.7241,4.6328,4.5397,4.5397,4.5397,4.5397,4.5397,4.5552,4.5776,0.0,0.0,0.0,0.0,0.0,0.0,0.0,0.0,0.0,0.0,0.0,0.0,0.0,0.0,0.0,0.0,0.0,0.0,3.0663,3.0642,3.0964,3.1775,3.2574,3.3001,3.3001,3.3788,3.4197,3.4197,3.4197,3.4197,3.4179,3.338,3.3436,3.416,3.3302,3.3358,3.4105,3.3978,3.3913,3.3987,3.472,3.5023,3.5114,0.0,0.0,0.0,0.0,0.0,0.0,0.0,3.8707,3.8707,3.8707,3.8707,3.8707,3.8707,4.0965,4.3626,4.447,4.6452,4.8691,5.0362,5.0178,4.9973,5.1301,5.0982,5.083,5.2286,5.2009,5.1061,4.9662,4.974,0.0,4.8916,4.9493,5.0011,5.0011,5.0011,5.0011,5.0011,5.0011,5.0011,5.0011,5.0011,5.0011,5.0011,5.0011,0.0,0.0,5.0011,5.0011,5.0011,5.0011,5.0011,5.0011,5.0011,5.0011,5.0011,5.0011,5.0011,5.0011,5.0011,5.0011,5.0011,5.0011,4.9545,4.8741,4.7982,4.6776,4.5414,4.5397,4.5397,4.5397,4.5397,4.5897,4.6613,0.0,0.0,0.0,0.0,0.0,0.0,0.0,0.0,0.0,0.0,0.0,0.0,0.0,0.0,0.0,0.0,0.0,0.0,3.148,3.1525,3.1596,3.1794,3.2574,3.3001,3.3001,3.3788,3.4197,3.4197,3.4197,3.4197,3.4179,3.3956,3.4266,3.5007,3.413,3.416,3.4877,3.4828,3.4756,3.4738,3.5569,3.5917,3.5936,0.0,0.0,0.0,0.0,0.0,0.0,0.0,0.0,0.0,3.8707,3.8707,3.8817,3.9386,4.0212,4.1387,4.3332,4.5572,4.7642,4.8764,5.01,5.1245,5.1658,5.1484,5.142,5.2051,5.1636,5.0825,4.9749,5.0092,0.0,4.8974,4.9493,5.0011,5.0011,5.0011,5.0011,5.0011,5.0011,5.0011,5.0011,5.0011,5.0011,5.0011,5.0011,0.0,0.0,5.0011,5.0011,5.0011,5.0011,5.0011,5.0011,5.0011,5.0011,5.0011,5.0011,5.0011,5.0011,5.0011,5.0011,5.0011,5.0011,4.9545,4.8689,4.7431,4.6665,4.6199,4.5621,4.5397,4.5397,4.5397,4.5897,4.6613,0.0,0.0,0.0,0.0,0.0,0.0,0.0,0.0,0.0,0.0,2.9092,2.9514,0.0,0.0,0.0,0.0,0.0,0.0,0.0,3.2824,3.2653,3.2295,3.3045,3.3473,3.3473,3.3956,3.4197,3.4197,3.4197,3.4395,3.4711,3.403,3.4352,3.5391,3.4538,3.458,3.5349,3.5642,3.5685,3.5639,3.614,3.6313,3.6321,0.0,0.0,0.0,0.0,0.0,0.0,0.0,0.0,0.0,3.8707,3.8707,3.8982,4.0432,4.1075,4.2009,4.5094,4.6965,4.8394,4.9883,5.1071,5.1964,5.2212,5.2224,5.2138,5.2071,5.194,5.1527,5.0586,5.0925,0.0,4.9799,4.999,5.0235,5.0022,5.0011,5.0011,5.0011,5.0011,5.0011,5.0011,5.0011,5.0011,5.0011,5.0011,0.0,0.0,5.0011,5.0011,5.0011,5.0011,5.0011,5.0011,5.0011,5.0011,5.0011,5.0011,5.0011,5.0011,5.0011,5.0011,5.0011,5.0011,4.9545,4.8706,4.7527,4.6872,4.6527,4.5707,4.5397,4.5397,4.5397,4.5897,4.6648,0.0,0.0,0.0,0.0,0.0,0.0,0.0,0.0,0.0,0.0,3.1081,3.14,0.0,0.0,0.0,0.0,0.0,0.0,0.0,3.4233,3.3863,3.3138,3.3807,3.4197,3.4197,3.4197,3.4234,3.4309,3.4234,3.4643,3.5473,3.3949,3.4116,3.5677,3.481,3.4903,3.5757,3.6417,3.667,3.6593,3.6611,3.6577,3.6597,3.7327,0.0,0.0,0.0,0.0,0.0,0.0,0.0,0.0,3.8707,3.8707,3.9166,4.1497,4.28,4.4341,4.8215,4.9482,5.0253,5.2435,5.2546,5.2268,5.2877,5.302,5.2872,5.2366,0.0,5.2676,5.1842,5.1897,5.1799,5.0937,5.0766,5.0564,5.0051,5.0011,5.0011,5.0011,5.0011,5.0011,5.0011,5.0011,5.0011,5.0011,5.0011,0.0,5.0011,5.0011,5.0011,5.0011,5.0011,5.0011,5.0011,5.0011,5.0011,5.0011,5.0011,5.0011,5.0011,5.0011,5.0011,5.0011,5.0011,4.9597,4.8844,4.8103,4.7389,4.6631,4.5811,4.5466,4.5397,4.5397,4.5897,4.6717,0.0,0.0,0.0,0.0,0.0,0.0,0.0,0.0,0.0,0.0,0.0,0.0,0.0,0.0,0.0,0.0,0.0,0.0,0.0,3.4209,3.4123,3.3956,3.4104,3.4197,3.4197,3.4197,3.4544,3.5231,3.4544,3.4643,3.5491,3.5138,3.5826,3.7336,3.6519,3.6586,3.7325,3.747,3.7461,3.7421,3.8091,3.8276,3.8212,3.8434,3.8493,0.0,0.0,0.0,0.0,0.0,0.0,0.0,3.8707,3.8707,3.9056,4.0838,4.2378,4.3974,4.6104,4.8581,5.0674,5.1187,5.2142,5.2965,5.3127,5.3164,5.3082,5.2872,5.2676,5.2454,5.2268,5.1601,5.1026,5.083,5.0453,5.012,5.004,5.0011,5.0011,5.0011,5.0011,5.0011,5.0011,5.0011,5.0011,5.0011,5.0011,0.0,5.0011,5.0011,5.0011,5.0011,5.0011,5.0011,5.0011,5.0011,5.0011,5.0011,5.0011,5.0011,5.0011,5.0011,5.0011,5.0011,5.0011,4.9907,4.9683,4.8879,4.812,4.7407,4.6648,4.5949,4.5397,4.5397,4.5897,4.6717,0.0,0.0,0.0,0.0,0.0,0.0,0.0,0.0,0.0,0.0,0.0,0.0,0.0,0.0,0.0,0.0,0.0,0.0,0.0,0.0,3.3788,3.4179,3.3826,3.3993,3.4791,3.4822,3.5231,3.6067,3.5621,3.5844,3.6643,3.6253,3.6736,3.7875,3.7448,3.749,3.7858,3.8266,3.8363,3.8319,3.8755,3.8896,3.881,3.8792,3.9019,3.9323,3.9292,0.0,0.0,0.0,0.0,0.0,0.0,0.0,3.9662,4.1662,4.2561,4.3699,4.7278,4.8912,4.9994,5.1573,5.2582,5.3185,5.3185,5.3185,5.3185,5.3103,5.2934,5.2698,5.2454,5.1939,5.1493,5.1236,5.0739,5.0274,5.004,5.0011,5.0011,5.0011,5.0011,5.0011,5.0011,5.0011,5.0011,5.0011,0.0,5.0011,5.0011,5.0235,5.0263,5.0011,5.0263,5.0263,4.9993,5.0011,5.0011,5.0011,5.0011,5.0011,5.0011,5.0011,5.0011,5.0011,5.0011,5.0011,4.9942,4.912,4.8568,4.8103,4.7044,4.6355,4.5914,4.5535,4.5656,4.6173,0.0,0.0,0.0,0.0,0.0,0.0,0.0,0.0,0.0,0.0,0.0,0.0,0.0,0.0,0.0,0.0,0.0,0.0,0.0,0.0,0.0,3.416,3.3707,3.4079,3.5473,3.564,3.6105,3.6922,3.6922,3.7318,3.8079,3.7294,3.7336,3.8098,3.8098,3.8098,3.8154,3.8822,3.9152,3.9215,3.9215,3.9246,3.9287,3.9245,3.9605,4.0181,4.0134,4.0524,4.1003,4.0322,0.0,0.0,0.0,0.0,4.0524,4.2671,4.302,4.3773,4.8636,4.937,4.9462,5.2454,5.3185,5.3185,5.3185,5.3185,5.3185,5.3185,5.3185,5.306,5.2608,5.2384,5.2108,5.1651,5.1052,5.0509,5.0051,5.0011,5.0011,5.0011,5.0011,5.0011,5.0011,5.0011,5.0011,0.0,0.0,5.0011,5.0011,5.0509,5.0547,5.004,5.0509,5.0537,5.0011,5.0011,5.0011,5.0011,5.0011,5.0051,5.012,5.0022,5.0011,5.0011,5.0011,5.0011,4.9959,4.9372,4.9009,4.87,4.7568,4.6901,4.6527,4.5845,4.5518,4.5604,0.0,0.0,0.0,0.0,0.0,0.0,0.0,0.0,0.0,0.0,3.3838,3.3601,0.0,0.0,0.0,0.0,0.0,0.0,0.0,0.0,0.0,3.4197,3.4822,3.5268,3.551,3.6179,3.6928,3.7745,3.7745,3.8154,3.8915,3.8116,3.8172,3.8934,3.8934,3.8934,3.8952,3.9045,3.9453,4.0048,4.0048,4.0384,4.0888,4.0872,4.0917,4.0946,4.0946,4.1003,4.1077,4.0967,4.093,0.0,0.0,0.0,4.1132,4.2158,4.3369,4.4709,4.6159,4.8471,5.0912,5.2726,5.3185,5.3185,0.0,0.0,5.3185,0.0,5.3185,5.3185,5.3121,5.2338,5.1676,5.1601,5.0766,5.008,5.0011,5.0011,5.0011,5.0011,5.0011,5.0011,5.0011,0.0,0.0,0.0,5.0011,5.0011,5.0011,5.0509,5.0547,5.004,5.0509,5.0537,5.0011,5.0011,5.0011,5.0011,5.0011,5.0235,5.0684,5.0206,5.0011,5.0011,5.0011,5.0011,5.0022,5.0387,4.9841,4.8832,4.9079,4.8144,4.6596,4.6493,4.5983,4.5535,0.0,0.0,0.0,0.0,0.0,0.0,0.0,0.0,0.0,0.0,0.0,3.448,0.0,0.0,0.0,3.3913,0.0,0.0,0.0,0.0,0.0,3.4934,3.5733,3.6383,3.6829,3.7201,3.7764,3.8562,3.8562,3.899,3.9807,3.9468,3.9231,3.912,3.9602,3.9825,3.9863,4.0308,4.0684,4.0974,4.0948,4.165,4.2588,4.1585,4.2018,4.3051,4.2119,4.2066,4.2378,4.1919,4.1772,4.1682,4.1242,0.0,0.0,0.0,4.3112,4.4507,4.6654,4.8985,5.1187,5.2803,5.3185,5.3185,5.3185,5.3185,5.3185,5.3185,5.3185,5.3185,5.3185,5.2563,5.1964,5.1669,5.0964,5.0331,5.0051,5.0011,5.0011,5.0011,5.0011,0.0,0.0,0.0,0.0,0.0,5.0011,5.0011,5.0011,5.0776,5.0857,5.004,5.0803,5.083,5.0011,5.0011,5.0011,4.9993,5.0302,5.0397,5.0359,5.0415,5.0453,5.0425,5.0138,5.0011,5.004,5.0246,4.9998,4.9441,4.924,4.837,4.7182,4.6751,4.6086,4.5518,0.0,0.0,0.0,0.0,0.0,0.0,0.0,0.0,0.0,0.0,0.0,0.0,0.0,0.0,0.0,0.0,3.3961,0.0,0.0,0.0,0.0,3.582,3.6633,3.7359,3.7875,3.8098,3.8599,3.9435,3.9435,3.9863,4.0698,4.0698,4.0346,3.9751,4.0401,4.0698,4.075,4.1349,4.172,4.1943,4.2248,4.3238,4.4389,4.3374,4.4116,4.5477,4.3843,4.3642,4.4008,4.3033,4.2684,4.2573,4.1934,4.2154,0.0,0.0,0.0,4.4103,4.6929,4.86,5.005,5.2087,5.2601,5.2711,0.0,0.0,5.3185,0.0,5.3185,5.3185,5.3185,5.2761,5.2268,5.1866,5.1365,5.0857,5.0453,5.0274,5.0206,0.0,0.0,0.0,0.0,0.0,0.0,0.0,5.0011,5.0011,5.0011,5.1017,5.1105,5.0022,5.1026,5.1079,5.0011,5.0011,5.0011,4.9993,5.0415,5.0537,5.0415,5.0537,5.0766,5.0964,5.0274,5.0011,5.0011,5.0166,5.012,4.9942,4.9509,4.8761,4.7879,4.7165,4.6362,4.5759,0.0,0.0,0.0,0.0,0.0,0.0,0.0,0.0,0.0,0.0,0.0,0.0,3.3305,3.3838,3.3865,3.2903,3.2794,3.3268,3.4446,3.6276,0.0,3.6669,3.7642,0.0,3.7907,3.8655,3.9454,4.0327,4.0327,4.0736,4.1534,4.1534,4.1497,4.146,4.1516,4.1534,4.1534,4.1571,4.2036,4.2857,4.426,4.532,4.6225,4.7463,4.8012,4.7921,4.6433,4.5935,0.0,0.0,0.0,0.0,0.0,4.3507,4.3526,0.0,0.0,0.0,4.5553,4.6085,4.6929,5.0123,5.093,5.1334,0.0,0.0,5.3185,5.3185,5.3185,5.3185,5.3185,5.2761,5.2384,5.2361,5.1915,5.1569,5.1518,0.0,0.0,0.0,0.0,0.0,0.0,0.0,0.0,0.0,5.0011,5.0011,5.0011,5.1017,5.1105,5.0022,5.1026,5.1079,5.0011,5.0011,5.0011,5.0011,5.004,5.0564,5.1475,5.0481,5.062,5.15,5.0453,5.0011,5.0022,5.0564,5.0453,5.0051,5.0512,4.9913,4.8637,4.7896,4.7182,4.6414,0.0,0.0,0.0,0.0,0.0,0.0,0.0,0.0,0.0,0.0,0.0,0.0,0.0,3.6472,3.6496,3.6138,3.6096,3.6246,3.6577,3.7574,0.0,3.7741,3.8407,3.9024,3.9486,3.9788,4.0327,4.1163,4.1163,4.1571,4.237,4.237,4.2927,4.3931,4.2853,4.2649,4.3169,4.3745,4.4135,4.4528,4.5959,4.7018,4.772,4.7573,4.8507,4.9627,4.7499,0.0,0.0,0.0,0.0,0.0,0.0,0.0,0.0,0.0,4.3515,4.3956,4.6104,4.6654,4.7314,5.0105,5.1187,5.172,5.2307,5.2839,5.3185,5.3185,5.3185,5.3185,5.3185,5.3039,5.2806,5.2454,5.2244,5.1866,0.0,0.0,0.0,0.0,0.0,0.0,0.0,0.0,0.0,0.0,0.0,5.0011,5.0011,5.0684,5.0766,5.0022,5.0712,5.0739,5.0011,5.0011,5.0011,5.0011,5.0011,5.0206,5.0575,5.0537,5.0537,5.0564,5.0537,5.0331,4.9993,5.0206,5.0178,5.004,5.0206,4.9664,4.8758,4.8499,4.7931,4.7189,0.0,0.0,0.0,0.0,0.0,0.0,0.0,0.0,0.0,3.8093,0.0,0.0,0.0,0.0,3.7991,3.8007,3.8277,3.8343,3.812,3.909,3.949,3.9125,3.9783,4.0368,4.0787,4.0806,4.12,4.1999,4.1999,4.2407,4.3206,4.3503,4.4228,4.5249,4.4413,4.4339,4.4878,4.5454,4.5695,4.5846,4.7531,4.8402,4.8679,4.8751,4.9649,5.0645,0.0,0.0,0.0,0.0,0.0,0.0,0.0,0.0,0.0,0.0,0.0,0.0,4.5792,0.0,0.0,0.0,5.0362,5.0967,5.1793,0.0,5.2876,5.313,5.3185,5.3185,5.3185,5.3185,5.3082,5.2739,0.0,0.0,0.0,0.0,0.0,0.0,0.0,0.0,0.0,0.0,0.0,0.0,0.0,0.0,5.0011,5.0509,5.0712,5.0537,5.0537,5.0453,5.0274,5.008,5.0011,5.0011,5.0011,5.008,5.0274,5.0453,5.0443,5.0274,5.0453,5.0331,5.0011,5.0011,5.0011,5.0011,5.0011,4.9683,4.9154,4.8896,4.8482,4.7948,0.0,0.0,0.0,0.0,0.0,0.0,0.0,0.0,3.8144,3.8163,0.0,0.0,0.0,0.0,0.0,3.8104,3.8892,3.9265,3.9039,4.0767,4.1485,4.0766,0.0,0.0,4.1642,4.1627,4.2017,4.2835,4.2853,4.3262,4.4061,4.4934,4.5342,4.5398,4.6197,4.655,4.6568,4.655,4.6531,4.6719,4.8955,4.9418,4.9066,5.1278,5.1721,0.0,5.0175,4.9842,0.0,4.8919,0.0,0.0,0.0,0.0,0.0,0.0,0.0,0.0,0.0,0.0,0.0,0.0,0.0,0.0,5.1371,0.0,5.2215,5.3004,5.3167,5.3185,5.3185,5.3185,5.3185,0.0,0.0,0.0,0.0,0.0,0.0,0.0,0.0,0.0,0.0,0.0,0.0,0.0,5.0074,5.0045,5.0045,5.0499,5.0999,5.1543,5.0537,5.0263,5.0776,5.0246,5.0011,5.0011,5.0011,5.0274,5.0766,5.0246,5.0302,5.0766,5.0235,4.9993,5.0011,5.0011,5.0011,5.0011,5.0011,5.0011,4.9907,4.9103,4.8827,4.8723,0.0,0.0,0.0,0.0,0.0,0.0,3.8974,3.9005,3.9189,0.0,0.0,0.0,3.9819,3.9804,4.0065,4.07,4.0969,4.1253,4.1619,4.1958,4.1969,4.1586,4.1715,4.2006,4.246,4.2463,4.2853,4.367,4.4302,4.4711,4.4952,4.5769,4.6475,4.7051,4.7274,4.7683,4.8203,4.7627,4.7367,4.7573,4.9879,5.0287,4.9714,5.1424,0.0,0.0,0.0,5.0664,4.9784,0.0,4.8772,4.6753,0.0,0.0,0.0,0.0,0.0,0.0,4.5186,0.0,0.0,0.0,0.0,0.0,0.0,0.0,0.0,5.2289,5.2803,5.3185,5.3185,5.3185,0.0,0.0,0.0,0.0,0.0,0.0,0.0,0.0,0.0,0.0,0.0,0.0,0.0,0.0,5.1749,5.1272,5.0833,5.0414,5.0274,5.0425,5.0149,5.008,5.0206,5.008,5.0011,5.0011,5.0011,5.008,5.0235,5.0481,5.0453,5.0235,5.0481,5.0359,5.0011,5.0011,5.0011,5.0011,5.0011,5.0011,4.9976,4.9769,4.9683,4.9579,0.0,0.0,0.0,0.0,0.0,3.9306,3.9827,4.0157,4.0539,0.0,0.0,0.0,4.1585,4.1481,4.1667,4.2288,4.2142,4.2221,4.2678,4.2772,4.2686,4.2455,4.2642,4.2947,4.328,4.3299,4.3708,4.4544,4.5045,4.5472,4.5807,4.6624,4.7256,4.7701,4.8054,4.8463,4.8872,4.8407,4.8203,4.8371,5.0361,5.0638,5.0065,5.1536,5.2193,0.0,0.0,0.0,5.089,5.1619,5.0043,0.0,0.0,0.0,0.0,0.0,0.0,0.0,0.0,0.0,0.0,0.0,0.0,0.0,4.9981,5.0842,5.1683,0.0,5.2876,5.3185,5.3185,0.0,0.0,0.0,0.0,0.0,0.0,0.0,0.0,0.0,0.0,0.0,0.0,5.4285,5.4073,5.3169,5.2702,5.2053,5.1161,5.07,5.042,5.0348,5.0109,5.0109,5.0331,5.0109,5.0011,5.0011,5.0011,5.0011,5.0011,5.0331,5.0302,5.004,5.0331,5.0274,5.0011,5.0011,5.0011,5.0011,5.0011,5.0011,5.0011,5.0011,5.0011,4.9942,0.0,0.0,4.0815,4.0742,4.0822,4.0889,4.0889,4.1474,4.1942,0.0,4.2624,4.3104,4.3104,4.2889,4.2862,4.3158,4.2846,4.2739,4.3006,4.3559,4.3787,4.3582,4.4252,4.4531,4.4283,4.4283,4.4655,4.5417,4.5509,4.5918,4.6643,4.746,4.7831,4.7868,4.8574,4.8909,4.8909,4.8909,4.9003,4.9264,5.0472,5.0638,5.0287,5.1684,5.1904,5.1557,5.2232,5.2512,5.2609,5.3049,5.186,0.0,0.0,0.0,0.0,0.0,4.5312,0.0,0.0,0.0,0.0,0.0,0.0,0.0,5.0299,5.0643,5.1098,0.0,0.0,0.0,0.0,0.0,0.0,0.0,0.0,0.0,0.0,0.0,0.0,0.0,0.0,0.0,5.4458,5.4953,5.4768,5.3451,5.3215,5.2578,5.1299,5.1149,5.102,5.0824,5.0298,5.0235,5.0712,5.0235,5.0011,5.0011,5.0011,5.0011,5.0011,5.0011,5.0011,5.0011,5.0011,5.0011,5.0011,5.0011,5.0011,5.0011,5.0011,5.0011,5.0011,5.0011,5.0011,5.0011,0.0,4.1077,4.1661,4.1651,4.2183,4.2613,4.2613,4.2747,4.2854,4.2854,4.2989,4.3104,4.3104,4.3052,4.3232,4.3694,4.4281,4.4748,4.503,4.5796,4.6113,4.5866,4.6015,4.6057,4.6011,4.6011,4.6104,4.6271,4.6903,4.7311,4.7478,4.8296,4.8667,4.8667,4.8834,4.8909,4.8909,4.8909,4.9617,5.0713,5.0361,5.0491,5.1044,5.2512,5.335,5.3857,5.4644,5.4516,5.3913,5.344,5.2985,5.227,0.0,0.0,0.0,4.679,0.0,0.0,0.0,0.0,0.0,0.0,0.0,0.0,4.8918,4.9451,4.9983,0.0,0.0,0.0,0.0,0.0,0.0,0.0,0.0,0.0,0.0,0.0,0.0,0.0,0.0,0.0,5.649,5.662,5.6223,5.5033,5.3948,5.2926,5.2046,5.1412,5.1075,5.1049,5.0362,5.0051,5.0166,5.0051,5.0011,5.0011,5.0011,5.0011,5.0011,5.0011,5.0011,5.0011,5.0011,5.0011,5.0011,5.0011,5.0011,5.0011,5.0011,5.0011,5.0011,5.0011,5.0011,5.0011,4.1174,4.1588,4.2029,4.2433,4.2832,4.3104,4.3104,4.3431,4.3701,4.3701,4.447,4.5143,4.5547,4.5361,4.5352,4.5764,4.5824,4.5956,4.6223,4.6528,4.6635,4.651,4.6494,4.6494,4.6494,4.6494,4.6698,4.7107,4.7497,4.7906,4.8314,4.9132,4.9691,5.0027,4.9654,4.9709,5.0008,4.9635,5.0192,5.1287,5.1194,5.1819,5.2919,5.4031,5.4663,5.5042,5.5467,5.5335,5.4953,5.4656,5.3781,0.0,0.0,5.1097,5.0157,0.0,4.8678,4.9104,0.0,0.0,0.0,4.8639,0.0,0.0,0.0,4.951,4.9859,5.0281,5.0667,5.0961,5.0961,5.0961,5.0942,0.0,0.0,0.0,0.0,0.0,0.0,0.0,0.0,0.0,5.713,5.7116,5.6634,5.5502,5.4504,5.3615,5.2856,5.2459,5.208,5.1653,5.0942,5.0562,5.0562,5.0183,5.0011,5.0011,5.0011,5.0011,5.0011,5.0011,5.0011,5.0011,5.0011,5.0011,5.0011,5.0011,5.0011,5.0011,5.0011,5.0011,5.0011,5.0011,5.0011,5.0011,4.2032,4.2279,4.2633,4.344,4.3585,4.3682,4.4008,4.4489,4.4837,4.4937,4.633,4.7521,4.8115,4.7936,4.7827,4.7988,4.7563,4.7269,4.7285,4.7218,4.7181,4.7181,4.7033,4.7033,4.72,4.7051,4.7274,4.7924,4.7924,4.8333,4.915,4.98,5.0508,5.1232,5.0749,5.0805,5.1213,5.0898,5.125,5.2085,5.2726,5.3549,5.4425,5.5129,5.5489,5.5691,5.5963,5.6051,5.6018,5.5852,5.452,5.2959,5.2917,5.2075,0.0,0.0,0.0,0.0,0.0,0.0,0.0,0.0,0.0,4.899,0.0,0.0,0.0,5.0471,5.0618,5.0618,0.0,5.0618,0.0,0.0,0.0,0.0,0.0,0.0,0.0,0.0,0.0,0.0,5.6749,5.64,5.5946,5.5278,5.4465,5.3863,5.3632,5.3477,5.3115,5.2429,5.1688,5.1252,5.1114,5.0528,5.0149,5.0011,5.0011,5.0011,5.0011,5.0011,5.0011,5.0011,5.0011,5.0011,5.0011,5.0011,5.0011,5.0011,5.0011,5.0011,5.0011,5.0011,5.0011,5.0011,4.311,4.358,4.4358,4.5171,4.5325,4.5817,4.7317,4.7009,4.6781,4.7242,4.8116,4.8617,4.8472,4.9043,4.9334,4.9149,4.9703,4.9658,4.8736,0.0,4.9689,4.9689,4.902,4.8983,4.9763,4.902,4.8667,4.876,4.876,4.9187,4.9986,5.006,5.0544,5.1398,5.1918,5.1862,5.1472,5.2678,5.3636,5.4388,5.5198,5.4814,0.0,5.4412,5.5101,5.5944,5.7271,5.7721,5.7524,0.0,5.5524,5.4849,0.0,5.3091,5.4264,5.0212,0.0,0.0,0.0,0.0,0.0,0.0,4.8891,0.0,0.0,0.0,4.8918,4.8882,0.0,4.8882,4.8882,0.0,0.0,0.0,0.0,0.0,0.0,0.0,0.0,0.0,0.0,0.0,0.0,5.3835,5.3537,5.4527,5.3048,5.2782,5.427,5.377,5.3356,5.327,5.2511,5.174,5.1114,5.1028,5.0666,5.0011,5.0011,5.0011,5.0011,5.0011,5.0011,5.0011,5.0011,5.0011,5.0011,5.0011,5.0011,5.0011,5.0011,5.0011,5.0011,5.0011,5.0011,5.0011,4.5274,4.5593,0.0,4.6297,4.674,4.7124,4.7375,4.7509,4.7789,4.8395,4.8751,4.9086,4.9454,4.9499,4.9638,4.9902,0.0,5.0522,0.0,0.0,5.0341,4.9447,0.0,0.0,4.9447,4.9094,4.9132,4.9596,4.9596,5.0042,5.0859,5.1342,5.1955,5.2697,5.2973,5.3194,5.336,5.3966,5.4425,5.4771,5.5584,5.5533,0.0,5.6132,5.6761,5.7165,5.7781,5.7997,5.7886,0.0,5.5874,0.0,0.0,0.0,0.0,0.0,0.0,0.0,0.0,0.0,0.0,0.0,0.0,0.0,4.9061,0.0,4.8839,0.0,0.0,0.0,0.0,0.0,0.0,0.0,5.0028,0.0,0.0,0.0,0.0,0.0,0.0,0.0,0.0,0.0,0.0,0.0,5.3979,5.3692,5.446,5.4218,5.4046,5.4046,5.3304,5.2753,5.2442,5.1563,5.0959,5.0649,5.02,5.0011,5.0011,5.0011,5.0011,5.0011,5.0011,5.0011,5.0011,5.0011,5.0011,5.0011,5.0011,5.0011,5.0011,5.0011,5.0011,5.0011,4.7766,0.0,0.0,4.7192,4.7721,4.8067,4.7971,4.8568,4.9156,4.9532,4.9689,4.9879,5.0174,5.0406,5.0744,0.0,5.2067,5.2175,0.0,0.0,5.1269,0.0,0.0,0.0,0.0,0.0,4.9875,5.0469,5.0469,5.0896,5.1751,5.2549,5.3199,5.3659,5.4063,5.4428,5.4776,5.5175,5.5339,5.5394,5.6206,5.6498,5.6565,5.7408,5.7836,5.7997,5.7997,5.7997,5.7923,5.7528,5.5929,0.0,5.6202,0.0,0.0,0.0,0.0,0.0,5.0064,0.0,0.0,0.0,0.0,0.0,0.0,0.0,0.0,0.0,0.0,0.0,0.0,0.0,4.8891,0.0,0.0,4.9584,0.0,0.0,0.0,0.0,0.0,0.0,0.0,0.0,0.0,0.0,0.0,5.4144,5.4477,5.4512,5.4512,5.4512,5.3994,5.3598,5.3408,5.2304,5.1632,5.1407,5.0666,5.0304,5.0304,5.0097,5.0011,5.0011,5.0011,5.0011,5.0011,5.0011,5.0011,5.0011,5.0011,5.0011,5.0011,5.0011,5.0011,5.0011,5.0404,4.8586,4.7154,4.7932,4.8086,4.8663,5.0327,5.1042,5.1294,5.106,5.1435,5.1312,5.0297,5.2141,5.3473,0.0,0.0,5.5542,5.4626,0.0,5.3142,0.0,0.0,5.112,0.0,0.0,0.0,5.1361,5.1361,5.1769,5.2587,5.3385,5.3775,5.3849,5.5225,5.548,5.499,5.635,5.6927,5.7,5.7792,5.8037,5.7873,0.0,5.7426,5.7997,5.7997,0.0,0.0,5.6272,5.5708,0.0,0.0,0.0,0.0,0.0,0.0,0.0,0.0,0.0,0.0,4.9282,0.0,0.0,0.0,0.0,4.8909,0.0,0.0,0.0,0.0,4.8909,0.0,0.0,0.0,0.0,0.0,0.0,0.0,0.0,0.0,0.0,0.0,0.0,0.0,0.0,5.2414,5.3203,5.4437,5.4512,5.4512,5.4512,5.4494,5.4132,5.3408,5.3356,5.2942,5.2153,5.1425,5.108,5.1045,5.0338,5.0011,5.0011,5.0011,5.0011,5.0011,5.0011,5.0011,5.0011,5.0011,5.0011,5.0011,5.0011,5.0011,5.0011,0.0,0.0,4.9942,4.9106,5.0356,5.1542,5.1738,5.1889,5.2044,5.2269,5.2475,5.2604,5.264,5.3236,5.3764,0.0,0.0,5.5484,5.463,5.4201,0.0,0.0,0.0,5.1547,0.0,0.0,0.0,0.0,5.2197,5.2884,5.4203,5.4481,5.4572,5.4568,5.548,5.5747,5.5557,0.0,0.0,0.0,0.0,5.8042,5.7978,0.0,5.7804,5.7997,5.7997,5.7997,0.0,5.74,5.6526,5.58,5.6309,5.5454,5.434,5.4815,5.4633,5.4029,0.0,0.0,5.3699,5.1694,0.0,0.0,0.0,0.0,0.0,0.0,0.0,0.0,0.0,0.0,0.0,0.0,0.0,0.0,0.0,0.0,0.0,0.0,0.0,0.0,0.0,0.0,0.0,0.0,5.3704,0.0,5.4491,5.4512,5.4512,5.4512,5.4512,5.4391,5.4132,5.3649,5.327,5.2994,5.2218,5.155,5.1097,5.0856,5.0476,5.0011,5.0011,5.0011,5.0011,5.0011,5.0011,5.0011,5.0011,5.0011,5.0011,5.0011,5.0011,5.0011,5.0741,5.1875,5.2202,5.0202,5.1612,5.2958,5.2755,5.2586,5.2689,5.3259,5.3248,5.3347,5.372,5.4101,5.4492,0.0,5.5948,5.6242,5.5432,5.5225,0.0,5.4746,5.3358,0.0,0.0,0.0,0.0,0.0,0.0,5.4425,5.5407,5.5685,5.5625,5.5262,5.5676,5.6163,5.6647,5.6757,5.7299,0.0,0.0,5.8859,0.0,0.0,5.8676,5.8455,0.0,5.8859,5.8859,5.8859,5.8006,5.7132,5.8111,5.6893,5.5291,5.6235,5.5837,5.4981,5.443,5.4978,0.0,5.3281,5.3538,0.0,5.214,0.0,0.0,0.0,0.0,0.0,0.0,0.0,0.0,0.0,0.0,0.0,0.0,4.4674,0.0,0.0,0.0,0.0,0.0,0.0,0.0,5.2983,5.3895,5.4536,0.0,5.462,5.4512,5.4512,5.4512,5.4512,5.4512,5.4029,5.3787,5.3787,5.3011,5.239,5.1908,5.1356,5.0856,5.039,5.0114,5.0011,5.0011,5.0011,5.0011,5.0011,5.0011,5.0011,5.0011,5.0011,5.0011,5.0011,5.3318,5.4019,5.3836,5.1441,5.1966,5.2901,5.3499,5.3311,5.3386,5.4143,5.3962,5.3746,5.3738,5.5017,5.5856,5.5819,5.7328,5.7976,5.7162,5.6461,0.0,0.0,5.5705,5.5597,5.7092,0.0,0.0,0.0,0.0,5.624,5.6175,5.6878,5.6742,5.5897,5.5794,5.6614,5.8064,5.7179,5.8198,6.0401,6.0438,6.0438,6.0419,6.0493,6.0034,5.9404,6.0144,6.0401,6.0401,6.0401,5.9905,5.9258,5.9258,5.8731,5.8107,5.8107,5.8107,5.7781,5.6272,5.5852,5.5527,5.4029,5.3662,0.0,0.0,0.0,5.2509,0.0,0.0,0.0,0.0,0.0,0.0,0.0,0.0,0.0,0.0,0.0,0.0,0.0,0.0,0.0,0.0,0.0,4.9207,5.3126,5.2938,5.3469,0.0,0.0,5.4422,5.4512,5.4512,5.4512,5.4512,5.4512,5.4512,5.4494,5.3787,5.3442,5.3356,5.189,5.12,5.1132,5.0373,5.0062,5.0062,5.0028,5.0011,5.0011,5.0011,5.0011,5.0011,5.0011,5.0011,5.0011,5.5049,5.5547,5.5906,5.5654,5.4118,5.3399,5.4788,5.4651,5.487,5.6162,5.6263,5.6375,5.6805,5.7802,5.8152,5.7473,5.8906,0.0,0.0,0.0,0.0,5.9493,5.815,5.7825,5.8745,5.7519,0.0,5.6826,0.0,0.0,5.6826,5.6438,5.61,5.5791,5.518,5.5742,5.7142,5.6895,5.8198,6.0456,6.1043,6.0933,6.0529,0.0,6.1686,6.0933,6.0548,6.0401,6.0401,6.0401,6.0272,6.0107,6.0107,5.996,5.9777,5.9777,5.9777,5.9575,5.857,5.8295,5.7932,5.6466,5.6104,5.5923,0.0,0.0,0.0,0.0,0.0,0.0,0.0,0.0,0.0,0.0,0.0,0.0,0.0,0.0,0.0,4.4079,0.0,0.0,0.0,0.0,5.0329,5.094,5.2423,5.3908,0.0,0.0,0.0,5.446,5.4512,5.4512,5.4512,5.4512,5.4512,5.4512,5.4322,5.3942,5.3391,5.2994,5.2494,5.189,5.1149,5.0838,5.0787,5.0235,5.0011,5.0011,5.0011,5.0011,5.0011,5.0011,5.0011,5.0011,5.6613,5.6581,5.6671,5.6986,5.5839,5.5081,5.566,5.5617,5.5881,5.6953,5.7414,5.7862,5.8552,5.9338,5.9609,5.9098,5.9887,0.0,5.9352,0.0,0.0,5.9958,5.9476,5.9403,5.9834,5.903,0.0,5.7567,0.0,0.0,5.6538,5.6055,5.581,5.5683,0.0,5.5364,5.6877,5.7941,5.9373,6.0988,6.1796,6.1851,0.0,6.2475,6.253,6.2071,6.1612,6.1465,6.1465,6.1465,6.1227,6.0915,6.0915,6.0676,6.0401,6.0401,6.0401,6.0309,5.9869,5.9722,5.9472,5.8372,5.8037,5.7716,5.6699,5.6066,5.5723,0.0,5.4804,5.4049,0.0,0.0,0.0,0.0,0.0,0.0,0.0,0.0,0.0,0.0,4.6259,0.0,0.0,4.8439,5.083,5.0533,5.1413,5.2216,0.0,0.0,0.0,5.2977,5.3994,5.4512,5.4512,5.4512,5.4512,5.4512,5.4512,5.4287,5.3873,5.3546,5.3166,5.2684,5.1895,5.1597,5.1498,5.0787,5.0493,5.0459,5.0131,5.0011,5.0011,5.0011,5.0011,5.0011,5.8031,5.7459,5.702,5.702,5.7335,5.7378,5.6675,5.6644,5.6901,5.7488,5.8146,5.8821,5.9467,6.016,6.0511,6.0419,0.0,6.0406,5.9734,6.032,6.0467,5.9881,6.0394,6.0713,6.0713,6.0717,0.0,0.0,0.0,0.0,5.5767,5.5675,5.561,5.5556,0.0,0.0,0.0,5.9593,6.1025,6.1814,6.253,6.278,6.278,6.278,6.278,6.278,6.278,6.278,6.278,6.278,6.2278,6.1642,6.1642,6.1166,6.0616,6.0616,6.0664,6.0694,6.0584,6.0566,6.0408,5.9768,5.9486,5.9053,5.7886,5.7465,5.7312,5.7287,5.615,5.5708,0.0,0.0,0.0,0.0,0.0,0.0,0.0,0.0,0.0,0.0,0.0,0.0,0.0,0.0,5.0595,5.0543,4.9994,0.0,0.0,0.0,0.0,5.1545,5.3477,5.4512,5.4512,5.4512,5.4512,5.4512,5.4512,5.4512,5.4494,5.3839,5.3546,5.3511,5.2718,5.2343,5.2291,5.1563,5.12,5.1045,5.0407,5.0097,5.0011,5.0011,5.0011,5.0011,5.9298,5.9067,5.8746,5.8746,5.905,5.9208,5.901,5.8903,5.913,5.9895,6.0005,6.0081,6.0204,6.0939,6.1117,6.0456,6.163,0.0,0.0,0.0,0.0,6.2224,6.2328,6.2383,6.2383,6.1747,6.0627,0.0,0.0,0.0,5.5618,5.4975,5.499,0.0,0.0,0.0,5.8872,6.0658,0.0,6.2603,6.2725,6.278,6.278,6.278,6.278,6.278,6.278,6.278,6.278,6.278,6.2373,6.1859,6.1859,6.1768,6.166,6.166,6.1992,6.2236,6.1575,6.1392,6.1202,6.0427,6.0219,6.0138,5.9901,5.9443,5.9026,5.8844,5.8197,5.734,5.6316,0.0,0.0,0.0,0.0,0.0,0.0,0.0,0.0,0.0,0.0,0.0,0.0,0.0,0.0,0.0,0.0,0.0,0.0,0.0,0.0,0.0,5.4305,0.0,0.0,0.0,5.4512,5.4512,5.4512,5.4512,5.4512,5.4374,5.4322,5.427,5.3529,5.3201,5.3132,5.2339,5.1636,5.1097,5.0976,5.0545,5.0011,5.0011,5.0011,5.0011,5.941,5.9197,5.9057,5.9389,5.9918,6.0396,6.0706,6.099,6.1029,6.0641,6.0906,6.114,6.114,6.1789,6.2071,6.1686,6.2365,6.2658,6.2254,6.2585,6.278,6.278,6.278,0.0,6.278,6.242,6.1245,5.9184,0.0,0.0,5.5574,5.5188,0.0,5.5614,0.0,5.6748,0.0,0.0,0.0,6.2218,6.264,6.278,6.278,6.278,6.278,6.278,6.278,6.278,6.278,6.278,6.261,6.236,6.236,6.236,6.236,6.236,6.236,6.2243,6.1842,6.1486,6.1064,6.0372,6.0376,6.0471,6.0122,5.9997,5.9937,5.9834,5.9338,5.8297,5.6221,5.432,0.0,0.0,0.0,0.0,0.0,0.0,0.0,0.0,0.0,0.0,0.0,0.0,0.0,0.0,0.0,0.0,0.0,0.0,0.0,0.0,0.0,0.0,5.4512,0.0,5.4512,5.4512,5.4512,5.4512,5.4512,5.4512,5.4512,5.4494,5.4132,5.3977,5.3908,5.3149,5.2373,5.1653,5.1653,5.1205,5.058,5.058,5.0338,5.0011,5.927,5.9087,5.9133,5.9822,6.0521,6.1181,6.1713,6.2365,6.2389,6.1219,6.1629,6.2015,6.2015,6.2469,6.278,6.278,6.278,6.278,6.278,6.278,6.278,6.278,6.278,6.278,6.278,6.278,6.1698,0.0,0.0,0.0,0.0,0.0,0.0,0.0,0.0,0.0,0.0,0.0,6.1117,6.1906,6.2548,6.278,6.278,6.278,6.278,6.278,6.278,6.278,6.278,6.278,6.2705,6.261,6.261,6.261,6.261,6.261,6.236,6.2086,6.2086,6.1723,6.1149,6.056,6.0679,6.0792,6.0121,6.0132,6.0333,6.0438,5.9954,5.8836,5.6665,5.4923,0.0,0.0,0.0,0.0,0.0,0.0,0.0,0.0,0.0,0.0,0.0,0.0,0.0,0.0,0.0,0.0,4.9001,0.0,0.0,0.0,0.0,5.3787,5.3818,0.0,5.4512,5.4512,5.4512,5.4512,5.4512,5.4512,5.4512,5.4512,5.4512,5.4512,5.446,5.3873,5.3184,5.2477,5.2477,5.2011,5.1309,5.1309,5.0873,5.0235,5.9523,5.9628,5.9859,6.0576,6.1273,6.1713,6.1787,6.2365,6.2768,6.2603,6.2658,6.2713,6.2713,6.2768,6.278,6.278,6.278,6.278,6.278,6.278,6.278,6.278,6.278,6.278,6.278,6.278,6.1979,0.0,0.0,5.834,0.0,0.0,0.0,0.0,0.0,0.0,0.0,6.141,6.1942,6.267,6.2762,6.278,6.278,6.278,6.278,6.278,6.278,6.278,6.278,6.278,6.2438,6.1978,6.1978,6.1978,6.1978,6.1978,6.2334,6.2705,6.2705,6.2661,6.249,6.1869,6.176,6.1605,6.0937,6.0413,6.0152,6.0576,6.0058,5.8999,5.7397,5.7449,5.7347,0.0,0.0,0.0,0.0,0.0,0.0,0.0,0.0,0.0,0.0,5.2101,0.0,0.0,4.9369,0.0,0.0,0.0,0.0,5.1246,5.1381,5.1484,5.1603,5.3539,5.4512,5.4512,5.4512,5.4512,5.4512,5.4512,5.4512,5.4512,5.4512,5.4512,5.4494,5.4443,5.396,5.3287,5.3287,5.2804,5.2084,5.2084,5.1619,5.1011,6.0307,6.034,6.0576,6.1292,6.1627,6.1947,6.2328,6.2628,6.278,6.278,6.278,6.278,6.278,6.278,6.278,6.278,6.278,6.278,6.278,6.278,6.278,6.278,6.278,6.278,6.278,6.278,6.2254,0.0,0.0,0.0,0.0,0.0,0.0,0.0,0.0,6.1006,6.163,6.2126,6.2511,6.278,6.278,6.278,6.278,6.278,6.278,6.278,6.278,6.278,6.278,6.278,6.2636,6.2438,6.2438,6.2438,6.2438,6.2438,6.236,6.2263,6.2263,6.196,6.1594,6.135,6.1293,6.1236,6.0956,6.0706,6.0725,6.1316,6.0792,6.0076,5.9424,5.8417,5.7808,5.8185,0.0,0.0,0.0,0.0,0.0,0.0,0.0,0.0,0.0,0.0,0.0,0.0,0.0,0.0,0.0,0.0,0.0,5.1425,0.0,5.318,5.3211,5.4077,5.4512,5.4512,5.4512,5.4512,5.4512,5.4512,5.4512,5.4512,5.4512,5.4512,5.4512,5.4512,5.4339,5.4063,5.4063,5.3598,5.2925,5.2925,5.2442,5.174,6.1057,6.1094,6.1305,6.1978,6.2083,6.2242,6.2732,6.278,6.278,6.278,6.278,6.278,6.278,6.278,6.278,6.278,6.278,6.278,6.278,6.278,6.278,6.278,6.278,0.0,6.278,6.278,6.253,6.1942,6.1722,0.0,0.0,0.0,0.0,0.0,6.1355,6.1722,6.1998,6.2567,6.278,6.278,6.278,6.278,6.278,6.278,6.278,6.278,6.278,6.278,6.278,6.278,6.278,6.278,6.278,6.278,6.278,6.278,6.2508,6.2157,6.2157,6.1806,6.1407,6.1236,6.1207,6.1149,6.0956,6.0748,6.0826,6.1454,6.1179,6.0901,6.101,5.9365,5.8469,5.981,0.0,0.0,0.0,0.0,0.0,0.0,5.6507,5.5489,5.4953,5.432,0.0,0.0,0.0,0.0,0.0,0.0,0.0,0.0,0.0,0.0,5.3573,5.4167,5.4512,5.4512,5.4512,5.4512,5.4512,5.4512,5.4512,5.4512,5.4512,5.4512,5.4512,5.4512,5.4512,5.4512,5.4512,5.4184,5.3718,5.3718,5.3235,5.2532,6.1664,6.1787,6.1997,6.2683,6.2805,6.2805,6.278,6.278,6.278,6.278,6.278,6.278,6.278,6.278,6.278,6.278,6.278,6.278,6.278,6.278,6.278,0.0,0.0,6.278,6.278,6.278,6.278,6.2805,0.0,0.0,6.1557,0.0,6.0823,6.1575,6.1594,6.2034,6.2805,6.278,6.278,6.278,6.278,6.278,6.278,6.278,6.278,6.278,6.278,6.278,6.278,6.278,6.278,6.278,6.278,6.278,6.278,6.278,6.278,6.2798,6.2798,6.278,6.2636,6.205,6.1897,6.1714,6.1044,6.0419,6.0174,6.0796,6.0926,6.1102,6.1751,6.0675,5.9988,6.0929,0.0,0.0,0.0,0.0,0.0,0.0,5.631,5.5625,5.4953,5.4945,0.0,0.0,0.0,0.0,0.0,0.0,0.0,5.1332,5.1191,0.0,5.1355,5.3435,5.4512,5.4512,5.4512,5.4512,5.4512,5.4512,5.4512,5.4512,5.4512,5.4512,5.4512,5.4512,5.4512,5.4512,5.4512,5.4494,5.4494,5.4494,5.4029,5.3391,6.2432,6.2469,6.2561,6.2768,6.278,6.278,6.278,6.278,6.278,6.278,6.278,6.278,6.278,6.278,6.278,0.0,6.278,6.278,0.0,6.278,6.278,6.278,6.278,6.278,6.278,6.278,6.278,6.278,0.0,0.0,0.0,6.2163,6.2181,6.242,6.242,6.2567,6.278,6.278,6.278,6.278,6.278,6.278,6.278,6.278,6.278,6.278,6.278,6.278,6.278,6.278,6.278,6.278,6.278,6.278,6.278,6.278,6.278,6.278,6.278,6.278,6.2755,6.2559,6.221,6.1824,6.1612,6.1443,6.1329,6.1528,6.1906,6.2245,6.2464,6.2141,6.1941,6.2333,6.1648,0.0,0.0,0.0,0.0,0.0,5.8309,5.7468,5.7245,5.6812,0.0,0.0,0.0,0.0,0.0,0.0,0.0,0.0,5.2675,0.0,5.3487,5.4149,5.4512,5.4512,5.4512,5.4512,5.4512,5.4512,5.4512,5.4512,5.4512,5.4512,5.4512,5.4512,5.4512,5.4512,5.4512,5.4512,5.4512,5.4512,5.4356,5.4149,6.3227,6.3301,6.3392,6.3704,6.3734,6.3734,6.3734,6.3734,6.3734,6.3734,6.3734,6.3734,6.3734,6.3484,0.0,6.2817,6.278,6.278,6.278,6.278,6.278,6.278,6.278,6.278,6.278,6.278,0.0,6.278,6.278,6.278,6.278,6.278,6.278,6.278,6.278,6.278,6.278,6.278,6.278,6.278,6.278,6.278,6.278,6.278,6.278,6.278,6.278,6.278,6.278,6.278,6.278,6.278,6.278,6.278,6.278,6.278,6.278,6.278,6.278,6.278,6.278,6.278,6.2534,6.2184,6.1951,6.1951,6.1951,6.1924,6.2237,6.2585,6.2755,6.261,6.261,6.3002,6.2414,6.2059,6.2461,0.0,0.0,0.0,0.0,0.0,0.0,5.7065,5.6263,0.0,0.0,0.0,0.0,0.0,0.0,5.2559,5.3801,5.4512,5.4512,5.4512,5.4512,5.4512,5.4512,5.4512,5.4512,5.4512,5.4512,5.4512,5.4512,5.4512,5.4512,5.4512,5.4512,5.4512,5.4512,5.4512,5.4512,5.4512,5.4512,5.4512,6.4016,6.4163,6.442,6.5173,6.5319,6.5319,6.5319,6.5319,6.5319,6.5319,6.5319,6.5319,6.5319,6.4622,6.3851,6.3044,0.0,0.0,6.278,6.278,6.278,6.278,6.278,6.278,6.278,6.278,6.278,6.278,6.278,6.278,6.278,6.278,6.278,6.278,6.278,6.278,6.278,6.278,6.278,6.278,6.278,6.278,6.278,6.278,6.278,6.278,6.278,6.278,6.278,6.278,6.278,6.278,6.278,6.278,6.278,6.278,6.278,6.278,6.278,6.278,6.278,6.278,6.278,6.2636,6.2104,6.2059,6.2112,6.1978,6.2059,6.229,6.273,6.2334,6.2219,6.3051,6.2618,6.2453,6.3242,0.0,0.0,0.0,0.0,0.0,5.7527,5.6253,5.5756,0.0,0.0,0.0,0.0,0.0,5.4301,5.4491,5.4512,5.4512,5.4512,5.4512,5.4512,5.4512,5.4512,5.4512,5.4512,5.4512,5.4512,5.4512,5.4512,5.4512,5.4512,5.4512,5.4512,5.4512,5.4512,5.4512,5.4512,5.4512,5.4512,5.4512,6.4989,6.5026,6.5081,6.5283,6.5319,6.5319,6.5319,6.5319,6.5319,6.5319,6.5319,6.5319,6.5319,6.5136,6.4934,6.4732,6.3532,6.278,6.278,6.278,6.278,6.278,6.278,6.278,6.278,6.278,6.278,6.278,6.278,6.278,6.278,6.278,6.278,6.278,6.278,6.278,6.278,6.278,6.278,6.278,6.278,6.278,6.278,6.278,6.278,6.278,6.278,6.278,6.278,6.278,6.278,6.278,6.278,6.278,6.278,6.278,6.278,6.278,6.278,6.278,6.278,6.278,6.278,6.2755,6.261,6.261,6.261,6.2585,6.261,6.2679,6.278,6.2661,6.2686,6.3002,6.3002,6.291,6.2732,6.2517,0.0,0.0,6.0392,5.9895,6.0088,5.8799,5.7684,0.0,0.0,0.0,5.4343,5.4229,5.4291,5.4509,5.4512,5.4512,5.4512,5.4512,5.4512,5.4512,5.4512,5.4512,5.4512,5.4512,5.4512,5.4512,5.4512,5.4512,5.4512,5.4512,5.4512,5.4512,5.4512,5.4512,5.4512,5.4512,5.4512,5.4512,6.5778,6.5852,6.5962,6.6329,6.6402,6.6402,6.6402,6.6402,6.6402,6.6402,6.6402,6.6402,6.6402,6.6072,6.5852,6.5852,6.4347,6.3392,6.3392,6.3025,6.278,6.278,6.278,6.278,6.278,6.278,6.278,6.278,6.278,6.278,6.278,6.278,6.278,6.278,6.278,6.278,6.278,6.278,6.278,6.278,6.278,6.278,6.278,6.278,6.278,6.278,6.278,6.278,6.278,6.278,6.278,6.278,6.278,6.278,6.278,6.278,6.278,6.278,6.278,6.278,6.278,6.278,6.278,6.278,6.278,6.283,6.288,6.288,6.288,6.288,6.288,6.283,6.283,6.2978,6.2424,6.2203,6.2733,6.22,6.1757,6.186,6.1417,6.1081,6.0971,5.9919,5.901,5.8421,5.7497,0.0,5.5848,5.5518,5.5112,5.4512,5.4512,5.4512,5.4512,5.4512,5.4512,5.4512,5.4512,5.4512,5.4512,5.4512,5.4512,5.4512,5.4512,5.4512,5.4512,5.4512,5.4512,5.4512,5.4512,5.4512,5.4512,5.4512,5.4512,5.4512,6.6549,6.6678,6.6898,6.7577,6.7687,6.7687,6.7687,6.7687,6.7687,6.7687,6.7687,6.7687,6.7687,6.7081,6.6678,6.6678,6.5319,6.4347,6.4108,6.3411,6.2952,6.2798,6.278,6.278,6.278,6.278,6.278,6.278,6.278,6.278,6.278,6.278,6.278,6.278,6.278,6.278,6.278,6.278,6.278,6.278,6.278,6.278,6.278,6.278,6.278,6.278,6.278,6.278,6.278,6.278,6.278,6.278,6.278,6.278,6.278,6.278,6.278,6.278,6.278,6.278,6.278,6.278,6.278,6.278,6.278,6.288,6.2978,6.2978,6.2978,6.2978,6.2978,6.288,6.2757,6.2622,6.1677,6.1369,6.2516,0.0,6.1269,6.1922,6.2005,6.1751,6.1149,6.0425,6.0049,6.0107,5.8827,5.7983,5.7908,5.73,5.6322,5.4891,5.4736,5.4615,5.4512,5.4512,5.4512,5.4512,5.4512,5.4512,5.4512,5.4512,5.4512,5.4512,5.4512,5.4512,5.4512,5.4512,5.4512,5.4512,5.4512,5.4512,5.4512,5.4512,5.4512,5.4512,6.7485,6.7504,6.754,6.7696,6.7687,6.7687,6.7687,6.7687,6.7687,6.7687,6.7687,6.7687,6.7687,6.7577,6.7504,6.7504,6.6659,6.554,6.4182,6.3961,6.3576,6.2817,6.278,6.278,6.278,6.278,6.278,6.278,6.278,6.278,6.278,6.278,6.278,6.278,6.278,6.278,6.278,6.278,6.278,6.278,6.278,6.278,6.278,6.278,6.278,6.278,6.278,6.278,6.278,6.278,6.278,6.278,6.278,6.278,6.278,6.278,6.278,6.278,6.278,6.278,6.278,6.278,6.278,6.278,6.278,6.2823,6.283,6.283,6.283,6.283,6.283,6.2805,6.2365,6.1031,6.1825,6.2065,6.0464,0.0,6.2008,6.1638,6.1536,6.163,6.1978,6.1317,6.1085,6.1533,6.0367,5.9369,5.8737,5.8099,5.734,5.6477,5.5788,5.515,5.4512,5.4512,5.4512,5.4512,5.4512,5.4512,5.4512,5.4512,5.4512,5.4512,5.4512,5.4512,5.4512,5.4512,5.4512,5.4512,5.4512,5.4512,5.4512,5.4512,5.4512,5.4512,6.7687,6.7687,6.7687,6.7687,6.7687,6.7687,6.7687,6.7687,6.7687,6.7687,6.7687,6.7687,6.7687,6.7687,6.7687,6.7687,6.7357,6.6641,6.5466,6.4989,6.4365,6.3539,6.3503,6.3282,6.2798,6.278,6.278,6.278,6.278,6.278,6.278,6.278,6.278,6.278,6.278,6.278,6.278,6.278,6.278,6.278,6.278,6.278,6.278,6.278,6.278,6.278,6.278,6.278,6.278,6.278,6.278,6.278,6.278,6.278,6.278,6.278,6.278,6.278,6.278,6.278,6.278,6.278,6.278,6.278,6.278,6.278,6.2805,6.288,6.2855,6.2805,6.288,6.2855,6.2542,6.1814,6.1643,0.0,6.14,6.1334,6.1438,6.1669,6.1704,6.163,6.1518,6.1178,6.1102,6.1322,6.0529,5.9861,5.951,5.8847,5.815,5.7426,5.665,5.5874,5.5115,5.5098,5.4908,5.4512,5.4512,5.4512,5.4512,5.4512,5.4512,5.4512,5.4512,5.4512,5.4512,5.4512,5.4512,5.4512,5.4512,5.4512,5.4512,5.4512,5.4512,5.4512,6.7687,6.7687,6.7687,6.7687,6.7687,6.7687,6.7687,6.7687,6.7687,6.7687,6.7687,6.7687,6.7687,6.7687,6.7687,6.7687,6.7687,6.743,6.6824,6.62,6.543,6.442,6.42,6.3686,6.2817,6.278,6.278,6.278,6.278,6.278,6.278,6.278,6.278,6.278,6.278,6.278,6.278,6.278,6.278,6.278,6.278,6.278,6.278,6.278,6.278,6.278,6.278,6.278,6.278,6.278,6.278,6.278,6.278,6.278,6.278,6.278,6.278,6.278,6.278,6.278,6.278,6.278,6.278,6.278,6.278,6.278,6.283,6.2929,6.2855,6.283,6.2929,6.2855,6.2695,6.231,0.0,6.1263,6.2101,6.1502,6.1244,6.2012,6.1978,6.1769,6.1379,6.1073,6.0956,6.112,6.0437,6.0019,6.0019,5.935,5.8754,5.8185,5.7271,5.6512,5.5891,5.5891,5.5512,5.477,5.477,5.4684,5.4512,5.4512,5.4512,5.4512,5.4512,5.4512,5.4512,5.4512,5.4512,5.4512,5.4512,5.4512,5.4512,5.4512,5.4512,5.4512,6.7687,6.7687,6.7687,6.7687,6.7687,6.7687,6.7687,6.7687,6.7687,6.7687,6.7687,6.7687,6.7687,6.7687,6.7687,6.7687,6.7687,6.765,6.7614,6.754,6.6824,6.5283,6.4494,6.3686,6.2817,6.278,6.278,6.278,6.278,6.278,6.278,6.278,6.278,6.278,6.278,6.278,6.278,6.278,6.278,6.278,6.278,6.278,6.278,6.278,6.278,6.278,6.278,6.278,6.278,6.278,6.278,6.278,6.278,6.278,6.278,6.278,6.278,6.278,6.278,6.278,6.278,6.278,6.278,6.278,6.278,6.278,6.2805,6.2805,6.2823,6.2805,6.2805,6.2823,6.2303,6.0823,0.0,0.0,6.0768,6.1777,6.2652,6.2712,6.2237,6.2104,6.261,6.1576,6.1149,6.1769,6.0681,6.0019,6.0019,5.935,5.8995,5.8926,5.7547,5.6771,5.6719,5.6719,5.6322,5.5497,5.5497,5.5167,5.4512,5.4512,5.4512,5.4512,5.4512,5.4512,5.4512,5.4512,5.4512,5.4512,5.4512,5.4512,5.4512,5.4512,5.4512,5.4512,6.7687,6.7687,6.7687,6.7687,6.7687,6.7687,6.7687,6.7687,6.7687,6.7687,6.7687,6.7687,6.7687,6.7687,6.7687,6.7687,6.7687,6.7687,6.7687,6.7687,6.7192,6.609,6.4787,6.3943,6.3613,6.3099,6.278,6.278,6.278,6.278,6.278,6.278,6.278,6.278,6.278,6.278,6.278,6.278,6.278,6.278,6.278,6.278,6.278,6.278,6.278,6.278,6.278,6.278,6.278,6.278,6.278,6.278,6.278,6.278,6.278,6.278,6.278,6.278,6.278,6.278,6.278,6.278,6.278,6.278,6.278,6.278,6.278,6.278,6.278,6.278,6.278,6.278,6.2603,6.1998,0.0,6.2578,6.1979,6.2395,6.278,6.278,6.2585,6.2412,6.2263,6.1796,6.13,6.0741,6.0268,5.9826,5.9383,5.9132,5.9012,5.9012,5.8461,5.7943,5.7495,5.7478,5.7098,5.634,5.634,5.5943,5.5184,5.5184,5.4943,5.4512,5.4512,5.4512,5.4512,5.4512,5.4512,5.4512,5.4512,5.4512,5.4512,5.4512,5.4512,5.4512,6.7687,6.7687,6.7687,6.7687,6.7687,6.7687,6.7687,6.7687,6.7687,6.7687,6.7687,6.7687,6.7687,6.7687,6.7687,6.7687,6.7687,6.7687,6.7687,6.7687,6.7338,6.6531,6.543,6.4604,6.409,6.3503,6.308,6.278,6.278,6.278,6.278,6.278,6.278,6.278,6.278,6.278,6.278,6.278,6.278,6.278,6.278,6.278,6.278,6.278,6.278,6.278,6.278,6.278,6.278,6.278,6.278,6.278,6.278,6.278,6.278,6.278,6.278,6.278,6.278,6.278,6.278,6.278,6.278,6.278,6.278,6.278,6.278,6.278,6.278,6.278,6.278,6.278,6.278,6.278,6.278,6.278,6.278,6.278,6.278,6.278,6.278,6.2636,6.221,6.2005,6.1546,6.0651,6.0223,5.9696,5.9047,5.9012,5.9012,5.9012,5.9012,5.8771,5.8254,5.8254,5.7892,5.715,5.715,5.6736,5.5995,5.5995,5.5563,5.4856,5.4856,5.4718,5.4512,5.4512,5.4512,5.4512,5.4512,5.4512,5.4512,5.4512,5.4512,5.4512,6.7687,6.7687,6.7687,6.7687,6.7687,6.7687,6.7687,6.7687,6.7687,6.7687,6.7687,6.7687,6.7687,6.7687,6.7687,6.7687,6.7687,6.7687,6.7687,6.7687,6.7338,6.6531,6.6494,6.5742,6.4145,6.409,6.3686,6.2798,6.278,6.278,6.278,6.278,6.278,6.278,6.278,6.278,6.278,6.278,6.278,6.278,6.278,6.278,6.278,6.278,6.278,6.278,6.278,6.278,6.278,6.278,6.278,6.278,6.278,6.278,6.278,6.278,6.278,6.278,6.278,6.278,6.278,6.278,6.278,6.278,6.278,6.278,6.278,6.278,6.278,6.278,6.278,6.278,6.278,6.278,6.278,6.278,6.278,6.278,6.278,6.278,6.278,6.278,6.278,6.2263,6.1897,6.1897,6.0711,5.9696,5.9047,5.9012,5.9012,5.9012,5.9012,5.9012,5.9012,5.9012,5.8633,5.7909,5.7909,5.7529,5.6805,5.6805,5.6374,5.5615,5.5615,5.5201,5.4512,5.4512,5.4512,5.4512,5.4512,5.4512,5.4512,5.4512,5.4512,5.4512,6.7687,6.7687,6.7687,6.7687,6.7687,6.7687,6.7687,6.7687,6.7687,6.7687,6.7687,6.7687,6.7687,6.7687,6.7687,6.7687,6.7687,6.7687,6.7687,6.7687,6.7577,6.7338,6.6788,6.6274,6.5797,6.4677,6.3961,6.3704,6.3099,6.278,6.278,6.278,6.278,6.278,6.278,6.278,6.278,6.278,6.278,6.278,6.278,6.278,6.278,6.278,6.278,6.278,6.278,6.278,6.278,6.278,6.278,6.278,6.278,6.278,6.278,6.278,6.278,6.278,6.278,6.278,6.278,6.278,6.278,6.278,6.278,6.278,6.278,6.278,6.278,6.278,6.278,6.278,6.278,6.278,6.278,6.278,6.278,6.278,6.278,6.278,6.278,6.278,6.278,6.2636,6.236,6.1924,6.0711,5.9923,5.9696,5.9267,5.9012,5.9012,5.9012,5.9012,5.9012,5.9012,5.8909,5.8685,5.8685,5.8288,5.7581,5.7581,5.7167,5.6443,5.6443,5.6012,5.5288,5.5288,5.4977,5.4512,5.4512,5.4512,5.4512,5.4512,5.4512,5.4512,6.7687,6.7687,6.7687,6.7687,6.7687,6.7687,6.7687,6.7687,6.7687,6.7687,6.7687,6.7687,6.7687,6.7687,6.7687,6.7687,6.7687,6.7687,6.7687,6.7687,6.7687,6.7687,6.7228,6.6824,6.6512,6.554,6.4732,6.409,6.3576,6.3154,6.278,6.278,6.278,6.278,6.278,6.278,6.278,6.278,6.278,6.278,6.278,6.278,6.278,6.278,6.278,6.278,6.278,6.278,6.278,6.278,6.278,6.278,6.278,6.278,6.278,6.278,6.278,6.278,6.278,6.278,6.278,6.278,6.278,6.278,6.278,6.278,6.278,6.278,6.278,6.278,6.278,6.278,6.278,6.278,6.278,6.278,6.278,6.278,6.278,6.278,6.278,6.278,6.278,6.278,6.2559,6.1951,6.0933,6.0251,6.0019,5.935,5.9012,5.9012,5.9012,5.9012,5.9012,5.9012,5.9012,5.9012,5.9012,5.8771,5.834,5.834,5.7943,5.7236,5.7236,5.6788,5.6064,5.5753,5.5357,5.4925,5.4615,5.4512,5.4512,5.4512,5.4512,5.4512,6.7687,6.7687,6.7687,6.7687,6.7687,6.7687,6.7687,6.7687,6.7687,6.7687,6.7687,6.7687,6.7687,6.7687,6.7687,6.7687,6.7687,6.7687,6.7687,6.7687,6.7687,6.7687,6.7687,6.7357,6.6623,6.6531,6.5778,6.431,6.4163,6.3686,6.289,6.286,6.278,6.278,6.278,6.278,6.278,6.278,6.278,6.278,6.278,6.278,6.278,6.278,6.278,6.278,6.278,6.278,6.278,6.278,6.278,6.278,6.278,6.278,6.278,6.278,6.278,6.278,6.278,6.278,6.278,6.278,6.278,6.278,6.278,6.278,6.278,6.278,6.278,6.278,6.278,6.278,6.278,6.278,6.278,6.278,6.278,6.278,6.278,6.278,6.278,6.278,6.278,6.278,6.2585,6.2005,6.1293,6.0646,6.0129,5.9383,5.9012,5.9012,5.9012,5.9012,5.9012,5.9012,5.9012,5.9012,5.9012,5.9012,5.9012,5.9012,5.8633,5.8012,5.8012,5.7581,5.684,5.6115,5.5788,5.565,5.4908,5.4615,5.4598,5.4529,5.4512,5.4512,6.7687,6.7687,6.7687,6.7687,6.7687,6.7687,6.7687,6.7687,6.7687,6.7687,6.7687,6.7687,6.7687,6.7687,6.7687,6.7687,6.7687,6.7687,6.7687,6.7687,6.7687,6.7687,6.7687,6.7614,6.743,6.6824,6.6329,6.598,6.4714,6.3998,6.3796,6.3135,6.278,6.278,6.278,6.278,6.278,6.278,6.278,6.278,6.278,6.278,6.278,6.278,6.278,6.278,6.278,6.278,6.278,6.278,6.278,6.278,6.278,6.278,6.278,6.278,6.278,6.278,6.278,6.278,6.278,6.278,6.278,6.278,6.278,6.278,6.278,6.278,6.278,6.278,6.278,6.278,6.278,6.278,6.278,6.278,6.278,6.278,6.278,6.278,6.278,6.278,6.278,6.278,6.2755,6.261,6.1566,6.0838,6.0706,5.9628,5.9012,5.9012,5.9012,5.9012,5.9012,5.9012,5.9012,5.9012,5.9012,5.9012,5.9012,5.9012,5.8926,5.8771,5.8771,5.834,5.765,5.7478,5.7064,5.646,5.5684,5.5374,5.5305,5.4718,5.4512,5.4512,6.7687,6.7687,6.7687,6.7687,6.7687,6.7687,6.7687,6.7687,6.7687,6.7687,6.7687,6.7687,6.7687,6.7687,6.7687,6.7687,6.7687,6.7687,6.7687,6.7687,6.7687,6.7687,6.7687,6.7687,6.7687,6.7283,6.688,6.6494,6.565,6.4842,6.409,6.3631,6.3209,6.278,6.278,6.278,6.278,6.278,6.278,6.278,6.278,6.278,6.278,6.278,6.278,6.278,6.278,6.278,6.278,6.278,6.278,6.278,6.278,6.278,6.278,6.278,6.278,6.278,6.278,6.278,6.278,6.278,6.278,6.278,6.278,6.278,6.278,6.278,6.278,6.278,6.278,6.278,6.278,6.278,6.278,6.278,6.278,6.278,6.278,6.278,6.278,6.278,6.278,6.278,6.278,6.278,6.1933,6.1368,6.1368,6.0156,5.9483,5.9483,5.9165,5.9012,5.9012,5.9012,5.9012,5.9012,5.9012,5.9012,5.9012,5.9012,5.9012,5.9012,5.9012,5.8788,5.8409,5.8064,5.7685,5.7253,5.6477,5.6184,5.6081,5.5322,5.4805,5.4512,6.7687,6.7687,6.7687,6.7687,6.7687,6.7687,6.7687,6.7687,6.7687,6.7687,6.7687,6.7687,6.7687,6.7687,6.7687,6.7687,6.7687,6.7687,6.7687,6.7687,6.7687,6.7687,6.7687,6.7687,6.7687,6.7687,6.7357,6.6714,6.6568,6.5815,6.4494,6.4218,6.3704,6.3025,6.2879,6.278,6.278,6.278,6.278,6.278,6.278,6.278,6.278,6.278,6.278,6.278,6.278,6.278,6.278,6.278,6.278,6.278,6.278,6.278,6.278,6.278,6.278,6.278,6.278,6.278,6.278,6.278,6.278,6.278,6.278,6.278,6.278,6.278,6.278,6.278,6.278,6.278,6.278,6.278,6.278,6.278,6.278,6.278,6.278,6.278,6.278,6.278,6.278,6.278,6.278,6.278,6.2237,6.1897,6.1897,6.0681,6.0019,6.0019,5.935,5.9012,5.9012,5.9012,5.9012,5.9012,5.9012,5.9012,5.9012,5.9012,5.9012,5.9012,5.9012,5.9012,5.8961,5.834,5.8099,5.8012,5.7288,5.6995,5.6874,5.5943,5.5219,5.4684,6.7687,6.7687,6.7687,6.7687,6.7687,6.7687,6.7687,6.7687,6.7687,6.7687,6.7687,6.7687,6.7687,6.7687,6.7687,6.7687,6.7687,6.7687,6.7687,6.7687,6.7687,6.7687,6.7687,6.7687,6.7687,6.7687,6.7659,6.7522,6.6843,6.6384,6.6145,6.4732,6.4035,6.3888,6.3154,6.278,6.278,6.278,6.278,6.278,6.278,6.278,6.278,6.278,6.278,6.278,6.278,6.278,6.278,6.278,6.278,6.278,6.278,6.278,6.278,6.278,6.278,6.278,6.278,6.278,6.278,6.278,6.278,6.278,6.278,6.278,6.278,6.278,6.278,6.278,6.278,6.278,6.278,6.278,6.278,6.278,6.278,6.278,6.278,6.278,6.278,6.278,6.278,6.278,6.278,6.278,6.2237,6.1897,6.1897,6.0681,6.0019,6.0019,5.935,5.9012,5.9012,5.9012,5.9012,5.9012,5.9012,5.9012,5.9012,5.9012,5.9012,5.9012,5.9012,5.9012,5.9012,5.8909,5.8857,5.8788,5.8047,5.7754,5.7581,5.615,5.5563,5.5374,6.7687,6.7687,6.7687,6.7687,6.7687,6.7687,6.7687,6.7687,6.7687,6.7687,6.7687,6.7687,6.7687,6.7687,6.7687,6.7687,6.7687,6.7687,6.7687,6.7687,6.7687,6.7687,6.7687,6.7687,6.7687,6.7687,6.7687,6.7687,6.7338,6.6935,6.6476,6.5301,6.453,6.4053,6.3191,6.278,6.278,6.278,6.278,6.278,6.278,6.278,6.278,6.278,6.278,6.278,6.278,6.278,6.278,6.278,6.278,6.278,6.278,6.278,6.278,6.278,6.278,6.278,6.278,6.278,6.278,6.278,6.278,6.278,6.278,6.278,6.278,6.278,6.278,6.278,6.278,6.278,6.278,6.278,6.278,6.278,6.278,6.278,6.278,6.278,6.278,6.278,6.278,6.278,6.278,6.278,6.2559,6.2412,6.2412,6.1196,6.0511,6.0511,5.9532,5.9012,5.9012,5.9012,5.9012,5.9012,5.9012,5.9012,5.9012,5.9012,5.9012,5.9012,5.9012,5.9012,5.9012,5.9012,5.9012,5.8978,5.865,5.8271,5.7856,5.7573,5.6646,5.566]}]]